<?xml version="1.0" encoding="UTF-8" standalone="no" ?>
<gpx xmlns="http://www.topografix.com/GPX/1/1" xmlns:xsi="http://www.w3.org/2001/XMLSchema-instance" xsi:schemaLocation="http://www.topografix.com/GPX/1/1 http://www.topografix.com/GPX/1/1/gpx.xsd" version="1.1" creator="VisuGPX - https://www.visugpx.com">
  <metadata>
    <name>balade detox</name>
  </metadata>
  <trk>
    <name><![CDATA[balade detox]]></name>
    <trkseg>
      <trkpt lat="49.29642" lon="-0.31606">
        <ele>10.9</ele>
        <time>2020-12-25T15:52:13Z</time>
      </trkpt>
      <trkpt lat="49.29658" lon="-0.31591">
        <ele>10.9</ele>
        <time>2020-12-25T15:52:15Z</time>
      </trkpt>
      <trkpt lat="49.29652" lon="-0.31603">
        <ele>10.9</ele>
        <time>2020-12-25T15:52:16Z</time>
      </trkpt>
      <trkpt lat="49.29647" lon="-0.31611">
        <ele>10.9</ele>
        <time>2020-12-25T15:52:18Z</time>
      </trkpt>
      <trkpt lat="49.29647" lon="-0.31611">
        <ele>10.9</ele>
        <time>2020-12-25T15:52:19Z</time>
      </trkpt>
      <trkpt lat="49.29647" lon="-0.31611">
        <ele>10.9</ele>
        <time>2020-12-25T15:52:20Z</time>
      </trkpt>
      <trkpt lat="49.29649" lon="-0.31611">
        <ele>10.9</ele>
        <time>2020-12-25T15:52:21Z</time>
      </trkpt>
      <trkpt lat="49.29652" lon="-0.31613">
        <ele>10.9</ele>
        <time>2020-12-25T15:52:23Z</time>
      </trkpt>
      <trkpt lat="49.29658" lon="-0.31617">
        <ele>10.9</ele>
        <time>2020-12-25T15:52:25Z</time>
      </trkpt>
      <trkpt lat="49.2966" lon="-0.31621">
        <ele>10.9</ele>
        <time>2020-12-25T15:52:26Z</time>
      </trkpt>
      <trkpt lat="49.29663" lon="-0.31624">
        <ele>11</ele>
        <time>2020-12-25T15:52:27Z</time>
      </trkpt>
      <trkpt lat="49.29665" lon="-0.31625">
        <ele>11</ele>
        <time>2020-12-25T15:52:28Z</time>
      </trkpt>
      <trkpt lat="49.29667" lon="-0.31626">
        <ele>11</ele>
        <time>2020-12-25T15:52:30Z</time>
      </trkpt>
      <trkpt lat="49.29669" lon="-0.31628">
        <ele>11</ele>
        <time>2020-12-25T15:52:31Z</time>
      </trkpt>
      <trkpt lat="49.29672" lon="-0.31629">
        <ele>11</ele>
        <time>2020-12-25T15:52:32Z</time>
      </trkpt>
      <trkpt lat="49.29673" lon="-0.3163">
        <ele>11</ele>
        <time>2020-12-25T15:52:33Z</time>
      </trkpt>
      <trkpt lat="49.29675" lon="-0.31632">
        <ele>11</ele>
        <time>2020-12-25T15:52:34Z</time>
      </trkpt>
      <trkpt lat="49.29676" lon="-0.31633">
        <ele>11</ele>
        <time>2020-12-25T15:52:36Z</time>
      </trkpt>
      <trkpt lat="49.29678" lon="-0.31635">
        <ele>11</ele>
        <time>2020-12-25T15:52:37Z</time>
      </trkpt>
      <trkpt lat="49.2968" lon="-0.31636">
        <ele>11</ele>
        <time>2020-12-25T15:52:39Z</time>
      </trkpt>
      <trkpt lat="49.29681" lon="-0.31637">
        <ele>11</ele>
        <time>2020-12-25T15:52:40Z</time>
      </trkpt>
      <trkpt lat="49.29683" lon="-0.31638">
        <ele>11</ele>
        <time>2020-12-25T15:52:41Z</time>
      </trkpt>
      <trkpt lat="49.29687" lon="-0.31639">
        <ele>11</ele>
        <time>2020-12-25T15:52:43Z</time>
      </trkpt>
      <trkpt lat="49.29688" lon="-0.31638">
        <ele>11</ele>
        <time>2020-12-25T15:52:44Z</time>
      </trkpt>
      <trkpt lat="49.2969" lon="-0.3164">
        <ele>11</ele>
        <time>2020-12-25T15:52:46Z</time>
      </trkpt>
      <trkpt lat="49.29691" lon="-0.31641">
        <ele>11</ele>
        <time>2020-12-25T15:52:47Z</time>
      </trkpt>
      <trkpt lat="49.29694" lon="-0.31641">
        <ele>11</ele>
        <time>2020-12-25T15:52:48Z</time>
      </trkpt>
      <trkpt lat="49.29695" lon="-0.31641">
        <ele>11</ele>
        <time>2020-12-25T15:52:49Z</time>
      </trkpt>
      <trkpt lat="49.29696" lon="-0.31639">
        <ele>11</ele>
        <time>2020-12-25T15:52:50Z</time>
      </trkpt>
      <trkpt lat="49.29698" lon="-0.31637">
        <ele>11.1</ele>
        <time>2020-12-25T15:52:52Z</time>
      </trkpt>
      <trkpt lat="49.29699" lon="-0.31635">
        <ele>11.1</ele>
        <time>2020-12-25T15:52:53Z</time>
      </trkpt>
      <trkpt lat="49.29701" lon="-0.31633">
        <ele>11.2</ele>
        <time>2020-12-25T15:52:55Z</time>
      </trkpt>
      <trkpt lat="49.29704" lon="-0.31629">
        <ele>11.2</ele>
        <time>2020-12-25T15:52:56Z</time>
      </trkpt>
      <trkpt lat="49.29704" lon="-0.31629">
        <ele>11.3</ele>
        <time>2020-12-25T15:52:57Z</time>
      </trkpt>
      <trkpt lat="49.29705" lon="-0.31626">
        <ele>11.3</ele>
        <time>2020-12-25T15:52:58Z</time>
      </trkpt>
      <trkpt lat="49.29706" lon="-0.31623">
        <ele>11.3</ele>
        <time>2020-12-25T15:53:00Z</time>
      </trkpt>
      <trkpt lat="49.29707" lon="-0.31621">
        <ele>11.4</ele>
        <time>2020-12-25T15:53:01Z</time>
      </trkpt>
      <trkpt lat="49.29708" lon="-0.3162">
        <ele>11.4</ele>
        <time>2020-12-25T15:53:02Z</time>
      </trkpt>
      <trkpt lat="49.29709" lon="-0.31618">
        <ele>11.4</ele>
        <time>2020-12-25T15:53:03Z</time>
      </trkpt>
      <trkpt lat="49.29711" lon="-0.31617">
        <ele>11.4</ele>
        <time>2020-12-25T15:53:04Z</time>
      </trkpt>
      <trkpt lat="49.29712" lon="-0.31615">
        <ele>11.5</ele>
        <time>2020-12-25T15:53:05Z</time>
      </trkpt>
      <trkpt lat="49.29712" lon="-0.31613">
        <ele>11.5</ele>
        <time>2020-12-25T15:53:06Z</time>
      </trkpt>
      <trkpt lat="49.29715" lon="-0.3161">
        <ele>11.5</ele>
        <time>2020-12-25T15:53:08Z</time>
      </trkpt>
      <trkpt lat="49.29715" lon="-0.31608">
        <ele>11.5</ele>
        <time>2020-12-25T15:53:09Z</time>
      </trkpt>
      <trkpt lat="49.29717" lon="-0.31605">
        <ele>11.5</ele>
        <time>2020-12-25T15:53:10Z</time>
      </trkpt>
      <trkpt lat="49.29718" lon="-0.31604">
        <ele>11.5</ele>
        <time>2020-12-25T15:53:12Z</time>
      </trkpt>
      <trkpt lat="49.29719" lon="-0.31602">
        <ele>11.5</ele>
        <time>2020-12-25T15:53:13Z</time>
      </trkpt>
      <trkpt lat="49.2972" lon="-0.316">
        <ele>11.5</ele>
        <time>2020-12-25T15:53:14Z</time>
      </trkpt>
      <trkpt lat="49.29721" lon="-0.31598">
        <ele>11.4</ele>
        <time>2020-12-25T15:53:15Z</time>
      </trkpt>
      <trkpt lat="49.29721" lon="-0.31597">
        <ele>11.4</ele>
        <time>2020-12-25T15:53:16Z</time>
      </trkpt>
      <trkpt lat="49.29723" lon="-0.31594">
        <ele>11.4</ele>
        <time>2020-12-25T15:53:18Z</time>
      </trkpt>
      <trkpt lat="49.29724" lon="-0.31593">
        <ele>11.3</ele>
        <time>2020-12-25T15:53:19Z</time>
      </trkpt>
      <trkpt lat="49.29726" lon="-0.3159">
        <ele>11.3</ele>
        <time>2020-12-25T15:53:20Z</time>
      </trkpt>
      <trkpt lat="49.29726" lon="-0.31589">
        <ele>11.3</ele>
        <time>2020-12-25T15:53:21Z</time>
      </trkpt>
      <trkpt lat="49.29728" lon="-0.31587">
        <ele>11.2</ele>
        <time>2020-12-25T15:53:22Z</time>
      </trkpt>
      <trkpt lat="49.29729" lon="-0.31585">
        <ele>11.2</ele>
        <time>2020-12-25T15:53:23Z</time>
      </trkpt>
      <trkpt lat="49.29731" lon="-0.31581">
        <ele>11.1</ele>
        <time>2020-12-25T15:53:25Z</time>
      </trkpt>
      <trkpt lat="49.29731" lon="-0.3158">
        <ele>11.1</ele>
        <time>2020-12-25T15:53:26Z</time>
      </trkpt>
      <trkpt lat="49.29733" lon="-0.31577">
        <ele>11</ele>
        <time>2020-12-25T15:53:27Z</time>
      </trkpt>
      <trkpt lat="49.29736" lon="-0.31573">
        <ele>11</ele>
        <time>2020-12-25T15:53:29Z</time>
      </trkpt>
      <trkpt lat="49.29737" lon="-0.31571">
        <ele>10.9</ele>
        <time>2020-12-25T15:53:30Z</time>
      </trkpt>
      <trkpt lat="49.29738" lon="-0.31568">
        <ele>10.9</ele>
        <time>2020-12-25T15:53:32Z</time>
      </trkpt>
      <trkpt lat="49.29739" lon="-0.31565">
        <ele>10.8</ele>
        <time>2020-12-25T15:53:33Z</time>
      </trkpt>
      <trkpt lat="49.2974" lon="-0.31563">
        <ele>10.8</ele>
        <time>2020-12-25T15:53:34Z</time>
      </trkpt>
      <trkpt lat="49.29739" lon="-0.3156">
        <ele>10.8</ele>
        <time>2020-12-25T15:53:36Z</time>
      </trkpt>
      <trkpt lat="49.2974" lon="-0.31558">
        <ele>10.8</ele>
        <time>2020-12-25T15:53:38Z</time>
      </trkpt>
      <trkpt lat="49.2974" lon="-0.31557">
        <ele>10.7</ele>
        <time>2020-12-25T15:53:39Z</time>
      </trkpt>
      <trkpt lat="49.29741" lon="-0.31557">
        <ele>10.7</ele>
        <time>2020-12-25T15:53:41Z</time>
      </trkpt>
      <trkpt lat="49.29741" lon="-0.31558">
        <ele>10.7</ele>
        <time>2020-12-25T15:53:43Z</time>
      </trkpt>
      <trkpt lat="49.29741" lon="-0.31558">
        <ele>10.7</ele>
        <time>2020-12-25T15:53:44Z</time>
      </trkpt>
      <trkpt lat="49.29741" lon="-0.31557">
        <ele>10.7</ele>
        <time>2020-12-25T15:53:46Z</time>
      </trkpt>
      <trkpt lat="49.29741" lon="-0.31556">
        <ele>10.7</ele>
        <time>2020-12-25T15:53:47Z</time>
      </trkpt>
      <trkpt lat="49.29741" lon="-0.31555">
        <ele>10.7</ele>
        <time>2020-12-25T15:53:49Z</time>
      </trkpt>
      <trkpt lat="49.2974" lon="-0.31554">
        <ele>10.7</ele>
        <time>2020-12-25T15:53:50Z</time>
      </trkpt>
      <trkpt lat="49.29741" lon="-0.31552">
        <ele>10.6</ele>
        <time>2020-12-25T15:53:52Z</time>
      </trkpt>
      <trkpt lat="49.29741" lon="-0.31553">
        <ele>10.6</ele>
        <time>2020-12-25T15:53:54Z</time>
      </trkpt>
      <trkpt lat="49.29742" lon="-0.31553">
        <ele>10.6</ele>
        <time>2020-12-25T15:53:55Z</time>
      </trkpt>
      <trkpt lat="49.29741" lon="-0.31553">
        <ele>10.6</ele>
        <time>2020-12-25T15:53:56Z</time>
      </trkpt>
      <trkpt lat="49.29741" lon="-0.31553">
        <ele>10.6</ele>
        <time>2020-12-25T15:53:57Z</time>
      </trkpt>
      <trkpt lat="49.2974" lon="-0.31554">
        <ele>10.6</ele>
        <time>2020-12-25T15:53:58Z</time>
      </trkpt>
      <trkpt lat="49.2974" lon="-0.31555">
        <ele>10.6</ele>
        <time>2020-12-25T15:54:00Z</time>
      </trkpt>
      <trkpt lat="49.29741" lon="-0.31554">
        <ele>10.6</ele>
        <time>2020-12-25T15:54:01Z</time>
      </trkpt>
      <trkpt lat="49.2974" lon="-0.31555">
        <ele>10.6</ele>
        <time>2020-12-25T15:54:02Z</time>
      </trkpt>
      <trkpt lat="49.2974" lon="-0.31555">
        <ele>10.6</ele>
        <time>2020-12-25T15:54:04Z</time>
      </trkpt>
      <trkpt lat="49.2974" lon="-0.31555">
        <ele>10.5</ele>
        <time>2020-12-25T15:54:05Z</time>
      </trkpt>
      <trkpt lat="49.29741" lon="-0.31554">
        <ele>10.5</ele>
        <time>2020-12-25T15:54:06Z</time>
      </trkpt>
      <trkpt lat="49.29741" lon="-0.31553">
        <ele>10.5</ele>
        <time>2020-12-25T15:54:07Z</time>
      </trkpt>
      <trkpt lat="49.29743" lon="-0.31554">
        <ele>10.5</ele>
        <time>2020-12-25T15:54:08Z</time>
      </trkpt>
      <trkpt lat="49.29744" lon="-0.31553">
        <ele>10.5</ele>
        <time>2020-12-25T15:54:09Z</time>
      </trkpt>
      <trkpt lat="49.29746" lon="-0.31551">
        <ele>10.5</ele>
        <time>2020-12-25T15:54:11Z</time>
      </trkpt>
      <trkpt lat="49.29747" lon="-0.3155">
        <ele>10.4</ele>
        <time>2020-12-25T15:54:12Z</time>
      </trkpt>
      <trkpt lat="49.29748" lon="-0.31549">
        <ele>10.4</ele>
        <time>2020-12-25T15:54:13Z</time>
      </trkpt>
      <trkpt lat="49.29749" lon="-0.31546">
        <ele>10.4</ele>
        <time>2020-12-25T15:54:14Z</time>
      </trkpt>
      <trkpt lat="49.2975" lon="-0.31544">
        <ele>10.4</ele>
        <time>2020-12-25T15:54:15Z</time>
      </trkpt>
      <trkpt lat="49.2975" lon="-0.31543">
        <ele>10.3</ele>
        <time>2020-12-25T15:54:16Z</time>
      </trkpt>
      <trkpt lat="49.29752" lon="-0.31538">
        <ele>10.3</ele>
        <time>2020-12-25T15:54:17Z</time>
      </trkpt>
      <trkpt lat="49.29752" lon="-0.31537">
        <ele>10.3</ele>
        <time>2020-12-25T15:54:18Z</time>
      </trkpt>
      <trkpt lat="49.29754" lon="-0.31533">
        <ele>10.2</ele>
        <time>2020-12-25T15:54:19Z</time>
      </trkpt>
      <trkpt lat="49.29755" lon="-0.31532">
        <ele>10.2</ele>
        <time>2020-12-25T15:54:20Z</time>
      </trkpt>
      <trkpt lat="49.29757" lon="-0.31527">
        <ele>10.1</ele>
        <time>2020-12-25T15:54:22Z</time>
      </trkpt>
      <trkpt lat="49.29758" lon="-0.31526">
        <ele>10.1</ele>
        <time>2020-12-25T15:54:23Z</time>
      </trkpt>
      <trkpt lat="49.29759" lon="-0.31525">
        <ele>10.1</ele>
        <time>2020-12-25T15:54:24Z</time>
      </trkpt>
      <trkpt lat="49.2976" lon="-0.31522">
        <ele>10</ele>
        <time>2020-12-25T15:54:26Z</time>
      </trkpt>
      <trkpt lat="49.29761" lon="-0.31521">
        <ele>10</ele>
        <time>2020-12-25T15:54:27Z</time>
      </trkpt>
      <trkpt lat="49.29762" lon="-0.31519">
        <ele>10</ele>
        <time>2020-12-25T15:54:28Z</time>
      </trkpt>
      <trkpt lat="49.29764" lon="-0.31514">
        <ele>9.9</ele>
        <time>2020-12-25T15:54:29Z</time>
      </trkpt>
      <trkpt lat="49.29765" lon="-0.31513">
        <ele>9.9</ele>
        <time>2020-12-25T15:54:30Z</time>
      </trkpt>
      <trkpt lat="49.29768" lon="-0.31508">
        <ele>9.8</ele>
        <time>2020-12-25T15:54:32Z</time>
      </trkpt>
      <trkpt lat="49.2977" lon="-0.31505">
        <ele>9.8</ele>
        <time>2020-12-25T15:54:33Z</time>
      </trkpt>
      <trkpt lat="49.29771" lon="-0.31504">
        <ele>9.8</ele>
        <time>2020-12-25T15:54:34Z</time>
      </trkpt>
      <trkpt lat="49.29772" lon="-0.31503">
        <ele>9.8</ele>
        <time>2020-12-25T15:54:35Z</time>
      </trkpt>
      <trkpt lat="49.29774" lon="-0.31501">
        <ele>9.8</ele>
        <time>2020-12-25T15:54:37Z</time>
      </trkpt>
      <trkpt lat="49.29775" lon="-0.31499">
        <ele>9.8</ele>
        <time>2020-12-25T15:54:38Z</time>
      </trkpt>
      <trkpt lat="49.29776" lon="-0.31497">
        <ele>9.7</ele>
        <time>2020-12-25T15:54:39Z</time>
      </trkpt>
      <trkpt lat="49.29777" lon="-0.31496">
        <ele>9.7</ele>
        <time>2020-12-25T15:54:40Z</time>
      </trkpt>
      <trkpt lat="49.29778" lon="-0.31494">
        <ele>9.7</ele>
        <time>2020-12-25T15:54:41Z</time>
      </trkpt>
      <trkpt lat="49.29779" lon="-0.31493">
        <ele>9.7</ele>
        <time>2020-12-25T15:54:42Z</time>
      </trkpt>
      <trkpt lat="49.2978" lon="-0.31491">
        <ele>9.7</ele>
        <time>2020-12-25T15:54:43Z</time>
      </trkpt>
      <trkpt lat="49.29781" lon="-0.31489">
        <ele>9.7</ele>
        <time>2020-12-25T15:54:44Z</time>
      </trkpt>
      <trkpt lat="49.29782" lon="-0.31488">
        <ele>9.6</ele>
        <time>2020-12-25T15:54:45Z</time>
      </trkpt>
      <trkpt lat="49.29783" lon="-0.31486">
        <ele>9.6</ele>
        <time>2020-12-25T15:54:47Z</time>
      </trkpt>
      <trkpt lat="49.29785" lon="-0.31484">
        <ele>9.6</ele>
        <time>2020-12-25T15:54:48Z</time>
      </trkpt>
      <trkpt lat="49.29786" lon="-0.31483">
        <ele>9.5</ele>
        <time>2020-12-25T15:54:49Z</time>
      </trkpt>
      <trkpt lat="49.29787" lon="-0.31481">
        <ele>9.5</ele>
        <time>2020-12-25T15:54:51Z</time>
      </trkpt>
      <trkpt lat="49.29788" lon="-0.31479">
        <ele>9.5</ele>
        <time>2020-12-25T15:54:52Z</time>
      </trkpt>
      <trkpt lat="49.29789" lon="-0.31476">
        <ele>9.4</ele>
        <time>2020-12-25T15:54:54Z</time>
      </trkpt>
      <trkpt lat="49.2979" lon="-0.31475">
        <ele>9.4</ele>
        <time>2020-12-25T15:54:55Z</time>
      </trkpt>
      <trkpt lat="49.2979" lon="-0.31473">
        <ele>9.4</ele>
        <time>2020-12-25T15:54:56Z</time>
      </trkpt>
      <trkpt lat="49.29791" lon="-0.31472">
        <ele>9.3</ele>
        <time>2020-12-25T15:54:57Z</time>
      </trkpt>
      <trkpt lat="49.29792" lon="-0.31469">
        <ele>9.3</ele>
        <time>2020-12-25T15:54:58Z</time>
      </trkpt>
      <trkpt lat="49.29793" lon="-0.31468">
        <ele>9.3</ele>
        <time>2020-12-25T15:54:59Z</time>
      </trkpt>
      <trkpt lat="49.29794" lon="-0.31467">
        <ele>9.2</ele>
        <time>2020-12-25T15:55:00Z</time>
      </trkpt>
      <trkpt lat="49.29796" lon="-0.31463">
        <ele>9.2</ele>
        <time>2020-12-25T15:55:02Z</time>
      </trkpt>
      <trkpt lat="49.29796" lon="-0.31462">
        <ele>9.2</ele>
        <time>2020-12-25T15:55:03Z</time>
      </trkpt>
      <trkpt lat="49.29797" lon="-0.31461">
        <ele>9.1</ele>
        <time>2020-12-25T15:55:04Z</time>
      </trkpt>
      <trkpt lat="49.29798" lon="-0.31459">
        <ele>9.1</ele>
        <time>2020-12-25T15:55:05Z</time>
      </trkpt>
      <trkpt lat="49.29799" lon="-0.31457">
        <ele>9</ele>
        <time>2020-12-25T15:55:06Z</time>
      </trkpt>
      <trkpt lat="49.29799" lon="-0.31456">
        <ele>9</ele>
        <time>2020-12-25T15:55:07Z</time>
      </trkpt>
      <trkpt lat="49.29801" lon="-0.31453">
        <ele>9</ele>
        <time>2020-12-25T15:55:08Z</time>
      </trkpt>
      <trkpt lat="49.29801" lon="-0.31452">
        <ele>8.9</ele>
        <time>2020-12-25T15:55:09Z</time>
      </trkpt>
      <trkpt lat="49.29802" lon="-0.31451">
        <ele>8.9</ele>
        <time>2020-12-25T15:55:10Z</time>
      </trkpt>
      <trkpt lat="49.29803" lon="-0.31446">
        <ele>8.8</ele>
        <time>2020-12-25T15:55:12Z</time>
      </trkpt>
      <trkpt lat="49.29804" lon="-0.31445">
        <ele>8.8</ele>
        <time>2020-12-25T15:55:13Z</time>
      </trkpt>
      <trkpt lat="49.29806" lon="-0.31441">
        <ele>8.7</ele>
        <time>2020-12-25T15:55:15Z</time>
      </trkpt>
      <trkpt lat="49.29806" lon="-0.3144">
        <ele>8.7</ele>
        <time>2020-12-25T15:55:16Z</time>
      </trkpt>
      <trkpt lat="49.29807" lon="-0.31437">
        <ele>8.7</ele>
        <time>2020-12-25T15:55:17Z</time>
      </trkpt>
      <trkpt lat="49.29808" lon="-0.31435">
        <ele>8.6</ele>
        <time>2020-12-25T15:55:19Z</time>
      </trkpt>
      <trkpt lat="49.29809" lon="-0.31432">
        <ele>8.6</ele>
        <time>2020-12-25T15:55:20Z</time>
      </trkpt>
      <trkpt lat="49.2981" lon="-0.3143">
        <ele>8.6</ele>
        <time>2020-12-25T15:55:21Z</time>
      </trkpt>
      <trkpt lat="49.29811" lon="-0.31429">
        <ele>8.5</ele>
        <time>2020-12-25T15:55:22Z</time>
      </trkpt>
      <trkpt lat="49.29811" lon="-0.31428">
        <ele>8.5</ele>
        <time>2020-12-25T15:55:23Z</time>
      </trkpt>
      <trkpt lat="49.29813" lon="-0.31425">
        <ele>8.5</ele>
        <time>2020-12-25T15:55:25Z</time>
      </trkpt>
      <trkpt lat="49.29814" lon="-0.31423">
        <ele>8.5</ele>
        <time>2020-12-25T15:55:26Z</time>
      </trkpt>
      <trkpt lat="49.29815" lon="-0.31421">
        <ele>8.5</ele>
        <time>2020-12-25T15:55:27Z</time>
      </trkpt>
      <trkpt lat="49.29816" lon="-0.31419">
        <ele>8.5</ele>
        <time>2020-12-25T15:55:28Z</time>
      </trkpt>
      <trkpt lat="49.29817" lon="-0.31417">
        <ele>8.5</ele>
        <time>2020-12-25T15:55:29Z</time>
      </trkpt>
      <trkpt lat="49.29819" lon="-0.31413">
        <ele>8.5</ele>
        <time>2020-12-25T15:55:30Z</time>
      </trkpt>
      <trkpt lat="49.2982" lon="-0.31412">
        <ele>8.5</ele>
        <time>2020-12-25T15:55:31Z</time>
      </trkpt>
      <trkpt lat="49.29822" lon="-0.31409">
        <ele>8.5</ele>
        <time>2020-12-25T15:55:33Z</time>
      </trkpt>
      <trkpt lat="49.29822" lon="-0.31408">
        <ele>8.5</ele>
        <time>2020-12-25T15:55:34Z</time>
      </trkpt>
      <trkpt lat="49.29823" lon="-0.31406">
        <ele>8.5</ele>
        <time>2020-12-25T15:55:35Z</time>
      </trkpt>
      <trkpt lat="49.29824" lon="-0.31404">
        <ele>8.6</ele>
        <time>2020-12-25T15:55:36Z</time>
      </trkpt>
      <trkpt lat="49.29825" lon="-0.31402">
        <ele>8.6</ele>
        <time>2020-12-25T15:55:37Z</time>
      </trkpt>
      <trkpt lat="49.29826" lon="-0.314">
        <ele>8.6</ele>
        <time>2020-12-25T15:55:38Z</time>
      </trkpt>
      <trkpt lat="49.29828" lon="-0.31395">
        <ele>8.7</ele>
        <time>2020-12-25T15:55:40Z</time>
      </trkpt>
      <trkpt lat="49.29828" lon="-0.31394">
        <ele>8.7</ele>
        <time>2020-12-25T15:55:41Z</time>
      </trkpt>
      <trkpt lat="49.29829" lon="-0.31393">
        <ele>8.7</ele>
        <time>2020-12-25T15:55:42Z</time>
      </trkpt>
      <trkpt lat="49.29831" lon="-0.31391">
        <ele>8.7</ele>
        <time>2020-12-25T15:55:43Z</time>
      </trkpt>
      <trkpt lat="49.29833" lon="-0.31387">
        <ele>8.7</ele>
        <time>2020-12-25T15:55:45Z</time>
      </trkpt>
      <trkpt lat="49.29833" lon="-0.31386">
        <ele>8.7</ele>
        <time>2020-12-25T15:55:46Z</time>
      </trkpt>
      <trkpt lat="49.29834" lon="-0.31385">
        <ele>8.8</ele>
        <time>2020-12-25T15:55:47Z</time>
      </trkpt>
      <trkpt lat="49.29835" lon="-0.31384">
        <ele>8.8</ele>
        <time>2020-12-25T15:55:48Z</time>
      </trkpt>
      <trkpt lat="49.29836" lon="-0.31382">
        <ele>8.8</ele>
        <time>2020-12-25T15:55:50Z</time>
      </trkpt>
      <trkpt lat="49.29837" lon="-0.31379">
        <ele>8.8</ele>
        <time>2020-12-25T15:55:51Z</time>
      </trkpt>
      <trkpt lat="49.29839" lon="-0.31377">
        <ele>8.8</ele>
        <time>2020-12-25T15:55:53Z</time>
      </trkpt>
      <trkpt lat="49.2984" lon="-0.31376">
        <ele>8.7</ele>
        <time>2020-12-25T15:55:54Z</time>
      </trkpt>
      <trkpt lat="49.29841" lon="-0.31375">
        <ele>8.7</ele>
        <time>2020-12-25T15:55:55Z</time>
      </trkpt>
      <trkpt lat="49.29843" lon="-0.31373">
        <ele>8.7</ele>
        <time>2020-12-25T15:55:56Z</time>
      </trkpt>
      <trkpt lat="49.29844" lon="-0.31372">
        <ele>8.7</ele>
        <time>2020-12-25T15:55:57Z</time>
      </trkpt>
      <trkpt lat="49.29845" lon="-0.3137">
        <ele>8.7</ele>
        <time>2020-12-25T15:55:58Z</time>
      </trkpt>
      <trkpt lat="49.29846" lon="-0.31369">
        <ele>8.7</ele>
        <time>2020-12-25T15:55:59Z</time>
      </trkpt>
      <trkpt lat="49.29848" lon="-0.31366">
        <ele>8.6</ele>
        <time>2020-12-25T15:56:00Z</time>
      </trkpt>
      <trkpt lat="49.29849" lon="-0.31365">
        <ele>8.6</ele>
        <time>2020-12-25T15:56:01Z</time>
      </trkpt>
      <trkpt lat="49.2985" lon="-0.31363">
        <ele>8.6</ele>
        <time>2020-12-25T15:56:02Z</time>
      </trkpt>
      <trkpt lat="49.29852" lon="-0.3136">
        <ele>8.5</ele>
        <time>2020-12-25T15:56:04Z</time>
      </trkpt>
      <trkpt lat="49.29853" lon="-0.31359">
        <ele>8.5</ele>
        <time>2020-12-25T15:56:05Z</time>
      </trkpt>
      <trkpt lat="49.29854" lon="-0.31357">
        <ele>8.5</ele>
        <time>2020-12-25T15:56:06Z</time>
      </trkpt>
      <trkpt lat="49.29856" lon="-0.31354">
        <ele>8.4</ele>
        <time>2020-12-25T15:56:07Z</time>
      </trkpt>
      <trkpt lat="49.29857" lon="-0.31353">
        <ele>8.4</ele>
        <time>2020-12-25T15:56:08Z</time>
      </trkpt>
      <trkpt lat="49.29858" lon="-0.31351">
        <ele>8.4</ele>
        <time>2020-12-25T15:56:09Z</time>
      </trkpt>
      <trkpt lat="49.29859" lon="-0.31349">
        <ele>8.4</ele>
        <time>2020-12-25T15:56:10Z</time>
      </trkpt>
      <trkpt lat="49.2986" lon="-0.31348">
        <ele>8.4</ele>
        <time>2020-12-25T15:56:11Z</time>
      </trkpt>
      <trkpt lat="49.29862" lon="-0.31345">
        <ele>8.4</ele>
        <time>2020-12-25T15:56:13Z</time>
      </trkpt>
      <trkpt lat="49.29863" lon="-0.31344">
        <ele>8.4</ele>
        <time>2020-12-25T15:56:14Z</time>
      </trkpt>
      <trkpt lat="49.29864" lon="-0.31342">
        <ele>8.4</ele>
        <time>2020-12-25T15:56:15Z</time>
      </trkpt>
      <trkpt lat="49.29865" lon="-0.3134">
        <ele>8.4</ele>
        <time>2020-12-25T15:56:16Z</time>
      </trkpt>
      <trkpt lat="49.29866" lon="-0.31338">
        <ele>8.4</ele>
        <time>2020-12-25T15:56:17Z</time>
      </trkpt>
      <trkpt lat="49.29868" lon="-0.31335">
        <ele>8.4</ele>
        <time>2020-12-25T15:56:18Z</time>
      </trkpt>
      <trkpt lat="49.29869" lon="-0.31334">
        <ele>8.4</ele>
        <time>2020-12-25T15:56:19Z</time>
      </trkpt>
      <trkpt lat="49.29871" lon="-0.3133">
        <ele>8.3</ele>
        <time>2020-12-25T15:56:20Z</time>
      </trkpt>
      <trkpt lat="49.29871" lon="-0.31329">
        <ele>8.3</ele>
        <time>2020-12-25T15:56:21Z</time>
      </trkpt>
      <trkpt lat="49.29873" lon="-0.31325">
        <ele>8.3</ele>
        <time>2020-12-25T15:56:22Z</time>
      </trkpt>
      <trkpt lat="49.29874" lon="-0.31323">
        <ele>8.3</ele>
        <time>2020-12-25T15:56:23Z</time>
      </trkpt>
      <trkpt lat="49.29876" lon="-0.31319">
        <ele>8.2</ele>
        <time>2020-12-25T15:56:25Z</time>
      </trkpt>
      <trkpt lat="49.29877" lon="-0.31317">
        <ele>8.2</ele>
        <time>2020-12-25T15:56:26Z</time>
      </trkpt>
      <trkpt lat="49.29878" lon="-0.31315">
        <ele>8.2</ele>
        <time>2020-12-25T15:56:27Z</time>
      </trkpt>
      <trkpt lat="49.29878" lon="-0.31313">
        <ele>8.2</ele>
        <time>2020-12-25T15:56:28Z</time>
      </trkpt>
      <trkpt lat="49.2988" lon="-0.3131">
        <ele>8.2</ele>
        <time>2020-12-25T15:56:29Z</time>
      </trkpt>
      <trkpt lat="49.2988" lon="-0.31309">
        <ele>8.2</ele>
        <time>2020-12-25T15:56:30Z</time>
      </trkpt>
      <trkpt lat="49.2988" lon="-0.31308">
        <ele>8.1</ele>
        <time>2020-12-25T15:56:31Z</time>
      </trkpt>
      <trkpt lat="49.29881" lon="-0.31305">
        <ele>8.1</ele>
        <time>2020-12-25T15:56:32Z</time>
      </trkpt>
      <trkpt lat="49.29883" lon="-0.31303">
        <ele>8.1</ele>
        <time>2020-12-25T15:56:34Z</time>
      </trkpt>
      <trkpt lat="49.29885" lon="-0.31298">
        <ele>8.1</ele>
        <time>2020-12-25T15:56:35Z</time>
      </trkpt>
      <trkpt lat="49.29885" lon="-0.31297">
        <ele>8</ele>
        <time>2020-12-25T15:56:36Z</time>
      </trkpt>
      <trkpt lat="49.29886" lon="-0.31295">
        <ele>8</ele>
        <time>2020-12-25T15:56:37Z</time>
      </trkpt>
      <trkpt lat="49.29888" lon="-0.31292">
        <ele>8</ele>
        <time>2020-12-25T15:56:39Z</time>
      </trkpt>
      <trkpt lat="49.29889" lon="-0.31289">
        <ele>8</ele>
        <time>2020-12-25T15:56:40Z</time>
      </trkpt>
      <trkpt lat="49.2989" lon="-0.31288">
        <ele>7.9</ele>
        <time>2020-12-25T15:56:41Z</time>
      </trkpt>
      <trkpt lat="49.29892" lon="-0.31284">
        <ele>7.9</ele>
        <time>2020-12-25T15:56:42Z</time>
      </trkpt>
      <trkpt lat="49.29893" lon="-0.31283">
        <ele>7.9</ele>
        <time>2020-12-25T15:56:43Z</time>
      </trkpt>
      <trkpt lat="49.29895" lon="-0.31282">
        <ele>7.9</ele>
        <time>2020-12-25T15:56:44Z</time>
      </trkpt>
      <trkpt lat="49.29896" lon="-0.31279">
        <ele>7.9</ele>
        <time>2020-12-25T15:56:46Z</time>
      </trkpt>
      <trkpt lat="49.29896" lon="-0.31278">
        <ele>7.8</ele>
        <time>2020-12-25T15:56:47Z</time>
      </trkpt>
      <trkpt lat="49.29896" lon="-0.31276">
        <ele>7.8</ele>
        <time>2020-12-25T15:56:48Z</time>
      </trkpt>
      <trkpt lat="49.29897" lon="-0.31273">
        <ele>7.8</ele>
        <time>2020-12-25T15:56:50Z</time>
      </trkpt>
      <trkpt lat="49.29897" lon="-0.31268">
        <ele>7.8</ele>
        <time>2020-12-25T15:56:51Z</time>
      </trkpt>
      <trkpt lat="49.29897" lon="-0.31266">
        <ele>7.8</ele>
        <time>2020-12-25T15:56:52Z</time>
      </trkpt>
      <trkpt lat="49.29896" lon="-0.31261">
        <ele>7.8</ele>
        <time>2020-12-25T15:56:54Z</time>
      </trkpt>
      <trkpt lat="49.29895" lon="-0.31256">
        <ele>7.7</ele>
        <time>2020-12-25T15:56:55Z</time>
      </trkpt>
      <trkpt lat="49.29894" lon="-0.31249">
        <ele>7.7</ele>
        <time>2020-12-25T15:56:57Z</time>
      </trkpt>
      <trkpt lat="49.29894" lon="-0.31248">
        <ele>7.7</ele>
        <time>2020-12-25T15:56:58Z</time>
      </trkpt>
      <trkpt lat="49.29894" lon="-0.31246">
        <ele>7.7</ele>
        <time>2020-12-25T15:56:59Z</time>
      </trkpt>
      <trkpt lat="49.29893" lon="-0.3124">
        <ele>7.6</ele>
        <time>2020-12-25T15:57:01Z</time>
      </trkpt>
      <trkpt lat="49.29892" lon="-0.31239">
        <ele>7.6</ele>
        <time>2020-12-25T15:57:02Z</time>
      </trkpt>
      <trkpt lat="49.29892" lon="-0.31235">
        <ele>7.6</ele>
        <time>2020-12-25T15:57:04Z</time>
      </trkpt>
      <trkpt lat="49.29892" lon="-0.31233">
        <ele>7.6</ele>
        <time>2020-12-25T15:57:05Z</time>
      </trkpt>
      <trkpt lat="49.29893" lon="-0.31231">
        <ele>7.5</ele>
        <time>2020-12-25T15:57:06Z</time>
      </trkpt>
      <trkpt lat="49.29893" lon="-0.31228">
        <ele>7.5</ele>
        <time>2020-12-25T15:57:07Z</time>
      </trkpt>
      <trkpt lat="49.29894" lon="-0.31225">
        <ele>7.5</ele>
        <time>2020-12-25T15:57:08Z</time>
      </trkpt>
      <trkpt lat="49.29894" lon="-0.31222">
        <ele>7.5</ele>
        <time>2020-12-25T15:57:10Z</time>
      </trkpt>
      <trkpt lat="49.29894" lon="-0.31218">
        <ele>7.4</ele>
        <time>2020-12-25T15:57:11Z</time>
      </trkpt>
      <trkpt lat="49.29894" lon="-0.31213">
        <ele>7.4</ele>
        <time>2020-12-25T15:57:13Z</time>
      </trkpt>
      <trkpt lat="49.29894" lon="-0.31207">
        <ele>7.4</ele>
        <time>2020-12-25T15:57:15Z</time>
      </trkpt>
      <trkpt lat="49.29893" lon="-0.31203">
        <ele>7.3</ele>
        <time>2020-12-25T15:57:16Z</time>
      </trkpt>
      <trkpt lat="49.29893" lon="-0.31199">
        <ele>7.3</ele>
        <time>2020-12-25T15:57:18Z</time>
      </trkpt>
      <trkpt lat="49.29893" lon="-0.31193">
        <ele>7.2</ele>
        <time>2020-12-25T15:57:19Z</time>
      </trkpt>
      <trkpt lat="49.29893" lon="-0.31191">
        <ele>7.2</ele>
        <time>2020-12-25T15:57:20Z</time>
      </trkpt>
      <trkpt lat="49.29892" lon="-0.31186">
        <ele>7.2</ele>
        <time>2020-12-25T15:57:22Z</time>
      </trkpt>
      <trkpt lat="49.29892" lon="-0.31185">
        <ele>7.2</ele>
        <time>2020-12-25T15:57:23Z</time>
      </trkpt>
      <trkpt lat="49.29891" lon="-0.31181">
        <ele>7.1</ele>
        <time>2020-12-25T15:57:25Z</time>
      </trkpt>
      <trkpt lat="49.29891" lon="-0.31181">
        <ele>7.1</ele>
        <time>2020-12-25T15:57:26Z</time>
      </trkpt>
      <trkpt lat="49.2989" lon="-0.31176">
        <ele>7.1</ele>
        <time>2020-12-25T15:57:28Z</time>
      </trkpt>
      <trkpt lat="49.2989" lon="-0.31175">
        <ele>7.1</ele>
        <time>2020-12-25T15:57:29Z</time>
      </trkpt>
      <trkpt lat="49.29889" lon="-0.3117">
        <ele>7</ele>
        <time>2020-12-25T15:57:31Z</time>
      </trkpt>
      <trkpt lat="49.29888" lon="-0.31169">
        <ele>7</ele>
        <time>2020-12-25T15:57:32Z</time>
      </trkpt>
      <trkpt lat="49.29887" lon="-0.31165">
        <ele>7</ele>
        <time>2020-12-25T15:57:34Z</time>
      </trkpt>
      <trkpt lat="49.29886" lon="-0.31164">
        <ele>6.9</ele>
        <time>2020-12-25T15:57:35Z</time>
      </trkpt>
      <trkpt lat="49.29884" lon="-0.3116">
        <ele>6.9</ele>
        <time>2020-12-25T15:57:37Z</time>
      </trkpt>
      <trkpt lat="49.29883" lon="-0.31159">
        <ele>6.9</ele>
        <time>2020-12-25T15:57:38Z</time>
      </trkpt>
      <trkpt lat="49.29881" lon="-0.31155">
        <ele>6.8</ele>
        <time>2020-12-25T15:57:40Z</time>
      </trkpt>
      <trkpt lat="49.2988" lon="-0.31152">
        <ele>6.8</ele>
        <time>2020-12-25T15:57:41Z</time>
      </trkpt>
      <trkpt lat="49.29879" lon="-0.31148">
        <ele>6.8</ele>
        <time>2020-12-25T15:57:43Z</time>
      </trkpt>
      <trkpt lat="49.29878" lon="-0.31143">
        <ele>6.7</ele>
        <time>2020-12-25T15:57:44Z</time>
      </trkpt>
      <trkpt lat="49.29876" lon="-0.31139">
        <ele>6.7</ele>
        <time>2020-12-25T15:57:45Z</time>
      </trkpt>
      <trkpt lat="49.29876" lon="-0.31137">
        <ele>6.6</ele>
        <time>2020-12-25T15:57:46Z</time>
      </trkpt>
      <trkpt lat="49.29875" lon="-0.31131">
        <ele>6.6</ele>
        <time>2020-12-25T15:57:48Z</time>
      </trkpt>
      <trkpt lat="49.29874" lon="-0.31129">
        <ele>6.6</ele>
        <time>2020-12-25T15:57:49Z</time>
      </trkpt>
      <trkpt lat="49.29874" lon="-0.31127">
        <ele>6.6</ele>
        <time>2020-12-25T15:57:50Z</time>
      </trkpt>
      <trkpt lat="49.29873" lon="-0.31122">
        <ele>6.5</ele>
        <time>2020-12-25T15:57:52Z</time>
      </trkpt>
      <trkpt lat="49.29872" lon="-0.31119">
        <ele>6.5</ele>
        <time>2020-12-25T15:57:53Z</time>
      </trkpt>
      <trkpt lat="49.29872" lon="-0.31114">
        <ele>6.5</ele>
        <time>2020-12-25T15:57:55Z</time>
      </trkpt>
      <trkpt lat="49.29872" lon="-0.31111">
        <ele>6.5</ele>
        <time>2020-12-25T15:57:56Z</time>
      </trkpt>
      <trkpt lat="49.29873" lon="-0.31107">
        <ele>6.5</ele>
        <time>2020-12-25T15:57:58Z</time>
      </trkpt>
      <trkpt lat="49.29875" lon="-0.31105">
        <ele>6.5</ele>
        <time>2020-12-25T15:57:59Z</time>
      </trkpt>
      <trkpt lat="49.29876" lon="-0.31104">
        <ele>6.6</ele>
        <time>2020-12-25T15:58:00Z</time>
      </trkpt>
      <trkpt lat="49.29879" lon="-0.31101">
        <ele>6.6</ele>
        <time>2020-12-25T15:58:02Z</time>
      </trkpt>
      <trkpt lat="49.2988" lon="-0.311">
        <ele>6.6</ele>
        <time>2020-12-25T15:58:03Z</time>
      </trkpt>
      <trkpt lat="49.29882" lon="-0.31099">
        <ele>6.6</ele>
        <time>2020-12-25T15:58:04Z</time>
      </trkpt>
      <trkpt lat="49.29883" lon="-0.31098">
        <ele>6.6</ele>
        <time>2020-12-25T15:58:05Z</time>
      </trkpt>
      <trkpt lat="49.29886" lon="-0.31096">
        <ele>6.6</ele>
        <time>2020-12-25T15:58:07Z</time>
      </trkpt>
      <trkpt lat="49.29887" lon="-0.31095">
        <ele>6.6</ele>
        <time>2020-12-25T15:58:08Z</time>
      </trkpt>
      <trkpt lat="49.2989" lon="-0.31093">
        <ele>6.6</ele>
        <time>2020-12-25T15:58:09Z</time>
      </trkpt>
      <trkpt lat="49.29891" lon="-0.31093">
        <ele>6.6</ele>
        <time>2020-12-25T15:58:10Z</time>
      </trkpt>
      <trkpt lat="49.29893" lon="-0.31091">
        <ele>6.7</ele>
        <time>2020-12-25T15:58:11Z</time>
      </trkpt>
      <trkpt lat="49.29895" lon="-0.3109">
        <ele>6.7</ele>
        <time>2020-12-25T15:58:13Z</time>
      </trkpt>
      <trkpt lat="49.29898" lon="-0.31087">
        <ele>6.7</ele>
        <time>2020-12-25T15:58:14Z</time>
      </trkpt>
      <trkpt lat="49.29899" lon="-0.31086">
        <ele>6.7</ele>
        <time>2020-12-25T15:58:15Z</time>
      </trkpt>
      <trkpt lat="49.29901" lon="-0.31084">
        <ele>6.7</ele>
        <time>2020-12-25T15:58:16Z</time>
      </trkpt>
      <trkpt lat="49.29903" lon="-0.31081">
        <ele>6.7</ele>
        <time>2020-12-25T15:58:18Z</time>
      </trkpt>
      <trkpt lat="49.29905" lon="-0.3108">
        <ele>6.7</ele>
        <time>2020-12-25T15:58:19Z</time>
      </trkpt>
      <trkpt lat="49.29907" lon="-0.31077">
        <ele>6.7</ele>
        <time>2020-12-25T15:58:21Z</time>
      </trkpt>
      <trkpt lat="49.29909" lon="-0.31074">
        <ele>6.7</ele>
        <time>2020-12-25T15:58:22Z</time>
      </trkpt>
      <trkpt lat="49.2991" lon="-0.31073">
        <ele>6.7</ele>
        <time>2020-12-25T15:58:24Z</time>
      </trkpt>
      <trkpt lat="49.29913" lon="-0.3107">
        <ele>6.8</ele>
        <time>2020-12-25T15:58:25Z</time>
      </trkpt>
      <trkpt lat="49.29915" lon="-0.31067">
        <ele>6.8</ele>
        <time>2020-12-25T15:58:27Z</time>
      </trkpt>
      <trkpt lat="49.29917" lon="-0.31065">
        <ele>6.8</ele>
        <time>2020-12-25T15:58:28Z</time>
      </trkpt>
      <trkpt lat="49.29918" lon="-0.31064">
        <ele>6.8</ele>
        <time>2020-12-25T15:58:29Z</time>
      </trkpt>
      <trkpt lat="49.2992" lon="-0.31061">
        <ele>6.7</ele>
        <time>2020-12-25T15:58:31Z</time>
      </trkpt>
      <trkpt lat="49.29921" lon="-0.31061">
        <ele>6.7</ele>
        <time>2020-12-25T15:58:32Z</time>
      </trkpt>
      <trkpt lat="49.29924" lon="-0.31057">
        <ele>6.7</ele>
        <time>2020-12-25T15:58:34Z</time>
      </trkpt>
      <trkpt lat="49.29924" lon="-0.31056">
        <ele>6.7</ele>
        <time>2020-12-25T15:58:35Z</time>
      </trkpt>
      <trkpt lat="49.29926" lon="-0.31054">
        <ele>6.7</ele>
        <time>2020-12-25T15:58:36Z</time>
      </trkpt>
      <trkpt lat="49.29927" lon="-0.31052">
        <ele>6.7</ele>
        <time>2020-12-25T15:58:38Z</time>
      </trkpt>
      <trkpt lat="49.29929" lon="-0.3105">
        <ele>6.7</ele>
        <time>2020-12-25T15:58:39Z</time>
      </trkpt>
      <trkpt lat="49.2993" lon="-0.31048">
        <ele>6.7</ele>
        <time>2020-12-25T15:58:40Z</time>
      </trkpt>
      <trkpt lat="49.29932" lon="-0.31046">
        <ele>6.7</ele>
        <time>2020-12-25T15:58:42Z</time>
      </trkpt>
      <trkpt lat="49.29934" lon="-0.31043">
        <ele>6.7</ele>
        <time>2020-12-25T15:58:44Z</time>
      </trkpt>
      <trkpt lat="49.29936" lon="-0.31041">
        <ele>6.6</ele>
        <time>2020-12-25T15:58:45Z</time>
      </trkpt>
      <trkpt lat="49.29937" lon="-0.3104">
        <ele>6.6</ele>
        <time>2020-12-25T15:58:46Z</time>
      </trkpt>
      <trkpt lat="49.29939" lon="-0.31036">
        <ele>6.6</ele>
        <time>2020-12-25T15:58:48Z</time>
      </trkpt>
      <trkpt lat="49.2994" lon="-0.31035">
        <ele>6.6</ele>
        <time>2020-12-25T15:58:49Z</time>
      </trkpt>
      <trkpt lat="49.29941" lon="-0.31034">
        <ele>6.6</ele>
        <time>2020-12-25T15:58:50Z</time>
      </trkpt>
      <trkpt lat="49.29943" lon="-0.31031">
        <ele>6.6</ele>
        <time>2020-12-25T15:58:52Z</time>
      </trkpt>
      <trkpt lat="49.29947" lon="-0.31028">
        <ele>6.5</ele>
        <time>2020-12-25T15:58:54Z</time>
      </trkpt>
      <trkpt lat="49.29948" lon="-0.31027">
        <ele>6.5</ele>
        <time>2020-12-25T15:58:55Z</time>
      </trkpt>
      <trkpt lat="49.2995" lon="-0.31024">
        <ele>6.5</ele>
        <time>2020-12-25T15:58:57Z</time>
      </trkpt>
      <trkpt lat="49.29953" lon="-0.31022">
        <ele>6.5</ele>
        <time>2020-12-25T15:58:58Z</time>
      </trkpt>
      <trkpt lat="49.29955" lon="-0.31018">
        <ele>6.5</ele>
        <time>2020-12-25T15:58:59Z</time>
      </trkpt>
      <trkpt lat="49.29958" lon="-0.31015">
        <ele>6.4</ele>
        <time>2020-12-25T15:59:01Z</time>
      </trkpt>
      <trkpt lat="49.29959" lon="-0.31014">
        <ele>6.4</ele>
        <time>2020-12-25T15:59:02Z</time>
      </trkpt>
      <trkpt lat="49.2996" lon="-0.31012">
        <ele>6.4</ele>
        <time>2020-12-25T15:59:03Z</time>
      </trkpt>
      <trkpt lat="49.29961" lon="-0.3101">
        <ele>6.4</ele>
        <time>2020-12-25T15:59:04Z</time>
      </trkpt>
      <trkpt lat="49.29963" lon="-0.31007">
        <ele>6.4</ele>
        <time>2020-12-25T15:59:05Z</time>
      </trkpt>
      <trkpt lat="49.29964" lon="-0.31005">
        <ele>6.4</ele>
        <time>2020-12-25T15:59:06Z</time>
      </trkpt>
      <trkpt lat="49.29966" lon="-0.31002">
        <ele>6.4</ele>
        <time>2020-12-25T15:59:08Z</time>
      </trkpt>
      <trkpt lat="49.29966" lon="-0.31001">
        <ele>6.4</ele>
        <time>2020-12-25T15:59:09Z</time>
      </trkpt>
      <trkpt lat="49.29967" lon="-0.31">
        <ele>6.4</ele>
        <time>2020-12-25T15:59:10Z</time>
      </trkpt>
      <trkpt lat="49.29969" lon="-0.30998">
        <ele>6.4</ele>
        <time>2020-12-25T15:59:11Z</time>
      </trkpt>
      <trkpt lat="49.2997" lon="-0.30996">
        <ele>6.5</ele>
        <time>2020-12-25T15:59:13Z</time>
      </trkpt>
      <trkpt lat="49.29971" lon="-0.30994">
        <ele>6.5</ele>
        <time>2020-12-25T15:59:14Z</time>
      </trkpt>
      <trkpt lat="49.29973" lon="-0.30991">
        <ele>6.5</ele>
        <time>2020-12-25T15:59:15Z</time>
      </trkpt>
      <trkpt lat="49.29974" lon="-0.3099">
        <ele>6.5</ele>
        <time>2020-12-25T15:59:16Z</time>
      </trkpt>
      <trkpt lat="49.29977" lon="-0.30986">
        <ele>6.5</ele>
        <time>2020-12-25T15:59:18Z</time>
      </trkpt>
      <trkpt lat="49.29978" lon="-0.30984">
        <ele>6.5</ele>
        <time>2020-12-25T15:59:19Z</time>
      </trkpt>
      <trkpt lat="49.29979" lon="-0.30983">
        <ele>6.5</ele>
        <time>2020-12-25T15:59:20Z</time>
      </trkpt>
      <trkpt lat="49.29981" lon="-0.3098">
        <ele>6.5</ele>
        <time>2020-12-25T15:59:22Z</time>
      </trkpt>
      <trkpt lat="49.29983" lon="-0.30978">
        <ele>6.5</ele>
        <time>2020-12-25T15:59:23Z</time>
      </trkpt>
      <trkpt lat="49.29984" lon="-0.30977">
        <ele>6.5</ele>
        <time>2020-12-25T15:59:25Z</time>
      </trkpt>
      <trkpt lat="49.29986" lon="-0.30975">
        <ele>6.5</ele>
        <time>2020-12-25T15:59:26Z</time>
      </trkpt>
      <trkpt lat="49.29987" lon="-0.30974">
        <ele>6.5</ele>
        <time>2020-12-25T15:59:28Z</time>
      </trkpt>
      <trkpt lat="49.29989" lon="-0.30972">
        <ele>6.6</ele>
        <time>2020-12-25T15:59:29Z</time>
      </trkpt>
      <trkpt lat="49.2999" lon="-0.30971">
        <ele>6.6</ele>
        <time>2020-12-25T15:59:30Z</time>
      </trkpt>
      <trkpt lat="49.29992" lon="-0.30968">
        <ele>6.6</ele>
        <time>2020-12-25T15:59:32Z</time>
      </trkpt>
      <trkpt lat="49.29993" lon="-0.30966">
        <ele>6.7</ele>
        <time>2020-12-25T15:59:33Z</time>
      </trkpt>
      <trkpt lat="49.29993" lon="-0.30963">
        <ele>6.7</ele>
        <time>2020-12-25T15:59:34Z</time>
      </trkpt>
      <trkpt lat="49.29994" lon="-0.30961">
        <ele>6.7</ele>
        <time>2020-12-25T15:59:35Z</time>
      </trkpt>
      <trkpt lat="49.29995" lon="-0.30956">
        <ele>6.7</ele>
        <time>2020-12-25T15:59:37Z</time>
      </trkpt>
      <trkpt lat="49.29996" lon="-0.30953">
        <ele>6.7</ele>
        <time>2020-12-25T15:59:38Z</time>
      </trkpt>
      <trkpt lat="49.29997" lon="-0.3095">
        <ele>6.7</ele>
        <time>2020-12-25T15:59:40Z</time>
      </trkpt>
      <trkpt lat="49.29999" lon="-0.30946">
        <ele>6.9</ele>
        <time>2020-12-25T15:59:41Z</time>
      </trkpt>
      <trkpt lat="49.29999" lon="-0.30945">
        <ele>6.9</ele>
        <time>2020-12-25T15:59:42Z</time>
      </trkpt>
      <trkpt lat="49.30001" lon="-0.30942">
        <ele>6.9</ele>
        <time>2020-12-25T15:59:43Z</time>
      </trkpt>
      <trkpt lat="49.30002" lon="-0.30941">
        <ele>6.9</ele>
        <time>2020-12-25T15:59:44Z</time>
      </trkpt>
      <trkpt lat="49.30004" lon="-0.3094">
        <ele>6.8</ele>
        <time>2020-12-25T15:59:45Z</time>
      </trkpt>
      <trkpt lat="49.30005" lon="-0.30941">
        <ele>6.8</ele>
        <time>2020-12-25T15:59:47Z</time>
      </trkpt>
      <trkpt lat="49.30006" lon="-0.30941">
        <ele>6.8</ele>
        <time>2020-12-25T15:59:48Z</time>
      </trkpt>
      <trkpt lat="49.30008" lon="-0.30942">
        <ele>6.7</ele>
        <time>2020-12-25T15:59:49Z</time>
      </trkpt>
      <trkpt lat="49.30009" lon="-0.30941">
        <ele>6.6</ele>
        <time>2020-12-25T15:59:51Z</time>
      </trkpt>
      <trkpt lat="49.3001" lon="-0.30941">
        <ele>6.6</ele>
        <time>2020-12-25T15:59:52Z</time>
      </trkpt>
      <trkpt lat="49.30011" lon="-0.3094">
        <ele>6.5</ele>
        <time>2020-12-25T15:59:53Z</time>
      </trkpt>
      <trkpt lat="49.30013" lon="-0.3094">
        <ele>6.5</ele>
        <time>2020-12-25T15:59:54Z</time>
      </trkpt>
      <trkpt lat="49.30015" lon="-0.30938">
        <ele>6.4</ele>
        <time>2020-12-25T15:59:56Z</time>
      </trkpt>
      <trkpt lat="49.30016" lon="-0.30937">
        <ele>6.3</ele>
        <time>2020-12-25T15:59:57Z</time>
      </trkpt>
      <trkpt lat="49.3002" lon="-0.30935">
        <ele>6.2</ele>
        <time>2020-12-25T15:59:59Z</time>
      </trkpt>
      <trkpt lat="49.30021" lon="-0.30934">
        <ele>6.1</ele>
        <time>2020-12-25T16:00:00Z</time>
      </trkpt>
      <trkpt lat="49.30022" lon="-0.30933">
        <ele>6.1</ele>
        <time>2020-12-25T16:00:01Z</time>
      </trkpt>
      <trkpt lat="49.30025" lon="-0.30931">
        <ele>6</ele>
        <time>2020-12-25T16:00:03Z</time>
      </trkpt>
      <trkpt lat="49.30027" lon="-0.3093">
        <ele>5.9</ele>
        <time>2020-12-25T16:00:04Z</time>
      </trkpt>
      <trkpt lat="49.3003" lon="-0.30928">
        <ele>5.8</ele>
        <time>2020-12-25T16:00:06Z</time>
      </trkpt>
      <trkpt lat="49.30033" lon="-0.30925">
        <ele>5.6</ele>
        <time>2020-12-25T16:00:08Z</time>
      </trkpt>
      <trkpt lat="49.30037" lon="-0.30922">
        <ele>5.5</ele>
        <time>2020-12-25T16:00:09Z</time>
      </trkpt>
      <trkpt lat="49.30037" lon="-0.30921">
        <ele>5.4</ele>
        <time>2020-12-25T16:00:10Z</time>
      </trkpt>
      <trkpt lat="49.30041" lon="-0.30918">
        <ele>5.2</ele>
        <time>2020-12-25T16:00:12Z</time>
      </trkpt>
      <trkpt lat="49.30043" lon="-0.30917">
        <ele>5.2</ele>
        <time>2020-12-25T16:00:13Z</time>
      </trkpt>
      <trkpt lat="49.30044" lon="-0.30916">
        <ele>5.1</ele>
        <time>2020-12-25T16:00:14Z</time>
      </trkpt>
      <trkpt lat="49.30048" lon="-0.30913">
        <ele>4.9</ele>
        <time>2020-12-25T16:00:16Z</time>
      </trkpt>
      <trkpt lat="49.30049" lon="-0.30912">
        <ele>4.8</ele>
        <time>2020-12-25T16:00:17Z</time>
      </trkpt>
      <trkpt lat="49.30052" lon="-0.30909">
        <ele>4.7</ele>
        <time>2020-12-25T16:00:18Z</time>
      </trkpt>
      <trkpt lat="49.30053" lon="-0.30908">
        <ele>4.4</ele>
        <time>2020-12-25T16:00:19Z</time>
      </trkpt>
      <trkpt lat="49.30057" lon="-0.30903">
        <ele>3.9</ele>
        <time>2020-12-25T16:00:21Z</time>
      </trkpt>
      <trkpt lat="49.3006" lon="-0.30899">
        <ele>3.5</ele>
        <time>2020-12-25T16:00:23Z</time>
      </trkpt>
      <trkpt lat="49.30061" lon="-0.30897">
        <ele>3.5</ele>
        <time>2020-12-25T16:00:24Z</time>
      </trkpt>
      <trkpt lat="49.30062" lon="-0.30896">
        <ele>3.4</ele>
        <time>2020-12-25T16:00:25Z</time>
      </trkpt>
      <trkpt lat="49.30065" lon="-0.30893">
        <ele>3.2</ele>
        <time>2020-12-25T16:00:27Z</time>
      </trkpt>
      <trkpt lat="49.30066" lon="-0.30892">
        <ele>3.2</ele>
        <time>2020-12-25T16:00:28Z</time>
      </trkpt>
      <trkpt lat="49.30068" lon="-0.30891">
        <ele>3.1</ele>
        <time>2020-12-25T16:00:29Z</time>
      </trkpt>
      <trkpt lat="49.30069" lon="-0.30889">
        <ele>3</ele>
        <time>2020-12-25T16:00:31Z</time>
      </trkpt>
      <trkpt lat="49.3007" lon="-0.30888">
        <ele>3</ele>
        <time>2020-12-25T16:00:32Z</time>
      </trkpt>
      <trkpt lat="49.30071" lon="-0.30887">
        <ele>3</ele>
        <time>2020-12-25T16:00:33Z</time>
      </trkpt>
      <trkpt lat="49.30073" lon="-0.30886">
        <ele>2.8</ele>
        <time>2020-12-25T16:00:35Z</time>
      </trkpt>
      <trkpt lat="49.30074" lon="-0.30885">
        <ele>2.9</ele>
        <time>2020-12-25T16:00:36Z</time>
      </trkpt>
      <trkpt lat="49.30076" lon="-0.30884">
        <ele>2.8</ele>
        <time>2020-12-25T16:00:37Z</time>
      </trkpt>
      <trkpt lat="49.30077" lon="-0.30884">
        <ele>2.8</ele>
        <time>2020-12-25T16:00:38Z</time>
      </trkpt>
      <trkpt lat="49.30079" lon="-0.30883">
        <ele>2.8</ele>
        <time>2020-12-25T16:00:40Z</time>
      </trkpt>
      <trkpt lat="49.30081" lon="-0.30883">
        <ele>2.8</ele>
        <time>2020-12-25T16:00:42Z</time>
      </trkpt>
      <trkpt lat="49.30083" lon="-0.30882">
        <ele>2.8</ele>
        <time>2020-12-25T16:00:43Z</time>
      </trkpt>
      <trkpt lat="49.30084" lon="-0.30881">
        <ele>2.6</ele>
        <time>2020-12-25T16:00:44Z</time>
      </trkpt>
      <trkpt lat="49.30087" lon="-0.3088">
        <ele>2.6</ele>
        <time>2020-12-25T16:00:46Z</time>
      </trkpt>
      <trkpt lat="49.30089" lon="-0.30879">
        <ele>2.6</ele>
        <time>2020-12-25T16:00:47Z</time>
      </trkpt>
      <trkpt lat="49.30092" lon="-0.30878">
        <ele>2.5</ele>
        <time>2020-12-25T16:00:49Z</time>
      </trkpt>
      <trkpt lat="49.30093" lon="-0.30878">
        <ele>2.4</ele>
        <time>2020-12-25T16:00:50Z</time>
      </trkpt>
      <trkpt lat="49.30095" lon="-0.30877">
        <ele>2.4</ele>
        <time>2020-12-25T16:00:51Z</time>
      </trkpt>
      <trkpt lat="49.30097" lon="-0.30878">
        <ele>2.3</ele>
        <time>2020-12-25T16:00:53Z</time>
      </trkpt>
      <trkpt lat="49.30099" lon="-0.30878">
        <ele>2.2</ele>
        <time>2020-12-25T16:00:54Z</time>
      </trkpt>
      <trkpt lat="49.30102" lon="-0.30877">
        <ele>2</ele>
        <time>2020-12-25T16:00:56Z</time>
      </trkpt>
      <trkpt lat="49.30105" lon="-0.30877">
        <ele>1.8</ele>
        <time>2020-12-25T16:00:57Z</time>
      </trkpt>
      <trkpt lat="49.30106" lon="-0.30878">
        <ele>1.9</ele>
        <time>2020-12-25T16:00:58Z</time>
      </trkpt>
      <trkpt lat="49.30109" lon="-0.30879">
        <ele>1.5</ele>
        <time>2020-12-25T16:01:00Z</time>
      </trkpt>
      <trkpt lat="49.3011" lon="-0.3088">
        <ele>1.5</ele>
        <time>2020-12-25T16:01:01Z</time>
      </trkpt>
      <trkpt lat="49.30112" lon="-0.30881">
        <ele>1.3</ele>
        <time>2020-12-25T16:01:02Z</time>
      </trkpt>
      <trkpt lat="49.30115" lon="-0.30882">
        <ele>1.2</ele>
        <time>2020-12-25T16:01:04Z</time>
      </trkpt>
      <trkpt lat="49.30118" lon="-0.30882">
        <ele>1</ele>
        <time>2020-12-25T16:01:06Z</time>
      </trkpt>
      <trkpt lat="49.30119" lon="-0.30882">
        <ele>1.2</ele>
        <time>2020-12-25T16:01:07Z</time>
      </trkpt>
      <trkpt lat="49.3012" lon="-0.30883">
        <ele>1.1</ele>
        <time>2020-12-25T16:01:08Z</time>
      </trkpt>
      <trkpt lat="49.30121" lon="-0.30884">
        <ele>1.1</ele>
        <time>2020-12-25T16:01:09Z</time>
      </trkpt>
      <trkpt lat="49.30123" lon="-0.30886">
        <ele>1.2</ele>
        <time>2020-12-25T16:01:11Z</time>
      </trkpt>
      <trkpt lat="49.30126" lon="-0.30889">
        <ele>1.1</ele>
        <time>2020-12-25T16:01:13Z</time>
      </trkpt>
      <trkpt lat="49.30127" lon="-0.3089">
        <ele>1.1</ele>
        <time>2020-12-25T16:01:14Z</time>
      </trkpt>
      <trkpt lat="49.30128" lon="-0.30893">
        <ele>1.4</ele>
        <time>2020-12-25T16:01:16Z</time>
      </trkpt>
      <trkpt lat="49.30129" lon="-0.30895">
        <ele>1.2</ele>
        <time>2020-12-25T16:01:18Z</time>
      </trkpt>
      <trkpt lat="49.3013" lon="-0.30895">
        <ele>1.5</ele>
        <time>2020-12-25T16:01:20Z</time>
      </trkpt>
      <trkpt lat="49.3013" lon="-0.30894">
        <ele>1.3</ele>
        <time>2020-12-25T16:01:21Z</time>
      </trkpt>
      <trkpt lat="49.3013" lon="-0.30893">
        <ele>1.3</ele>
        <time>2020-12-25T16:01:22Z</time>
      </trkpt>
      <trkpt lat="49.3013" lon="-0.30893">
        <ele>1.3</ele>
        <time>2020-12-25T16:01:23Z</time>
      </trkpt>
      <trkpt lat="49.3013" lon="-0.30893">
        <ele>1.3</ele>
        <time>2020-12-25T16:01:25Z</time>
      </trkpt>
      <trkpt lat="49.30131" lon="-0.30894">
        <ele>1.3</ele>
        <time>2020-12-25T16:01:26Z</time>
      </trkpt>
      <trkpt lat="49.30131" lon="-0.30894">
        <ele>1.2</ele>
        <time>2020-12-25T16:01:27Z</time>
      </trkpt>
      <trkpt lat="49.30132" lon="-0.30894">
        <ele>1.2</ele>
        <time>2020-12-25T16:01:29Z</time>
      </trkpt>
      <trkpt lat="49.30132" lon="-0.30894">
        <ele>1.2</ele>
        <time>2020-12-25T16:01:31Z</time>
      </trkpt>
      <trkpt lat="49.30132" lon="-0.30894">
        <ele>1.2</ele>
        <time>2020-12-25T16:01:33Z</time>
      </trkpt>
      <trkpt lat="49.30133" lon="-0.30893">
        <ele>1.2</ele>
        <time>2020-12-25T16:01:35Z</time>
      </trkpt>
      <trkpt lat="49.30133" lon="-0.30892">
        <ele>1.2</ele>
        <time>2020-12-25T16:01:37Z</time>
      </trkpt>
      <trkpt lat="49.30133" lon="-0.30893">
        <ele>1.2</ele>
        <time>2020-12-25T16:01:39Z</time>
      </trkpt>
      <trkpt lat="49.30133" lon="-0.30894">
        <ele>1.2</ele>
        <time>2020-12-25T16:01:41Z</time>
      </trkpt>
      <trkpt lat="49.30133" lon="-0.30896">
        <ele>1.4</ele>
        <time>2020-12-25T16:01:42Z</time>
      </trkpt>
      <trkpt lat="49.30134" lon="-0.30903">
        <ele>1.6</ele>
        <time>2020-12-25T16:01:44Z</time>
      </trkpt>
      <trkpt lat="49.30134" lon="-0.30906">
        <ele>1.6</ele>
        <time>2020-12-25T16:01:45Z</time>
      </trkpt>
      <trkpt lat="49.30135" lon="-0.3091">
        <ele>1.6</ele>
        <time>2020-12-25T16:01:47Z</time>
      </trkpt>
      <trkpt lat="49.30136" lon="-0.30912">
        <ele>1.7</ele>
        <time>2020-12-25T16:01:48Z</time>
      </trkpt>
      <trkpt lat="49.30137" lon="-0.30917">
        <ele>1.4</ele>
        <time>2020-12-25T16:01:50Z</time>
      </trkpt>
      <trkpt lat="49.30138" lon="-0.30919">
        <ele>1.4</ele>
        <time>2020-12-25T16:01:51Z</time>
      </trkpt>
      <trkpt lat="49.3014" lon="-0.30922">
        <ele>1.4</ele>
        <time>2020-12-25T16:01:53Z</time>
      </trkpt>
      <trkpt lat="49.30141" lon="-0.30927">
        <ele>1.3</ele>
        <time>2020-12-25T16:01:55Z</time>
      </trkpt>
      <trkpt lat="49.30142" lon="-0.30929">
        <ele>1.3</ele>
        <time>2020-12-25T16:01:56Z</time>
      </trkpt>
      <trkpt lat="49.30144" lon="-0.30932">
        <ele>1.1</ele>
        <time>2020-12-25T16:01:58Z</time>
      </trkpt>
      <trkpt lat="49.30145" lon="-0.30934">
        <ele>1.2</ele>
        <time>2020-12-25T16:01:59Z</time>
      </trkpt>
      <trkpt lat="49.30146" lon="-0.30937">
        <ele>1.1</ele>
        <time>2020-12-25T16:02:01Z</time>
      </trkpt>
      <trkpt lat="49.30146" lon="-0.30938">
        <ele>1.2</ele>
        <time>2020-12-25T16:02:02Z</time>
      </trkpt>
      <trkpt lat="49.30146" lon="-0.30939">
        <ele>1.2</ele>
        <time>2020-12-25T16:02:03Z</time>
      </trkpt>
      <trkpt lat="49.30147" lon="-0.30942">
        <ele>1.2</ele>
        <time>2020-12-25T16:02:05Z</time>
      </trkpt>
      <trkpt lat="49.30149" lon="-0.30947">
        <ele>1.4</ele>
        <time>2020-12-25T16:02:07Z</time>
      </trkpt>
      <trkpt lat="49.30151" lon="-0.30951">
        <ele>1.5</ele>
        <time>2020-12-25T16:02:09Z</time>
      </trkpt>
      <trkpt lat="49.30152" lon="-0.30953">
        <ele>1.5</ele>
        <time>2020-12-25T16:02:11Z</time>
      </trkpt>
      <trkpt lat="49.30153" lon="-0.30954">
        <ele>1.5</ele>
        <time>2020-12-25T16:02:12Z</time>
      </trkpt>
      <trkpt lat="49.30154" lon="-0.30957">
        <ele>1.5</ele>
        <time>2020-12-25T16:02:14Z</time>
      </trkpt>
      <trkpt lat="49.30156" lon="-0.30958">
        <ele>1.5</ele>
        <time>2020-12-25T16:02:16Z</time>
      </trkpt>
      <trkpt lat="49.30158" lon="-0.30958">
        <ele>1.4</ele>
        <time>2020-12-25T16:02:17Z</time>
      </trkpt>
      <trkpt lat="49.30159" lon="-0.30959">
        <ele>1.4</ele>
        <time>2020-12-25T16:02:18Z</time>
      </trkpt>
      <trkpt lat="49.30159" lon="-0.3096">
        <ele>1.4</ele>
        <time>2020-12-25T16:02:19Z</time>
      </trkpt>
      <trkpt lat="49.3016" lon="-0.30962">
        <ele>1.4</ele>
        <time>2020-12-25T16:02:20Z</time>
      </trkpt>
      <trkpt lat="49.30161" lon="-0.30964">
        <ele>1.5</ele>
        <time>2020-12-25T16:02:21Z</time>
      </trkpt>
      <trkpt lat="49.30161" lon="-0.30966">
        <ele>1.5</ele>
        <time>2020-12-25T16:02:22Z</time>
      </trkpt>
      <trkpt lat="49.30161" lon="-0.30968">
        <ele>1.5</ele>
        <time>2020-12-25T16:02:23Z</time>
      </trkpt>
      <trkpt lat="49.30161" lon="-0.30971">
        <ele>1.5</ele>
        <time>2020-12-25T16:02:25Z</time>
      </trkpt>
      <trkpt lat="49.30161" lon="-0.30973">
        <ele>1.5</ele>
        <time>2020-12-25T16:02:26Z</time>
      </trkpt>
      <trkpt lat="49.30161" lon="-0.30974">
        <ele>1.5</ele>
        <time>2020-12-25T16:02:27Z</time>
      </trkpt>
      <trkpt lat="49.30161" lon="-0.30976">
        <ele>1.5</ele>
        <time>2020-12-25T16:02:28Z</time>
      </trkpt>
      <trkpt lat="49.30162" lon="-0.30979">
        <ele>1.5</ele>
        <time>2020-12-25T16:02:30Z</time>
      </trkpt>
      <trkpt lat="49.30162" lon="-0.30981">
        <ele>1.5</ele>
        <time>2020-12-25T16:02:31Z</time>
      </trkpt>
      <trkpt lat="49.30163" lon="-0.30984">
        <ele>1.4</ele>
        <time>2020-12-25T16:02:33Z</time>
      </trkpt>
      <trkpt lat="49.30163" lon="-0.30987">
        <ele>1.4</ele>
        <time>2020-12-25T16:02:34Z</time>
      </trkpt>
      <trkpt lat="49.30164" lon="-0.30989">
        <ele>1.4</ele>
        <time>2020-12-25T16:02:35Z</time>
      </trkpt>
      <trkpt lat="49.30166" lon="-0.30993">
        <ele>1.3</ele>
        <time>2020-12-25T16:02:37Z</time>
      </trkpt>
      <trkpt lat="49.30167" lon="-0.30994">
        <ele>1.3</ele>
        <time>2020-12-25T16:02:38Z</time>
      </trkpt>
      <trkpt lat="49.30168" lon="-0.30996">
        <ele>1.1</ele>
        <time>2020-12-25T16:02:39Z</time>
      </trkpt>
      <trkpt lat="49.30169" lon="-0.30998">
        <ele>1.1</ele>
        <time>2020-12-25T16:02:40Z</time>
      </trkpt>
      <trkpt lat="49.30172" lon="-0.31001">
        <ele>1.1</ele>
        <time>2020-12-25T16:02:41Z</time>
      </trkpt>
      <trkpt lat="49.30172" lon="-0.31002">
        <ele>1.1</ele>
        <time>2020-12-25T16:02:42Z</time>
      </trkpt>
      <trkpt lat="49.30174" lon="-0.31004">
        <ele>1</ele>
        <time>2020-12-25T16:02:43Z</time>
      </trkpt>
      <trkpt lat="49.30177" lon="-0.31006">
        <ele>0.9</ele>
        <time>2020-12-25T16:02:45Z</time>
      </trkpt>
      <trkpt lat="49.3018" lon="-0.31009">
        <ele>0.9</ele>
        <time>2020-12-25T16:02:47Z</time>
      </trkpt>
      <trkpt lat="49.30181" lon="-0.31009">
        <ele>0.9</ele>
        <time>2020-12-25T16:02:48Z</time>
      </trkpt>
      <trkpt lat="49.30182" lon="-0.31011">
        <ele>0.9</ele>
        <time>2020-12-25T16:02:50Z</time>
      </trkpt>
      <trkpt lat="49.30183" lon="-0.31013">
        <ele>0.9</ele>
        <time>2020-12-25T16:02:51Z</time>
      </trkpt>
      <trkpt lat="49.30183" lon="-0.31015">
        <ele>0.9</ele>
        <time>2020-12-25T16:02:52Z</time>
      </trkpt>
      <trkpt lat="49.30184" lon="-0.31018">
        <ele>0.9</ele>
        <time>2020-12-25T16:02:53Z</time>
      </trkpt>
      <trkpt lat="49.30185" lon="-0.31021">
        <ele>0.9</ele>
        <time>2020-12-25T16:02:54Z</time>
      </trkpt>
      <trkpt lat="49.30185" lon="-0.31022">
        <ele>0.9</ele>
        <time>2020-12-25T16:02:56Z</time>
      </trkpt>
      <trkpt lat="49.30186" lon="-0.31024">
        <ele>0.9</ele>
        <time>2020-12-25T16:02:57Z</time>
      </trkpt>
      <trkpt lat="49.30187" lon="-0.31025">
        <ele>0.9</ele>
        <time>2020-12-25T16:02:58Z</time>
      </trkpt>
      <trkpt lat="49.30187" lon="-0.31027">
        <ele>0.9</ele>
        <time>2020-12-25T16:02:59Z</time>
      </trkpt>
      <trkpt lat="49.30188" lon="-0.31029">
        <ele>0.9</ele>
        <time>2020-12-25T16:03:00Z</time>
      </trkpt>
      <trkpt lat="49.30189" lon="-0.31032">
        <ele>1</ele>
        <time>2020-12-25T16:03:02Z</time>
      </trkpt>
      <trkpt lat="49.30189" lon="-0.31035">
        <ele>1</ele>
        <time>2020-12-25T16:03:03Z</time>
      </trkpt>
      <trkpt lat="49.3019" lon="-0.31038">
        <ele>1</ele>
        <time>2020-12-25T16:03:04Z</time>
      </trkpt>
      <trkpt lat="49.3019" lon="-0.31041">
        <ele>1</ele>
        <time>2020-12-25T16:03:05Z</time>
      </trkpt>
      <trkpt lat="49.30192" lon="-0.31046">
        <ele>1</ele>
        <time>2020-12-25T16:03:07Z</time>
      </trkpt>
      <trkpt lat="49.30192" lon="-0.31048">
        <ele>1</ele>
        <time>2020-12-25T16:03:08Z</time>
      </trkpt>
      <trkpt lat="49.30193" lon="-0.3105">
        <ele>1</ele>
        <time>2020-12-25T16:03:09Z</time>
      </trkpt>
      <trkpt lat="49.30193" lon="-0.31051">
        <ele>1</ele>
        <time>2020-12-25T16:03:10Z</time>
      </trkpt>
      <trkpt lat="49.30194" lon="-0.31053">
        <ele>1</ele>
        <time>2020-12-25T16:03:11Z</time>
      </trkpt>
      <trkpt lat="49.30196" lon="-0.31057">
        <ele>1</ele>
        <time>2020-12-25T16:03:12Z</time>
      </trkpt>
      <trkpt lat="49.30197" lon="-0.31059">
        <ele>1</ele>
        <time>2020-12-25T16:03:13Z</time>
      </trkpt>
      <trkpt lat="49.30198" lon="-0.31061">
        <ele>1</ele>
        <time>2020-12-25T16:03:14Z</time>
      </trkpt>
      <trkpt lat="49.30199" lon="-0.31065">
        <ele>1</ele>
        <time>2020-12-25T16:03:16Z</time>
      </trkpt>
      <trkpt lat="49.30201" lon="-0.31069">
        <ele>1</ele>
        <time>2020-12-25T16:03:17Z</time>
      </trkpt>
      <trkpt lat="49.30202" lon="-0.3107">
        <ele>1</ele>
        <time>2020-12-25T16:03:18Z</time>
      </trkpt>
      <trkpt lat="49.30203" lon="-0.31074">
        <ele>1</ele>
        <time>2020-12-25T16:03:19Z</time>
      </trkpt>
      <trkpt lat="49.30204" lon="-0.31075">
        <ele>1</ele>
        <time>2020-12-25T16:03:20Z</time>
      </trkpt>
      <trkpt lat="49.30204" lon="-0.31078">
        <ele>1.1</ele>
        <time>2020-12-25T16:03:21Z</time>
      </trkpt>
      <trkpt lat="49.30206" lon="-0.31082">
        <ele>1.1</ele>
        <time>2020-12-25T16:03:23Z</time>
      </trkpt>
      <trkpt lat="49.30207" lon="-0.31084">
        <ele>1.1</ele>
        <time>2020-12-25T16:03:24Z</time>
      </trkpt>
      <trkpt lat="49.30208" lon="-0.31086">
        <ele>1.1</ele>
        <time>2020-12-25T16:03:25Z</time>
      </trkpt>
      <trkpt lat="49.3021" lon="-0.31091">
        <ele>1.1</ele>
        <time>2020-12-25T16:03:27Z</time>
      </trkpt>
      <trkpt lat="49.3021" lon="-0.31092">
        <ele>1.1</ele>
        <time>2020-12-25T16:03:28Z</time>
      </trkpt>
      <trkpt lat="49.3021" lon="-0.3109">
        <ele>1.1</ele>
        <time>2020-12-25T16:03:30Z</time>
      </trkpt>
      <trkpt lat="49.30211" lon="-0.3109">
        <ele>1.1</ele>
        <time>2020-12-25T16:03:31Z</time>
      </trkpt>
      <trkpt lat="49.30211" lon="-0.31087">
        <ele>1.2</ele>
        <time>2020-12-25T16:03:33Z</time>
      </trkpt>
      <trkpt lat="49.30212" lon="-0.31087">
        <ele>1.2</ele>
        <time>2020-12-25T16:03:34Z</time>
      </trkpt>
      <trkpt lat="49.30213" lon="-0.31086">
        <ele>1.2</ele>
        <time>2020-12-25T16:03:35Z</time>
      </trkpt>
      <trkpt lat="49.30214" lon="-0.31086">
        <ele>1.2</ele>
        <time>2020-12-25T16:03:37Z</time>
      </trkpt>
      <trkpt lat="49.30214" lon="-0.31087">
        <ele>1.2</ele>
        <time>2020-12-25T16:03:39Z</time>
      </trkpt>
      <trkpt lat="49.30214" lon="-0.31087">
        <ele>1.2</ele>
        <time>2020-12-25T16:03:41Z</time>
      </trkpt>
      <trkpt lat="49.30214" lon="-0.31088">
        <ele>1.2</ele>
        <time>2020-12-25T16:03:42Z</time>
      </trkpt>
      <trkpt lat="49.30214" lon="-0.3109">
        <ele>1.2</ele>
        <time>2020-12-25T16:03:44Z</time>
      </trkpt>
      <trkpt lat="49.30215" lon="-0.31091">
        <ele>1.2</ele>
        <time>2020-12-25T16:03:45Z</time>
      </trkpt>
      <trkpt lat="49.30215" lon="-0.31092">
        <ele>1.2</ele>
        <time>2020-12-25T16:03:46Z</time>
      </trkpt>
      <trkpt lat="49.30215" lon="-0.31097">
        <ele>1.2</ele>
        <time>2020-12-25T16:03:48Z</time>
      </trkpt>
      <trkpt lat="49.30214" lon="-0.311">
        <ele>1.2</ele>
        <time>2020-12-25T16:03:50Z</time>
      </trkpt>
      <trkpt lat="49.30214" lon="-0.31101">
        <ele>1.2</ele>
        <time>2020-12-25T16:03:51Z</time>
      </trkpt>
      <trkpt lat="49.30215" lon="-0.31104">
        <ele>1.3</ele>
        <time>2020-12-25T16:03:53Z</time>
      </trkpt>
      <trkpt lat="49.30215" lon="-0.31105">
        <ele>1.3</ele>
        <time>2020-12-25T16:03:55Z</time>
      </trkpt>
      <trkpt lat="49.30215" lon="-0.31107">
        <ele>1.3</ele>
        <time>2020-12-25T16:03:56Z</time>
      </trkpt>
      <trkpt lat="49.30215" lon="-0.31111">
        <ele>1.3</ele>
        <time>2020-12-25T16:03:57Z</time>
      </trkpt>
      <trkpt lat="49.30215" lon="-0.31112">
        <ele>1.3</ele>
        <time>2020-12-25T16:03:58Z</time>
      </trkpt>
      <trkpt lat="49.30214" lon="-0.31113">
        <ele>1.3</ele>
        <time>2020-12-25T16:03:59Z</time>
      </trkpt>
      <trkpt lat="49.30214" lon="-0.31115">
        <ele>1.3</ele>
        <time>2020-12-25T16:04:01Z</time>
      </trkpt>
      <trkpt lat="49.30214" lon="-0.31117">
        <ele>1.3</ele>
        <time>2020-12-25T16:04:02Z</time>
      </trkpt>
      <trkpt lat="49.30214" lon="-0.31119">
        <ele>1.3</ele>
        <time>2020-12-25T16:04:03Z</time>
      </trkpt>
      <trkpt lat="49.30214" lon="-0.31121">
        <ele>1.3</ele>
        <time>2020-12-25T16:04:04Z</time>
      </trkpt>
      <trkpt lat="49.30213" lon="-0.31122">
        <ele>1.3</ele>
        <time>2020-12-25T16:04:05Z</time>
      </trkpt>
      <trkpt lat="49.30213" lon="-0.31123">
        <ele>1.3</ele>
        <time>2020-12-25T16:04:06Z</time>
      </trkpt>
      <trkpt lat="49.30214" lon="-0.31124">
        <ele>1.3</ele>
        <time>2020-12-25T16:04:07Z</time>
      </trkpt>
      <trkpt lat="49.30214" lon="-0.31126">
        <ele>1.3</ele>
        <time>2020-12-25T16:04:09Z</time>
      </trkpt>
      <trkpt lat="49.30214" lon="-0.31127">
        <ele>1.3</ele>
        <time>2020-12-25T16:04:10Z</time>
      </trkpt>
      <trkpt lat="49.30215" lon="-0.31129">
        <ele>1.3</ele>
        <time>2020-12-25T16:04:11Z</time>
      </trkpt>
      <trkpt lat="49.30215" lon="-0.31131">
        <ele>1.3</ele>
        <time>2020-12-25T16:04:12Z</time>
      </trkpt>
      <trkpt lat="49.30216" lon="-0.31133">
        <ele>1.4</ele>
        <time>2020-12-25T16:04:13Z</time>
      </trkpt>
      <trkpt lat="49.30216" lon="-0.31136">
        <ele>1.4</ele>
        <time>2020-12-25T16:04:14Z</time>
      </trkpt>
      <trkpt lat="49.30217" lon="-0.31138">
        <ele>1.4</ele>
        <time>2020-12-25T16:04:15Z</time>
      </trkpt>
      <trkpt lat="49.30217" lon="-0.3114">
        <ele>1.4</ele>
        <time>2020-12-25T16:04:16Z</time>
      </trkpt>
      <trkpt lat="49.30218" lon="-0.31142">
        <ele>1.4</ele>
        <time>2020-12-25T16:04:17Z</time>
      </trkpt>
      <trkpt lat="49.30219" lon="-0.31145">
        <ele>1.4</ele>
        <time>2020-12-25T16:04:19Z</time>
      </trkpt>
      <trkpt lat="49.3022" lon="-0.31146">
        <ele>1.4</ele>
        <time>2020-12-25T16:04:20Z</time>
      </trkpt>
      <trkpt lat="49.30221" lon="-0.3115">
        <ele>1.3</ele>
        <time>2020-12-25T16:04:22Z</time>
      </trkpt>
      <trkpt lat="49.30222" lon="-0.31152">
        <ele>1.3</ele>
        <time>2020-12-25T16:04:23Z</time>
      </trkpt>
      <trkpt lat="49.30223" lon="-0.31153">
        <ele>1.3</ele>
        <time>2020-12-25T16:04:24Z</time>
      </trkpt>
      <trkpt lat="49.30223" lon="-0.31154">
        <ele>1.3</ele>
        <time>2020-12-25T16:04:25Z</time>
      </trkpt>
      <trkpt lat="49.30224" lon="-0.31156">
        <ele>1.3</ele>
        <time>2020-12-25T16:04:26Z</time>
      </trkpt>
      <trkpt lat="49.30225" lon="-0.31158">
        <ele>1.3</ele>
        <time>2020-12-25T16:04:27Z</time>
      </trkpt>
      <trkpt lat="49.30226" lon="-0.31162">
        <ele>1.2</ele>
        <time>2020-12-25T16:04:29Z</time>
      </trkpt>
      <trkpt lat="49.30227" lon="-0.31162">
        <ele>1.3</ele>
        <time>2020-12-25T16:04:30Z</time>
      </trkpt>
      <trkpt lat="49.30228" lon="-0.31165">
        <ele>1.3</ele>
        <time>2020-12-25T16:04:32Z</time>
      </trkpt>
      <trkpt lat="49.30229" lon="-0.31166">
        <ele>1.3</ele>
        <time>2020-12-25T16:04:33Z</time>
      </trkpt>
      <trkpt lat="49.3023" lon="-0.31168">
        <ele>1.4</ele>
        <time>2020-12-25T16:04:34Z</time>
      </trkpt>
      <trkpt lat="49.30231" lon="-0.3117">
        <ele>1.4</ele>
        <time>2020-12-25T16:04:35Z</time>
      </trkpt>
      <trkpt lat="49.30232" lon="-0.31171">
        <ele>1.4</ele>
        <time>2020-12-25T16:04:36Z</time>
      </trkpt>
      <trkpt lat="49.30233" lon="-0.31174">
        <ele>1.4</ele>
        <time>2020-12-25T16:04:38Z</time>
      </trkpt>
      <trkpt lat="49.30234" lon="-0.31176">
        <ele>1.4</ele>
        <time>2020-12-25T16:04:39Z</time>
      </trkpt>
      <trkpt lat="49.30235" lon="-0.31178">
        <ele>1.4</ele>
        <time>2020-12-25T16:04:40Z</time>
      </trkpt>
      <trkpt lat="49.30235" lon="-0.3118">
        <ele>1.5</ele>
        <time>2020-12-25T16:04:41Z</time>
      </trkpt>
      <trkpt lat="49.30237" lon="-0.31184">
        <ele>1.5</ele>
        <time>2020-12-25T16:04:43Z</time>
      </trkpt>
      <trkpt lat="49.30237" lon="-0.31187">
        <ele>1.5</ele>
        <time>2020-12-25T16:04:44Z</time>
      </trkpt>
      <trkpt lat="49.30238" lon="-0.31189">
        <ele>1.6</ele>
        <time>2020-12-25T16:04:45Z</time>
      </trkpt>
      <trkpt lat="49.30239" lon="-0.31193">
        <ele>1.6</ele>
        <time>2020-12-25T16:04:47Z</time>
      </trkpt>
      <trkpt lat="49.3024" lon="-0.31194">
        <ele>1.6</ele>
        <time>2020-12-25T16:04:48Z</time>
      </trkpt>
      <trkpt lat="49.3024" lon="-0.31196">
        <ele>1.6</ele>
        <time>2020-12-25T16:04:49Z</time>
      </trkpt>
      <trkpt lat="49.30241" lon="-0.31198">
        <ele>1.5</ele>
        <time>2020-12-25T16:04:50Z</time>
      </trkpt>
      <trkpt lat="49.30241" lon="-0.312">
        <ele>1.5</ele>
        <time>2020-12-25T16:04:51Z</time>
      </trkpt>
      <trkpt lat="49.30243" lon="-0.31203">
        <ele>1.5</ele>
        <time>2020-12-25T16:04:53Z</time>
      </trkpt>
      <trkpt lat="49.30243" lon="-0.31205">
        <ele>1.5</ele>
        <time>2020-12-25T16:04:54Z</time>
      </trkpt>
      <trkpt lat="49.30244" lon="-0.31207">
        <ele>1.4</ele>
        <time>2020-12-25T16:04:55Z</time>
      </trkpt>
      <trkpt lat="49.30244" lon="-0.31209">
        <ele>1.4</ele>
        <time>2020-12-25T16:04:56Z</time>
      </trkpt>
      <trkpt lat="49.30245" lon="-0.31212">
        <ele>1.4</ele>
        <time>2020-12-25T16:04:58Z</time>
      </trkpt>
      <trkpt lat="49.30246" lon="-0.31214">
        <ele>1.4</ele>
        <time>2020-12-25T16:04:59Z</time>
      </trkpt>
      <trkpt lat="49.30246" lon="-0.31216">
        <ele>1.4</ele>
        <time>2020-12-25T16:05:00Z</time>
      </trkpt>
      <trkpt lat="49.30247" lon="-0.31218">
        <ele>1.3</ele>
        <time>2020-12-25T16:05:01Z</time>
      </trkpt>
      <trkpt lat="49.30248" lon="-0.3122">
        <ele>1.3</ele>
        <time>2020-12-25T16:05:02Z</time>
      </trkpt>
      <trkpt lat="49.30249" lon="-0.31224">
        <ele>1.3</ele>
        <time>2020-12-25T16:05:03Z</time>
      </trkpt>
      <trkpt lat="49.30249" lon="-0.31226">
        <ele>1.3</ele>
        <time>2020-12-25T16:05:05Z</time>
      </trkpt>
      <trkpt lat="49.30249" lon="-0.31228">
        <ele>1.4</ele>
        <time>2020-12-25T16:05:06Z</time>
      </trkpt>
      <trkpt lat="49.3025" lon="-0.3123">
        <ele>1.4</ele>
        <time>2020-12-25T16:05:07Z</time>
      </trkpt>
      <trkpt lat="49.3025" lon="-0.31232">
        <ele>1.4</ele>
        <time>2020-12-25T16:05:08Z</time>
      </trkpt>
      <trkpt lat="49.3025" lon="-0.31234">
        <ele>1.5</ele>
        <time>2020-12-25T16:05:10Z</time>
      </trkpt>
      <trkpt lat="49.30251" lon="-0.31238">
        <ele>1.5</ele>
        <time>2020-12-25T16:05:11Z</time>
      </trkpt>
      <trkpt lat="49.30251" lon="-0.3124">
        <ele>1.6</ele>
        <time>2020-12-25T16:05:12Z</time>
      </trkpt>
      <trkpt lat="49.30251" lon="-0.31241">
        <ele>1.6</ele>
        <time>2020-12-25T16:05:13Z</time>
      </trkpt>
      <trkpt lat="49.30251" lon="-0.31244">
        <ele>1.8</ele>
        <time>2020-12-25T16:05:14Z</time>
      </trkpt>
      <trkpt lat="49.30252" lon="-0.31246">
        <ele>1.7</ele>
        <time>2020-12-25T16:05:16Z</time>
      </trkpt>
      <trkpt lat="49.30252" lon="-0.31248">
        <ele>1.9</ele>
        <time>2020-12-25T16:05:17Z</time>
      </trkpt>
      <trkpt lat="49.30253" lon="-0.3125">
        <ele>1.9</ele>
        <time>2020-12-25T16:05:18Z</time>
      </trkpt>
      <trkpt lat="49.30253" lon="-0.31252">
        <ele>2</ele>
        <time>2020-12-25T16:05:19Z</time>
      </trkpt>
      <trkpt lat="49.30254" lon="-0.31254">
        <ele>2</ele>
        <time>2020-12-25T16:05:20Z</time>
      </trkpt>
      <trkpt lat="49.30255" lon="-0.31256">
        <ele>2</ele>
        <time>2020-12-25T16:05:21Z</time>
      </trkpt>
      <trkpt lat="49.30255" lon="-0.31258">
        <ele>2</ele>
        <time>2020-12-25T16:05:22Z</time>
      </trkpt>
      <trkpt lat="49.30257" lon="-0.31262">
        <ele>1.9</ele>
        <time>2020-12-25T16:05:24Z</time>
      </trkpt>
      <trkpt lat="49.30258" lon="-0.31263">
        <ele>1.9</ele>
        <time>2020-12-25T16:05:25Z</time>
      </trkpt>
      <trkpt lat="49.30258" lon="-0.31265">
        <ele>1.9</ele>
        <time>2020-12-25T16:05:26Z</time>
      </trkpt>
      <trkpt lat="49.30259" lon="-0.31267">
        <ele>2</ele>
        <time>2020-12-25T16:05:27Z</time>
      </trkpt>
      <trkpt lat="49.3026" lon="-0.31269">
        <ele>1.8</ele>
        <time>2020-12-25T16:05:28Z</time>
      </trkpt>
      <trkpt lat="49.30261" lon="-0.3127">
        <ele>1.8</ele>
        <time>2020-12-25T16:05:29Z</time>
      </trkpt>
      <trkpt lat="49.30262" lon="-0.31273">
        <ele>1.8</ele>
        <time>2020-12-25T16:05:30Z</time>
      </trkpt>
      <trkpt lat="49.30263" lon="-0.31274">
        <ele>1.8</ele>
        <time>2020-12-25T16:05:31Z</time>
      </trkpt>
      <trkpt lat="49.30263" lon="-0.31275">
        <ele>1.8</ele>
        <time>2020-12-25T16:05:32Z</time>
      </trkpt>
      <trkpt lat="49.30264" lon="-0.31277">
        <ele>1.7</ele>
        <time>2020-12-25T16:05:33Z</time>
      </trkpt>
      <trkpt lat="49.30264" lon="-0.31279">
        <ele>1.8</ele>
        <time>2020-12-25T16:05:35Z</time>
      </trkpt>
      <trkpt lat="49.30265" lon="-0.31281">
        <ele>1.8</ele>
        <time>2020-12-25T16:05:36Z</time>
      </trkpt>
      <trkpt lat="49.30266" lon="-0.31283">
        <ele>1.7</ele>
        <time>2020-12-25T16:05:37Z</time>
      </trkpt>
      <trkpt lat="49.30267" lon="-0.31286">
        <ele>1.7</ele>
        <time>2020-12-25T16:05:38Z</time>
      </trkpt>
      <trkpt lat="49.30267" lon="-0.31288">
        <ele>1.8</ele>
        <time>2020-12-25T16:05:39Z</time>
      </trkpt>
      <trkpt lat="49.30268" lon="-0.3129">
        <ele>1.8</ele>
        <time>2020-12-25T16:05:41Z</time>
      </trkpt>
      <trkpt lat="49.30268" lon="-0.31292">
        <ele>1.8</ele>
        <time>2020-12-25T16:05:42Z</time>
      </trkpt>
      <trkpt lat="49.30269" lon="-0.31293">
        <ele>1.8</ele>
        <time>2020-12-25T16:05:43Z</time>
      </trkpt>
      <trkpt lat="49.3027" lon="-0.31295">
        <ele>1.9</ele>
        <time>2020-12-25T16:05:44Z</time>
      </trkpt>
      <trkpt lat="49.30271" lon="-0.31296">
        <ele>1.9</ele>
        <time>2020-12-25T16:05:45Z</time>
      </trkpt>
      <trkpt lat="49.30271" lon="-0.31298">
        <ele>1.9</ele>
        <time>2020-12-25T16:05:46Z</time>
      </trkpt>
      <trkpt lat="49.30271" lon="-0.31301">
        <ele>2</ele>
        <time>2020-12-25T16:05:48Z</time>
      </trkpt>
      <trkpt lat="49.30272" lon="-0.31303">
        <ele>2.1</ele>
        <time>2020-12-25T16:05:49Z</time>
      </trkpt>
      <trkpt lat="49.30272" lon="-0.31305">
        <ele>2.2</ele>
        <time>2020-12-25T16:05:50Z</time>
      </trkpt>
      <trkpt lat="49.30273" lon="-0.31307">
        <ele>2.3</ele>
        <time>2020-12-25T16:05:51Z</time>
      </trkpt>
      <trkpt lat="49.30273" lon="-0.3131">
        <ele>2.3</ele>
        <time>2020-12-25T16:05:52Z</time>
      </trkpt>
      <trkpt lat="49.30273" lon="-0.31312">
        <ele>2.5</ele>
        <time>2020-12-25T16:05:53Z</time>
      </trkpt>
      <trkpt lat="49.30273" lon="-0.31314">
        <ele>2.5</ele>
        <time>2020-12-25T16:05:54Z</time>
      </trkpt>
      <trkpt lat="49.30274" lon="-0.31317">
        <ele>2.6</ele>
        <time>2020-12-25T16:05:55Z</time>
      </trkpt>
      <trkpt lat="49.30274" lon="-0.31319">
        <ele>2.5</ele>
        <time>2020-12-25T16:05:56Z</time>
      </trkpt>
      <trkpt lat="49.30274" lon="-0.3132">
        <ele>2.7</ele>
        <time>2020-12-25T16:05:57Z</time>
      </trkpt>
      <trkpt lat="49.30275" lon="-0.31322">
        <ele>2.7</ele>
        <time>2020-12-25T16:05:58Z</time>
      </trkpt>
      <trkpt lat="49.30275" lon="-0.31324">
        <ele>2.7</ele>
        <time>2020-12-25T16:05:59Z</time>
      </trkpt>
      <trkpt lat="49.30275" lon="-0.31326">
        <ele>2.8</ele>
        <time>2020-12-25T16:06:00Z</time>
      </trkpt>
      <trkpt lat="49.30276" lon="-0.31328">
        <ele>2.8</ele>
        <time>2020-12-25T16:06:01Z</time>
      </trkpt>
      <trkpt lat="49.30276" lon="-0.3133">
        <ele>2.9</ele>
        <time>2020-12-25T16:06:02Z</time>
      </trkpt>
      <trkpt lat="49.30277" lon="-0.31333">
        <ele>2.8</ele>
        <time>2020-12-25T16:06:04Z</time>
      </trkpt>
      <trkpt lat="49.30277" lon="-0.31335">
        <ele>2.8</ele>
        <time>2020-12-25T16:06:05Z</time>
      </trkpt>
      <trkpt lat="49.30278" lon="-0.31337">
        <ele>2.9</ele>
        <time>2020-12-25T16:06:06Z</time>
      </trkpt>
      <trkpt lat="49.30279" lon="-0.3134">
        <ele>2.9</ele>
        <time>2020-12-25T16:06:07Z</time>
      </trkpt>
      <trkpt lat="49.30279" lon="-0.31342">
        <ele>3</ele>
        <time>2020-12-25T16:06:08Z</time>
      </trkpt>
      <trkpt lat="49.3028" lon="-0.31343">
        <ele>2.8</ele>
        <time>2020-12-25T16:06:09Z</time>
      </trkpt>
      <trkpt lat="49.30281" lon="-0.31345">
        <ele>2.8</ele>
        <time>2020-12-25T16:06:10Z</time>
      </trkpt>
      <trkpt lat="49.30282" lon="-0.31347">
        <ele>2.8</ele>
        <time>2020-12-25T16:06:11Z</time>
      </trkpt>
      <trkpt lat="49.30283" lon="-0.31348">
        <ele>2.6</ele>
        <time>2020-12-25T16:06:12Z</time>
      </trkpt>
      <trkpt lat="49.30283" lon="-0.3135">
        <ele>2.6</ele>
        <time>2020-12-25T16:06:13Z</time>
      </trkpt>
      <trkpt lat="49.30284" lon="-0.31351">
        <ele>2.7</ele>
        <time>2020-12-25T16:06:14Z</time>
      </trkpt>
      <trkpt lat="49.30286" lon="-0.31354">
        <ele>2.4</ele>
        <time>2020-12-25T16:06:16Z</time>
      </trkpt>
      <trkpt lat="49.30288" lon="-0.31357">
        <ele>2.5</ele>
        <time>2020-12-25T16:06:18Z</time>
      </trkpt>
      <trkpt lat="49.30288" lon="-0.31358">
        <ele>2.3</ele>
        <time>2020-12-25T16:06:19Z</time>
      </trkpt>
      <trkpt lat="49.30289" lon="-0.31359">
        <ele>2.3</ele>
        <time>2020-12-25T16:06:20Z</time>
      </trkpt>
      <trkpt lat="49.30291" lon="-0.3136">
        <ele>2.3</ele>
        <time>2020-12-25T16:06:21Z</time>
      </trkpt>
      <trkpt lat="49.30292" lon="-0.31362">
        <ele>2.1</ele>
        <time>2020-12-25T16:06:22Z</time>
      </trkpt>
      <trkpt lat="49.30293" lon="-0.31364">
        <ele>2.1</ele>
        <time>2020-12-25T16:06:23Z</time>
      </trkpt>
      <trkpt lat="49.30294" lon="-0.31366">
        <ele>2</ele>
        <time>2020-12-25T16:06:25Z</time>
      </trkpt>
      <trkpt lat="49.30295" lon="-0.31368">
        <ele>2</ele>
        <time>2020-12-25T16:06:26Z</time>
      </trkpt>
      <trkpt lat="49.30296" lon="-0.3137">
        <ele>2</ele>
        <time>2020-12-25T16:06:27Z</time>
      </trkpt>
      <trkpt lat="49.30297" lon="-0.31372">
        <ele>1.9</ele>
        <time>2020-12-25T16:06:28Z</time>
      </trkpt>
      <trkpt lat="49.30298" lon="-0.31374">
        <ele>1.9</ele>
        <time>2020-12-25T16:06:29Z</time>
      </trkpt>
      <trkpt lat="49.30299" lon="-0.31375">
        <ele>1.9</ele>
        <time>2020-12-25T16:06:30Z</time>
      </trkpt>
      <trkpt lat="49.30299" lon="-0.31377">
        <ele>1.9</ele>
        <time>2020-12-25T16:06:31Z</time>
      </trkpt>
      <trkpt lat="49.303" lon="-0.3138">
        <ele>1.9</ele>
        <time>2020-12-25T16:06:32Z</time>
      </trkpt>
      <trkpt lat="49.30301" lon="-0.31382">
        <ele>1.9</ele>
        <time>2020-12-25T16:06:33Z</time>
      </trkpt>
      <trkpt lat="49.30302" lon="-0.31384">
        <ele>1.9</ele>
        <time>2020-12-25T16:06:34Z</time>
      </trkpt>
      <trkpt lat="49.30302" lon="-0.31386">
        <ele>1.9</ele>
        <time>2020-12-25T16:06:35Z</time>
      </trkpt>
      <trkpt lat="49.30303" lon="-0.31389">
        <ele>1.9</ele>
        <time>2020-12-25T16:06:37Z</time>
      </trkpt>
      <trkpt lat="49.30304" lon="-0.31391">
        <ele>1.9</ele>
        <time>2020-12-25T16:06:38Z</time>
      </trkpt>
      <trkpt lat="49.30305" lon="-0.31393">
        <ele>1.8</ele>
        <time>2020-12-25T16:06:39Z</time>
      </trkpt>
      <trkpt lat="49.30305" lon="-0.31395">
        <ele>1.9</ele>
        <time>2020-12-25T16:06:40Z</time>
      </trkpt>
      <trkpt lat="49.30306" lon="-0.31397">
        <ele>1.8</ele>
        <time>2020-12-25T16:06:41Z</time>
      </trkpt>
      <trkpt lat="49.30307" lon="-0.31399">
        <ele>1.8</ele>
        <time>2020-12-25T16:06:42Z</time>
      </trkpt>
      <trkpt lat="49.30308" lon="-0.31401">
        <ele>1.8</ele>
        <time>2020-12-25T16:06:43Z</time>
      </trkpt>
      <trkpt lat="49.3031" lon="-0.31404">
        <ele>1.8</ele>
        <time>2020-12-25T16:06:45Z</time>
      </trkpt>
      <trkpt lat="49.3031" lon="-0.31406">
        <ele>1.7</ele>
        <time>2020-12-25T16:06:46Z</time>
      </trkpt>
      <trkpt lat="49.30311" lon="-0.31407">
        <ele>1.8</ele>
        <time>2020-12-25T16:06:47Z</time>
      </trkpt>
      <trkpt lat="49.30312" lon="-0.31409">
        <ele>1.8</ele>
        <time>2020-12-25T16:06:48Z</time>
      </trkpt>
      <trkpt lat="49.30313" lon="-0.31411">
        <ele>1.9</ele>
        <time>2020-12-25T16:06:49Z</time>
      </trkpt>
      <trkpt lat="49.30314" lon="-0.31413">
        <ele>1.9</ele>
        <time>2020-12-25T16:06:50Z</time>
      </trkpt>
      <trkpt lat="49.30316" lon="-0.31417">
        <ele>2.1</ele>
        <time>2020-12-25T16:06:52Z</time>
      </trkpt>
      <trkpt lat="49.30317" lon="-0.31418">
        <ele>2.1</ele>
        <time>2020-12-25T16:06:53Z</time>
      </trkpt>
      <trkpt lat="49.30317" lon="-0.3142">
        <ele>2.1</ele>
        <time>2020-12-25T16:06:54Z</time>
      </trkpt>
      <trkpt lat="49.30318" lon="-0.31422">
        <ele>2.1</ele>
        <time>2020-12-25T16:06:55Z</time>
      </trkpt>
      <trkpt lat="49.30319" lon="-0.31425">
        <ele>2.3</ele>
        <time>2020-12-25T16:06:56Z</time>
      </trkpt>
      <trkpt lat="49.3032" lon="-0.31427">
        <ele>2.3</ele>
        <time>2020-12-25T16:06:57Z</time>
      </trkpt>
      <trkpt lat="49.3032" lon="-0.31429">
        <ele>2.4</ele>
        <time>2020-12-25T16:06:58Z</time>
      </trkpt>
      <trkpt lat="49.30321" lon="-0.31431">
        <ele>2.4</ele>
        <time>2020-12-25T16:06:59Z</time>
      </trkpt>
      <trkpt lat="49.30321" lon="-0.31433">
        <ele>2.4</ele>
        <time>2020-12-25T16:07:00Z</time>
      </trkpt>
      <trkpt lat="49.30322" lon="-0.31435">
        <ele>2.5</ele>
        <time>2020-12-25T16:07:01Z</time>
      </trkpt>
      <trkpt lat="49.30323" lon="-0.31437">
        <ele>2.4</ele>
        <time>2020-12-25T16:07:02Z</time>
      </trkpt>
      <trkpt lat="49.30324" lon="-0.31439">
        <ele>2.5</ele>
        <time>2020-12-25T16:07:04Z</time>
      </trkpt>
      <trkpt lat="49.30325" lon="-0.31442">
        <ele>2.4</ele>
        <time>2020-12-25T16:07:05Z</time>
      </trkpt>
      <trkpt lat="49.30326" lon="-0.31443">
        <ele>2.4</ele>
        <time>2020-12-25T16:07:06Z</time>
      </trkpt>
      <trkpt lat="49.30326" lon="-0.31445">
        <ele>2.3</ele>
        <time>2020-12-25T16:07:07Z</time>
      </trkpt>
      <trkpt lat="49.30327" lon="-0.31447">
        <ele>2.3</ele>
        <time>2020-12-25T16:07:08Z</time>
      </trkpt>
      <trkpt lat="49.30327" lon="-0.3145">
        <ele>2.2</ele>
        <time>2020-12-25T16:07:09Z</time>
      </trkpt>
      <trkpt lat="49.30328" lon="-0.31452">
        <ele>2.1</ele>
        <time>2020-12-25T16:07:10Z</time>
      </trkpt>
      <trkpt lat="49.30328" lon="-0.31453">
        <ele>2</ele>
        <time>2020-12-25T16:07:11Z</time>
      </trkpt>
      <trkpt lat="49.30329" lon="-0.31454">
        <ele>2</ele>
        <time>2020-12-25T16:07:12Z</time>
      </trkpt>
      <trkpt lat="49.30329" lon="-0.31456">
        <ele>2</ele>
        <time>2020-12-25T16:07:14Z</time>
      </trkpt>
      <trkpt lat="49.3033" lon="-0.31457">
        <ele>1.8</ele>
        <time>2020-12-25T16:07:15Z</time>
      </trkpt>
      <trkpt lat="49.3033" lon="-0.31458">
        <ele>1.8</ele>
        <time>2020-12-25T16:07:16Z</time>
      </trkpt>
      <trkpt lat="49.30331" lon="-0.3146">
        <ele>1.8</ele>
        <time>2020-12-25T16:07:17Z</time>
      </trkpt>
      <trkpt lat="49.30331" lon="-0.3146">
        <ele>1.8</ele>
        <time>2020-12-25T16:07:18Z</time>
      </trkpt>
      <trkpt lat="49.30332" lon="-0.31459">
        <ele>1.8</ele>
        <time>2020-12-25T16:07:19Z</time>
      </trkpt>
      <trkpt lat="49.30332" lon="-0.3146">
        <ele>1.8</ele>
        <time>2020-12-25T16:07:20Z</time>
      </trkpt>
      <trkpt lat="49.30331" lon="-0.31464">
        <ele>1.7</ele>
        <time>2020-12-25T16:07:21Z</time>
      </trkpt>
      <trkpt lat="49.30333" lon="-0.31467">
        <ele>1.5</ele>
        <time>2020-12-25T16:07:23Z</time>
      </trkpt>
      <trkpt lat="49.30334" lon="-0.31468">
        <ele>1.6</ele>
        <time>2020-12-25T16:07:24Z</time>
      </trkpt>
      <trkpt lat="49.30335" lon="-0.31473">
        <ele>1.6</ele>
        <time>2020-12-25T16:07:26Z</time>
      </trkpt>
      <trkpt lat="49.30336" lon="-0.31475">
        <ele>1.6</ele>
        <time>2020-12-25T16:07:27Z</time>
      </trkpt>
      <trkpt lat="49.30337" lon="-0.3148">
        <ele>1.8</ele>
        <time>2020-12-25T16:07:28Z</time>
      </trkpt>
      <trkpt lat="49.30337" lon="-0.31482">
        <ele>1.8</ele>
        <time>2020-12-25T16:07:29Z</time>
      </trkpt>
      <trkpt lat="49.30338" lon="-0.31486">
        <ele>2</ele>
        <time>2020-12-25T16:07:31Z</time>
      </trkpt>
      <trkpt lat="49.30339" lon="-0.31489">
        <ele>2.3</ele>
        <time>2020-12-25T16:07:32Z</time>
      </trkpt>
      <trkpt lat="49.3034" lon="-0.31491">
        <ele>2.3</ele>
        <time>2020-12-25T16:07:33Z</time>
      </trkpt>
      <trkpt lat="49.3034" lon="-0.31493">
        <ele>2.5</ele>
        <time>2020-12-25T16:07:34Z</time>
      </trkpt>
      <trkpt lat="49.3034" lon="-0.31495">
        <ele>2.5</ele>
        <time>2020-12-25T16:07:35Z</time>
      </trkpt>
      <trkpt lat="49.30341" lon="-0.31497">
        <ele>2.7</ele>
        <time>2020-12-25T16:07:36Z</time>
      </trkpt>
      <trkpt lat="49.30342" lon="-0.31499">
        <ele>2.7</ele>
        <time>2020-12-25T16:07:37Z</time>
      </trkpt>
      <trkpt lat="49.30342" lon="-0.31501">
        <ele>2.9</ele>
        <time>2020-12-25T16:07:38Z</time>
      </trkpt>
      <trkpt lat="49.30344" lon="-0.31506">
        <ele>3</ele>
        <time>2020-12-25T16:07:40Z</time>
      </trkpt>
      <trkpt lat="49.30345" lon="-0.3151">
        <ele>2.9</ele>
        <time>2020-12-25T16:07:41Z</time>
      </trkpt>
      <trkpt lat="49.30345" lon="-0.31511">
        <ele>2.9</ele>
        <time>2020-12-25T16:07:42Z</time>
      </trkpt>
      <trkpt lat="49.30347" lon="-0.31514">
        <ele>2.6</ele>
        <time>2020-12-25T16:07:43Z</time>
      </trkpt>
      <trkpt lat="49.30348" lon="-0.31516">
        <ele>2.6</ele>
        <time>2020-12-25T16:07:44Z</time>
      </trkpt>
      <trkpt lat="49.30349" lon="-0.31518">
        <ele>2.5</ele>
        <time>2020-12-25T16:07:45Z</time>
      </trkpt>
      <trkpt lat="49.30349" lon="-0.31522">
        <ele>2.4</ele>
        <time>2020-12-25T16:07:47Z</time>
      </trkpt>
      <trkpt lat="49.3035" lon="-0.31524">
        <ele>2.2</ele>
        <time>2020-12-25T16:07:48Z</time>
      </trkpt>
      <trkpt lat="49.3035" lon="-0.31526">
        <ele>2.1</ele>
        <time>2020-12-25T16:07:49Z</time>
      </trkpt>
      <trkpt lat="49.30351" lon="-0.31528">
        <ele>2.1</ele>
        <time>2020-12-25T16:07:50Z</time>
      </trkpt>
      <trkpt lat="49.30352" lon="-0.3153">
        <ele>2.1</ele>
        <time>2020-12-25T16:07:51Z</time>
      </trkpt>
      <trkpt lat="49.30353" lon="-0.31535">
        <ele>2.1</ele>
        <time>2020-12-25T16:07:52Z</time>
      </trkpt>
      <trkpt lat="49.30353" lon="-0.31536">
        <ele>2.1</ele>
        <time>2020-12-25T16:07:53Z</time>
      </trkpt>
      <trkpt lat="49.30354" lon="-0.31539">
        <ele>2.2</ele>
        <time>2020-12-25T16:07:55Z</time>
      </trkpt>
      <trkpt lat="49.30354" lon="-0.31541">
        <ele>2.2</ele>
        <time>2020-12-25T16:07:56Z</time>
      </trkpt>
      <trkpt lat="49.30355" lon="-0.31544">
        <ele>2.5</ele>
        <time>2020-12-25T16:07:57Z</time>
      </trkpt>
      <trkpt lat="49.30356" lon="-0.31546">
        <ele>2.4</ele>
        <time>2020-12-25T16:07:58Z</time>
      </trkpt>
      <trkpt lat="49.30357" lon="-0.31548">
        <ele>2.8</ele>
        <time>2020-12-25T16:07:59Z</time>
      </trkpt>
      <trkpt lat="49.30357" lon="-0.3155">
        <ele>2.8</ele>
        <time>2020-12-25T16:08:00Z</time>
      </trkpt>
      <trkpt lat="49.30358" lon="-0.31553">
        <ele>3</ele>
        <time>2020-12-25T16:08:02Z</time>
      </trkpt>
      <trkpt lat="49.30359" lon="-0.31555">
        <ele>3</ele>
        <time>2020-12-25T16:08:03Z</time>
      </trkpt>
      <trkpt lat="49.30359" lon="-0.31557">
        <ele>3.4</ele>
        <time>2020-12-25T16:08:04Z</time>
      </trkpt>
      <trkpt lat="49.3036" lon="-0.31559">
        <ele>3.4</ele>
        <time>2020-12-25T16:08:05Z</time>
      </trkpt>
      <trkpt lat="49.30361" lon="-0.31561">
        <ele>3.7</ele>
        <time>2020-12-25T16:08:06Z</time>
      </trkpt>
      <trkpt lat="49.30361" lon="-0.31563">
        <ele>3.5</ele>
        <time>2020-12-25T16:08:07Z</time>
      </trkpt>
      <trkpt lat="49.30362" lon="-0.31564">
        <ele>3.8</ele>
        <time>2020-12-25T16:08:08Z</time>
      </trkpt>
      <trkpt lat="49.30362" lon="-0.31566">
        <ele>3.8</ele>
        <time>2020-12-25T16:08:09Z</time>
      </trkpt>
      <trkpt lat="49.30363" lon="-0.3157">
        <ele>3.9</ele>
        <time>2020-12-25T16:08:11Z</time>
      </trkpt>
      <trkpt lat="49.30364" lon="-0.31572">
        <ele>3.5</ele>
        <time>2020-12-25T16:08:12Z</time>
      </trkpt>
      <trkpt lat="49.30365" lon="-0.31574">
        <ele>3.6</ele>
        <time>2020-12-25T16:08:13Z</time>
      </trkpt>
      <trkpt lat="49.30365" lon="-0.31576">
        <ele>3.6</ele>
        <time>2020-12-25T16:08:14Z</time>
      </trkpt>
      <trkpt lat="49.30366" lon="-0.31578">
        <ele>3.6</ele>
        <time>2020-12-25T16:08:15Z</time>
      </trkpt>
      <trkpt lat="49.30367" lon="-0.3158">
        <ele>3.3</ele>
        <time>2020-12-25T16:08:16Z</time>
      </trkpt>
      <trkpt lat="49.30368" lon="-0.31583">
        <ele>3.3</ele>
        <time>2020-12-25T16:08:18Z</time>
      </trkpt>
      <trkpt lat="49.30369" lon="-0.31585">
        <ele>3.3</ele>
        <time>2020-12-25T16:08:19Z</time>
      </trkpt>
      <trkpt lat="49.3037" lon="-0.31587">
        <ele>3.1</ele>
        <time>2020-12-25T16:08:20Z</time>
      </trkpt>
      <trkpt lat="49.3037" lon="-0.31589">
        <ele>3.1</ele>
        <time>2020-12-25T16:08:21Z</time>
      </trkpt>
      <trkpt lat="49.30371" lon="-0.31592">
        <ele>3.1</ele>
        <time>2020-12-25T16:08:22Z</time>
      </trkpt>
      <trkpt lat="49.30371" lon="-0.31594">
        <ele>3.1</ele>
        <time>2020-12-25T16:08:24Z</time>
      </trkpt>
      <trkpt lat="49.3037" lon="-0.31593">
        <ele>3.1</ele>
        <time>2020-12-25T16:08:25Z</time>
      </trkpt>
      <trkpt lat="49.30367" lon="-0.3159">
        <ele>3.3</ele>
        <time>2020-12-25T16:08:27Z</time>
      </trkpt>
      <trkpt lat="49.30367" lon="-0.3159">
        <ele>3.3</ele>
        <time>2020-12-25T16:08:28Z</time>
      </trkpt>
      <trkpt lat="49.30367" lon="-0.3159">
        <ele>3.3</ele>
        <time>2020-12-25T16:08:29Z</time>
      </trkpt>
      <trkpt lat="49.30368" lon="-0.3159">
        <ele>3.3</ele>
        <time>2020-12-25T16:08:30Z</time>
      </trkpt>
      <trkpt lat="49.30368" lon="-0.3159">
        <ele>3.3</ele>
        <time>2020-12-25T16:08:32Z</time>
      </trkpt>
      <trkpt lat="49.30368" lon="-0.3159">
        <ele>3.4</ele>
        <time>2020-12-25T16:08:34Z</time>
      </trkpt>
      <trkpt lat="49.30368" lon="-0.3159">
        <ele>3.4</ele>
        <time>2020-12-25T16:08:35Z</time>
      </trkpt>
      <trkpt lat="49.30369" lon="-0.3159">
        <ele>3.4</ele>
        <time>2020-12-25T16:08:37Z</time>
      </trkpt>
      <trkpt lat="49.30369" lon="-0.3159">
        <ele>3.4</ele>
        <time>2020-12-25T16:08:38Z</time>
      </trkpt>
      <trkpt lat="49.30369" lon="-0.31591">
        <ele>3.4</ele>
        <time>2020-12-25T16:08:39Z</time>
      </trkpt>
      <trkpt lat="49.30369" lon="-0.31592">
        <ele>3.4</ele>
        <time>2020-12-25T16:08:40Z</time>
      </trkpt>
      <trkpt lat="49.30369" lon="-0.31593">
        <ele>3.4</ele>
        <time>2020-12-25T16:08:41Z</time>
      </trkpt>
      <trkpt lat="49.30369" lon="-0.31594">
        <ele>3.4</ele>
        <time>2020-12-25T16:08:42Z</time>
      </trkpt>
      <trkpt lat="49.30369" lon="-0.31596">
        <ele>3.4</ele>
        <time>2020-12-25T16:08:43Z</time>
      </trkpt>
      <trkpt lat="49.30368" lon="-0.31598">
        <ele>3.4</ele>
        <time>2020-12-25T16:08:45Z</time>
      </trkpt>
      <trkpt lat="49.30368" lon="-0.31599">
        <ele>3.4</ele>
        <time>2020-12-25T16:08:46Z</time>
      </trkpt>
      <trkpt lat="49.30369" lon="-0.31601">
        <ele>3.2</ele>
        <time>2020-12-25T16:08:47Z</time>
      </trkpt>
      <trkpt lat="49.30371" lon="-0.31604">
        <ele>3.2</ele>
        <time>2020-12-25T16:08:48Z</time>
      </trkpt>
      <trkpt lat="49.30371" lon="-0.31605">
        <ele>3.2</ele>
        <time>2020-12-25T16:08:50Z</time>
      </trkpt>
      <trkpt lat="49.30371" lon="-0.31606">
        <ele>3.3</ele>
        <time>2020-12-25T16:08:51Z</time>
      </trkpt>
      <trkpt lat="49.30374" lon="-0.31609">
        <ele>3.1</ele>
        <time>2020-12-25T16:08:52Z</time>
      </trkpt>
      <trkpt lat="49.30376" lon="-0.31612">
        <ele>3</ele>
        <time>2020-12-25T16:08:53Z</time>
      </trkpt>
      <trkpt lat="49.30379" lon="-0.31616">
        <ele>2.9</ele>
        <time>2020-12-25T16:08:54Z</time>
      </trkpt>
      <trkpt lat="49.30381" lon="-0.3162">
        <ele>2.9</ele>
        <time>2020-12-25T16:08:55Z</time>
      </trkpt>
      <trkpt lat="49.30382" lon="-0.31621">
        <ele>2.9</ele>
        <time>2020-12-25T16:08:56Z</time>
      </trkpt>
      <trkpt lat="49.30385" lon="-0.31626">
        <ele>2.8</ele>
        <time>2020-12-25T16:08:58Z</time>
      </trkpt>
      <trkpt lat="49.30386" lon="-0.3163">
        <ele>2.8</ele>
        <time>2020-12-25T16:08:59Z</time>
      </trkpt>
      <trkpt lat="49.30387" lon="-0.31632">
        <ele>2.8</ele>
        <time>2020-12-25T16:09:00Z</time>
      </trkpt>
      <trkpt lat="49.30389" lon="-0.31636">
        <ele>2.8</ele>
        <time>2020-12-25T16:09:01Z</time>
      </trkpt>
      <trkpt lat="49.30389" lon="-0.31637">
        <ele>2.8</ele>
        <time>2020-12-25T16:09:02Z</time>
      </trkpt>
      <trkpt lat="49.30391" lon="-0.31641">
        <ele>2.8</ele>
        <time>2020-12-25T16:09:03Z</time>
      </trkpt>
      <trkpt lat="49.30392" lon="-0.31642">
        <ele>2.8</ele>
        <time>2020-12-25T16:09:04Z</time>
      </trkpt>
      <trkpt lat="49.30394" lon="-0.31648">
        <ele>2.9</ele>
        <time>2020-12-25T16:09:06Z</time>
      </trkpt>
      <trkpt lat="49.30395" lon="-0.3165">
        <ele>3</ele>
        <time>2020-12-25T16:09:07Z</time>
      </trkpt>
      <trkpt lat="49.30396" lon="-0.31652">
        <ele>3</ele>
        <time>2020-12-25T16:09:08Z</time>
      </trkpt>
      <trkpt lat="49.30398" lon="-0.31656">
        <ele>3.1</ele>
        <time>2020-12-25T16:09:09Z</time>
      </trkpt>
      <trkpt lat="49.30398" lon="-0.31658">
        <ele>3.1</ele>
        <time>2020-12-25T16:09:10Z</time>
      </trkpt>
      <trkpt lat="49.30399" lon="-0.31662">
        <ele>3.2</ele>
        <time>2020-12-25T16:09:12Z</time>
      </trkpt>
      <trkpt lat="49.304" lon="-0.31664">
        <ele>3.2</ele>
        <time>2020-12-25T16:09:13Z</time>
      </trkpt>
      <trkpt lat="49.304" lon="-0.31666">
        <ele>3.2</ele>
        <time>2020-12-25T16:09:14Z</time>
      </trkpt>
      <trkpt lat="49.30401" lon="-0.31668">
        <ele>3.2</ele>
        <time>2020-12-25T16:09:15Z</time>
      </trkpt>
      <trkpt lat="49.30401" lon="-0.3167">
        <ele>3.3</ele>
        <time>2020-12-25T16:09:16Z</time>
      </trkpt>
      <trkpt lat="49.30402" lon="-0.31673">
        <ele>3.3</ele>
        <time>2020-12-25T16:09:18Z</time>
      </trkpt>
      <trkpt lat="49.30402" lon="-0.31675">
        <ele>3.3</ele>
        <time>2020-12-25T16:09:19Z</time>
      </trkpt>
      <trkpt lat="49.30402" lon="-0.31677">
        <ele>3.3</ele>
        <time>2020-12-25T16:09:20Z</time>
      </trkpt>
      <trkpt lat="49.30403" lon="-0.31679">
        <ele>3.3</ele>
        <time>2020-12-25T16:09:21Z</time>
      </trkpt>
      <trkpt lat="49.30403" lon="-0.31682">
        <ele>3.1</ele>
        <time>2020-12-25T16:09:23Z</time>
      </trkpt>
      <trkpt lat="49.30404" lon="-0.31685">
        <ele>3.1</ele>
        <time>2020-12-25T16:09:24Z</time>
      </trkpt>
      <trkpt lat="49.30404" lon="-0.31687">
        <ele>3.1</ele>
        <time>2020-12-25T16:09:25Z</time>
      </trkpt>
      <trkpt lat="49.30405" lon="-0.3169">
        <ele>3</ele>
        <time>2020-12-25T16:09:26Z</time>
      </trkpt>
      <trkpt lat="49.30405" lon="-0.31691">
        <ele>3</ele>
        <time>2020-12-25T16:09:28Z</time>
      </trkpt>
      <trkpt lat="49.30406" lon="-0.31693">
        <ele>2.9</ele>
        <time>2020-12-25T16:09:29Z</time>
      </trkpt>
      <trkpt lat="49.30407" lon="-0.31695">
        <ele>2.8</ele>
        <time>2020-12-25T16:09:30Z</time>
      </trkpt>
      <trkpt lat="49.30408" lon="-0.31696">
        <ele>2.9</ele>
        <time>2020-12-25T16:09:31Z</time>
      </trkpt>
      <trkpt lat="49.3041" lon="-0.31699">
        <ele>2.8</ele>
        <time>2020-12-25T16:09:32Z</time>
      </trkpt>
      <trkpt lat="49.3041" lon="-0.31701">
        <ele>2.8</ele>
        <time>2020-12-25T16:09:33Z</time>
      </trkpt>
      <trkpt lat="49.30411" lon="-0.31702">
        <ele>2.8</ele>
        <time>2020-12-25T16:09:34Z</time>
      </trkpt>
      <trkpt lat="49.30412" lon="-0.31704">
        <ele>2.8</ele>
        <time>2020-12-25T16:09:35Z</time>
      </trkpt>
      <trkpt lat="49.30413" lon="-0.31707">
        <ele>2.9</ele>
        <time>2020-12-25T16:09:36Z</time>
      </trkpt>
      <trkpt lat="49.30414" lon="-0.31709">
        <ele>3</ele>
        <time>2020-12-25T16:09:38Z</time>
      </trkpt>
      <trkpt lat="49.30415" lon="-0.31713">
        <ele>3.1</ele>
        <time>2020-12-25T16:09:39Z</time>
      </trkpt>
      <trkpt lat="49.30416" lon="-0.31714">
        <ele>3.1</ele>
        <time>2020-12-25T16:09:40Z</time>
      </trkpt>
      <trkpt lat="49.30417" lon="-0.31717">
        <ele>3.3</ele>
        <time>2020-12-25T16:09:41Z</time>
      </trkpt>
      <trkpt lat="49.30417" lon="-0.31719">
        <ele>3.3</ele>
        <time>2020-12-25T16:09:42Z</time>
      </trkpt>
      <trkpt lat="49.30416" lon="-0.3172">
        <ele>3.6</ele>
        <time>2020-12-25T16:09:43Z</time>
      </trkpt>
      <trkpt lat="49.30417" lon="-0.31722">
        <ele>3.7</ele>
        <time>2020-12-25T16:09:44Z</time>
      </trkpt>
      <trkpt lat="49.30417" lon="-0.31725">
        <ele>3.9</ele>
        <time>2020-12-25T16:09:46Z</time>
      </trkpt>
      <trkpt lat="49.30418" lon="-0.31727">
        <ele>3.9</ele>
        <time>2020-12-25T16:09:47Z</time>
      </trkpt>
      <trkpt lat="49.30419" lon="-0.31729">
        <ele>4.1</ele>
        <time>2020-12-25T16:09:48Z</time>
      </trkpt>
      <trkpt lat="49.30419" lon="-0.31733">
        <ele>4.2</ele>
        <time>2020-12-25T16:09:50Z</time>
      </trkpt>
      <trkpt lat="49.30419" lon="-0.31735">
        <ele>4.2</ele>
        <time>2020-12-25T16:09:51Z</time>
      </trkpt>
      <trkpt lat="49.3042" lon="-0.31736">
        <ele>4.1</ele>
        <time>2020-12-25T16:09:52Z</time>
      </trkpt>
      <trkpt lat="49.30421" lon="-0.31738">
        <ele>4.1</ele>
        <time>2020-12-25T16:09:53Z</time>
      </trkpt>
      <trkpt lat="49.30421" lon="-0.3174">
        <ele>4.1</ele>
        <time>2020-12-25T16:09:54Z</time>
      </trkpt>
      <trkpt lat="49.30422" lon="-0.31742">
        <ele>4.1</ele>
        <time>2020-12-25T16:09:55Z</time>
      </trkpt>
      <trkpt lat="49.30424" lon="-0.31744">
        <ele>3.8</ele>
        <time>2020-12-25T16:09:56Z</time>
      </trkpt>
      <trkpt lat="49.30424" lon="-0.31745">
        <ele>3.7</ele>
        <time>2020-12-25T16:09:57Z</time>
      </trkpt>
      <trkpt lat="49.30425" lon="-0.31746">
        <ele>3.7</ele>
        <time>2020-12-25T16:09:58Z</time>
      </trkpt>
      <trkpt lat="49.30426" lon="-0.31747">
        <ele>3.5</ele>
        <time>2020-12-25T16:09:59Z</time>
      </trkpt>
      <trkpt lat="49.30427" lon="-0.31749">
        <ele>3.5</ele>
        <time>2020-12-25T16:10:00Z</time>
      </trkpt>
      <trkpt lat="49.30428" lon="-0.3175">
        <ele>3.4</ele>
        <time>2020-12-25T16:10:01Z</time>
      </trkpt>
      <trkpt lat="49.30429" lon="-0.31752">
        <ele>3.2</ele>
        <time>2020-12-25T16:10:03Z</time>
      </trkpt>
      <trkpt lat="49.3043" lon="-0.31753">
        <ele>3.2</ele>
        <time>2020-12-25T16:10:04Z</time>
      </trkpt>
      <trkpt lat="49.30432" lon="-0.31754">
        <ele>3</ele>
        <time>2020-12-25T16:10:05Z</time>
      </trkpt>
      <trkpt lat="49.30433" lon="-0.31756">
        <ele>3.1</ele>
        <time>2020-12-25T16:10:06Z</time>
      </trkpt>
      <trkpt lat="49.30434" lon="-0.31757">
        <ele>3</ele>
        <time>2020-12-25T16:10:07Z</time>
      </trkpt>
      <trkpt lat="49.30436" lon="-0.31758">
        <ele>3</ele>
        <time>2020-12-25T16:10:08Z</time>
      </trkpt>
      <trkpt lat="49.30437" lon="-0.3176">
        <ele>3</ele>
        <time>2020-12-25T16:10:10Z</time>
      </trkpt>
      <trkpt lat="49.30438" lon="-0.31762">
        <ele>3.2</ele>
        <time>2020-12-25T16:10:11Z</time>
      </trkpt>
      <trkpt lat="49.30439" lon="-0.31764">
        <ele>3.2</ele>
        <time>2020-12-25T16:10:12Z</time>
      </trkpt>
      <trkpt lat="49.3044" lon="-0.31766">
        <ele>3.2</ele>
        <time>2020-12-25T16:10:13Z</time>
      </trkpt>
      <trkpt lat="49.30441" lon="-0.31767">
        <ele>3.5</ele>
        <time>2020-12-25T16:10:14Z</time>
      </trkpt>
      <trkpt lat="49.30443" lon="-0.31769">
        <ele>3.4</ele>
        <time>2020-12-25T16:10:15Z</time>
      </trkpt>
      <trkpt lat="49.30444" lon="-0.31771">
        <ele>3.8</ele>
        <time>2020-12-25T16:10:16Z</time>
      </trkpt>
      <trkpt lat="49.30445" lon="-0.31773">
        <ele>3.8</ele>
        <time>2020-12-25T16:10:17Z</time>
      </trkpt>
      <trkpt lat="49.30446" lon="-0.31774">
        <ele>3.7</ele>
        <time>2020-12-25T16:10:18Z</time>
      </trkpt>
      <trkpt lat="49.30447" lon="-0.31776">
        <ele>4</ele>
        <time>2020-12-25T16:10:19Z</time>
      </trkpt>
      <trkpt lat="49.30448" lon="-0.31778">
        <ele>4</ele>
        <time>2020-12-25T16:10:20Z</time>
      </trkpt>
      <trkpt lat="49.30449" lon="-0.31781">
        <ele>4.2</ele>
        <time>2020-12-25T16:10:22Z</time>
      </trkpt>
      <trkpt lat="49.3045" lon="-0.31783">
        <ele>4.2</ele>
        <time>2020-12-25T16:10:23Z</time>
      </trkpt>
      <trkpt lat="49.30452" lon="-0.31786">
        <ele>4.1</ele>
        <time>2020-12-25T16:10:25Z</time>
      </trkpt>
      <trkpt lat="49.30453" lon="-0.31788">
        <ele>4.3</ele>
        <time>2020-12-25T16:10:26Z</time>
      </trkpt>
      <trkpt lat="49.30454" lon="-0.31789">
        <ele>4</ele>
        <time>2020-12-25T16:10:27Z</time>
      </trkpt>
      <trkpt lat="49.30455" lon="-0.31791">
        <ele>4</ele>
        <time>2020-12-25T16:10:28Z</time>
      </trkpt>
      <trkpt lat="49.30456" lon="-0.31792">
        <ele>4.1</ele>
        <time>2020-12-25T16:10:29Z</time>
      </trkpt>
      <trkpt lat="49.30457" lon="-0.31793">
        <ele>3.8</ele>
        <time>2020-12-25T16:10:30Z</time>
      </trkpt>
      <trkpt lat="49.30458" lon="-0.31796">
        <ele>3.8</ele>
        <time>2020-12-25T16:10:31Z</time>
      </trkpt>
      <trkpt lat="49.30459" lon="-0.31798">
        <ele>3.6</ele>
        <time>2020-12-25T16:10:32Z</time>
      </trkpt>
      <trkpt lat="49.3046" lon="-0.31801">
        <ele>3.6</ele>
        <time>2020-12-25T16:10:34Z</time>
      </trkpt>
      <trkpt lat="49.30462" lon="-0.31804">
        <ele>3.5</ele>
        <time>2020-12-25T16:10:35Z</time>
      </trkpt>
      <trkpt lat="49.30463" lon="-0.31805">
        <ele>3.5</ele>
        <time>2020-12-25T16:10:36Z</time>
      </trkpt>
      <trkpt lat="49.30464" lon="-0.31807">
        <ele>3.5</ele>
        <time>2020-12-25T16:10:37Z</time>
      </trkpt>
      <trkpt lat="49.30465" lon="-0.31809">
        <ele>3.4</ele>
        <time>2020-12-25T16:10:39Z</time>
      </trkpt>
      <trkpt lat="49.30465" lon="-0.31811">
        <ele>3.4</ele>
        <time>2020-12-25T16:10:40Z</time>
      </trkpt>
      <trkpt lat="49.30466" lon="-0.31812">
        <ele>3.4</ele>
        <time>2020-12-25T16:10:41Z</time>
      </trkpt>
      <trkpt lat="49.30466" lon="-0.31814">
        <ele>3.4</ele>
        <time>2020-12-25T16:10:42Z</time>
      </trkpt>
      <trkpt lat="49.30467" lon="-0.31817">
        <ele>3.4</ele>
        <time>2020-12-25T16:10:43Z</time>
      </trkpt>
      <trkpt lat="49.30468" lon="-0.31819">
        <ele>3.3</ele>
        <time>2020-12-25T16:10:44Z</time>
      </trkpt>
      <trkpt lat="49.30469" lon="-0.31821">
        <ele>3.3</ele>
        <time>2020-12-25T16:10:45Z</time>
      </trkpt>
      <trkpt lat="49.30469" lon="-0.31823">
        <ele>3.2</ele>
        <time>2020-12-25T16:10:46Z</time>
      </trkpt>
      <trkpt lat="49.3047" lon="-0.31824">
        <ele>3.2</ele>
        <time>2020-12-25T16:10:47Z</time>
      </trkpt>
      <trkpt lat="49.30471" lon="-0.31826">
        <ele>3.2</ele>
        <time>2020-12-25T16:10:48Z</time>
      </trkpt>
      <trkpt lat="49.30473" lon="-0.31828">
        <ele>3.1</ele>
        <time>2020-12-25T16:10:49Z</time>
      </trkpt>
      <trkpt lat="49.30473" lon="-0.31829">
        <ele>3.2</ele>
        <time>2020-12-25T16:10:50Z</time>
      </trkpt>
      <trkpt lat="49.30475" lon="-0.31833">
        <ele>3.1</ele>
        <time>2020-12-25T16:10:52Z</time>
      </trkpt>
      <trkpt lat="49.30477" lon="-0.31836">
        <ele>3.3</ele>
        <time>2020-12-25T16:10:53Z</time>
      </trkpt>
      <trkpt lat="49.30478" lon="-0.31838">
        <ele>3.3</ele>
        <time>2020-12-25T16:10:54Z</time>
      </trkpt>
      <trkpt lat="49.3048" lon="-0.31843">
        <ele>3.5</ele>
        <time>2020-12-25T16:10:56Z</time>
      </trkpt>
      <trkpt lat="49.30481" lon="-0.31845">
        <ele>3.5</ele>
        <time>2020-12-25T16:10:57Z</time>
      </trkpt>
      <trkpt lat="49.30482" lon="-0.31846">
        <ele>3.7</ele>
        <time>2020-12-25T16:10:58Z</time>
      </trkpt>
      <trkpt lat="49.30482" lon="-0.3185">
        <ele>3.7</ele>
        <time>2020-12-25T16:11:00Z</time>
      </trkpt>
      <trkpt lat="49.30483" lon="-0.31852">
        <ele>3.7</ele>
        <time>2020-12-25T16:11:01Z</time>
      </trkpt>
      <trkpt lat="49.30483" lon="-0.31853">
        <ele>3.8</ele>
        <time>2020-12-25T16:11:02Z</time>
      </trkpt>
      <trkpt lat="49.30484" lon="-0.31856">
        <ele>3.9</ele>
        <time>2020-12-25T16:11:03Z</time>
      </trkpt>
      <trkpt lat="49.30485" lon="-0.31858">
        <ele>4</ele>
        <time>2020-12-25T16:11:04Z</time>
      </trkpt>
      <trkpt lat="49.30487" lon="-0.31861">
        <ele>4.1</ele>
        <time>2020-12-25T16:11:06Z</time>
      </trkpt>
      <trkpt lat="49.30488" lon="-0.31862">
        <ele>4</ele>
        <time>2020-12-25T16:11:07Z</time>
      </trkpt>
      <trkpt lat="49.30489" lon="-0.31864">
        <ele>4</ele>
        <time>2020-12-25T16:11:08Z</time>
      </trkpt>
      <trkpt lat="49.3049" lon="-0.31868">
        <ele>3.8</ele>
        <time>2020-12-25T16:11:09Z</time>
      </trkpt>
      <trkpt lat="49.30491" lon="-0.31869">
        <ele>3.6</ele>
        <time>2020-12-25T16:11:10Z</time>
      </trkpt>
      <trkpt lat="49.30493" lon="-0.31874">
        <ele>3.6</ele>
        <time>2020-12-25T16:11:12Z</time>
      </trkpt>
      <trkpt lat="49.30494" lon="-0.31875">
        <ele>3.6</ele>
        <time>2020-12-25T16:11:13Z</time>
      </trkpt>
      <trkpt lat="49.30495" lon="-0.31877">
        <ele>3.6</ele>
        <time>2020-12-25T16:11:14Z</time>
      </trkpt>
      <trkpt lat="49.30497" lon="-0.3188">
        <ele>3.6</ele>
        <time>2020-12-25T16:11:16Z</time>
      </trkpt>
      <trkpt lat="49.30498" lon="-0.31882">
        <ele>3.6</ele>
        <time>2020-12-25T16:11:17Z</time>
      </trkpt>
      <trkpt lat="49.30499" lon="-0.31884">
        <ele>3.6</ele>
        <time>2020-12-25T16:11:18Z</time>
      </trkpt>
      <trkpt lat="49.305" lon="-0.31887">
        <ele>3.6</ele>
        <time>2020-12-25T16:11:19Z</time>
      </trkpt>
      <trkpt lat="49.30502" lon="-0.3189">
        <ele>3.6</ele>
        <time>2020-12-25T16:11:21Z</time>
      </trkpt>
      <trkpt lat="49.30503" lon="-0.31892">
        <ele>3.6</ele>
        <time>2020-12-25T16:11:22Z</time>
      </trkpt>
      <trkpt lat="49.30504" lon="-0.31894">
        <ele>3.6</ele>
        <time>2020-12-25T16:11:23Z</time>
      </trkpt>
      <trkpt lat="49.30506" lon="-0.31897">
        <ele>3.6</ele>
        <time>2020-12-25T16:11:25Z</time>
      </trkpt>
      <trkpt lat="49.30508" lon="-0.319">
        <ele>3.6</ele>
        <time>2020-12-25T16:11:27Z</time>
      </trkpt>
      <trkpt lat="49.30509" lon="-0.31902">
        <ele>3.6</ele>
        <time>2020-12-25T16:11:28Z</time>
      </trkpt>
      <trkpt lat="49.3051" lon="-0.31903">
        <ele>3.6</ele>
        <time>2020-12-25T16:11:29Z</time>
      </trkpt>
      <trkpt lat="49.30511" lon="-0.31906">
        <ele>3.6</ele>
        <time>2020-12-25T16:11:31Z</time>
      </trkpt>
      <trkpt lat="49.30512" lon="-0.31908">
        <ele>3.6</ele>
        <time>2020-12-25T16:11:32Z</time>
      </trkpt>
      <trkpt lat="49.30514" lon="-0.3191">
        <ele>3.6</ele>
        <time>2020-12-25T16:11:34Z</time>
      </trkpt>
      <trkpt lat="49.30515" lon="-0.31912">
        <ele>3.6</ele>
        <time>2020-12-25T16:11:35Z</time>
      </trkpt>
      <trkpt lat="49.30516" lon="-0.31913">
        <ele>3.6</ele>
        <time>2020-12-25T16:11:36Z</time>
      </trkpt>
      <trkpt lat="49.30518" lon="-0.31916">
        <ele>3.6</ele>
        <time>2020-12-25T16:11:37Z</time>
      </trkpt>
      <trkpt lat="49.3052" lon="-0.31919">
        <ele>3.6</ele>
        <time>2020-12-25T16:11:39Z</time>
      </trkpt>
      <trkpt lat="49.30521" lon="-0.3192">
        <ele>3.7</ele>
        <time>2020-12-25T16:11:40Z</time>
      </trkpt>
      <trkpt lat="49.30522" lon="-0.31922">
        <ele>3.7</ele>
        <time>2020-12-25T16:11:41Z</time>
      </trkpt>
      <trkpt lat="49.30523" lon="-0.31924">
        <ele>3.7</ele>
        <time>2020-12-25T16:11:42Z</time>
      </trkpt>
      <trkpt lat="49.30524" lon="-0.31926">
        <ele>3.7</ele>
        <time>2020-12-25T16:11:43Z</time>
      </trkpt>
      <trkpt lat="49.30525" lon="-0.31928">
        <ele>3.7</ele>
        <time>2020-12-25T16:11:45Z</time>
      </trkpt>
      <trkpt lat="49.30526" lon="-0.3193">
        <ele>3.7</ele>
        <time>2020-12-25T16:11:46Z</time>
      </trkpt>
      <trkpt lat="49.30527" lon="-0.31933">
        <ele>3.7</ele>
        <time>2020-12-25T16:11:47Z</time>
      </trkpt>
      <trkpt lat="49.30528" lon="-0.31935">
        <ele>3.6</ele>
        <time>2020-12-25T16:11:48Z</time>
      </trkpt>
      <trkpt lat="49.3053" lon="-0.31938">
        <ele>3.6</ele>
        <time>2020-12-25T16:11:50Z</time>
      </trkpt>
      <trkpt lat="49.3053" lon="-0.3194">
        <ele>3.6</ele>
        <time>2020-12-25T16:11:51Z</time>
      </trkpt>
      <trkpt lat="49.30531" lon="-0.31943">
        <ele>3.6</ele>
        <time>2020-12-25T16:11:53Z</time>
      </trkpt>
      <trkpt lat="49.30532" lon="-0.31944">
        <ele>3.6</ele>
        <time>2020-12-25T16:11:54Z</time>
      </trkpt>
      <trkpt lat="49.30533" lon="-0.31947">
        <ele>3.6</ele>
        <time>2020-12-25T16:11:55Z</time>
      </trkpt>
      <trkpt lat="49.30533" lon="-0.31949">
        <ele>3.6</ele>
        <time>2020-12-25T16:11:56Z</time>
      </trkpt>
      <trkpt lat="49.30534" lon="-0.31951">
        <ele>3.6</ele>
        <time>2020-12-25T16:11:57Z</time>
      </trkpt>
      <trkpt lat="49.30535" lon="-0.31955">
        <ele>3.6</ele>
        <time>2020-12-25T16:11:58Z</time>
      </trkpt>
      <trkpt lat="49.30536" lon="-0.31956">
        <ele>3.6</ele>
        <time>2020-12-25T16:11:59Z</time>
      </trkpt>
      <trkpt lat="49.30536" lon="-0.31958">
        <ele>3.6</ele>
        <time>2020-12-25T16:12:00Z</time>
      </trkpt>
      <trkpt lat="49.30537" lon="-0.3196">
        <ele>3.6</ele>
        <time>2020-12-25T16:12:01Z</time>
      </trkpt>
      <trkpt lat="49.30537" lon="-0.31962">
        <ele>3.6</ele>
        <time>2020-12-25T16:12:02Z</time>
      </trkpt>
      <trkpt lat="49.30538" lon="-0.31965">
        <ele>3.6</ele>
        <time>2020-12-25T16:12:04Z</time>
      </trkpt>
      <trkpt lat="49.3054" lon="-0.3197">
        <ele>3.6</ele>
        <time>2020-12-25T16:12:06Z</time>
      </trkpt>
      <trkpt lat="49.3054" lon="-0.31971">
        <ele>3.6</ele>
        <time>2020-12-25T16:12:07Z</time>
      </trkpt>
      <trkpt lat="49.30541" lon="-0.31976">
        <ele>3.6</ele>
        <time>2020-12-25T16:12:09Z</time>
      </trkpt>
      <trkpt lat="49.30541" lon="-0.31977">
        <ele>3.6</ele>
        <time>2020-12-25T16:12:10Z</time>
      </trkpt>
      <trkpt lat="49.30541" lon="-0.31979">
        <ele>3.6</ele>
        <time>2020-12-25T16:12:11Z</time>
      </trkpt>
      <trkpt lat="49.30542" lon="-0.31982">
        <ele>3.6</ele>
        <time>2020-12-25T16:12:13Z</time>
      </trkpt>
      <trkpt lat="49.30543" lon="-0.31984">
        <ele>3.6</ele>
        <time>2020-12-25T16:12:14Z</time>
      </trkpt>
      <trkpt lat="49.30544" lon="-0.31986">
        <ele>3.6</ele>
        <time>2020-12-25T16:12:15Z</time>
      </trkpt>
      <trkpt lat="49.30546" lon="-0.3199">
        <ele>3.6</ele>
        <time>2020-12-25T16:12:16Z</time>
      </trkpt>
      <trkpt lat="49.30546" lon="-0.31992">
        <ele>3.6</ele>
        <time>2020-12-25T16:12:17Z</time>
      </trkpt>
      <trkpt lat="49.30547" lon="-0.31994">
        <ele>3.6</ele>
        <time>2020-12-25T16:12:18Z</time>
      </trkpt>
      <trkpt lat="49.30548" lon="-0.31997">
        <ele>3.6</ele>
        <time>2020-12-25T16:12:19Z</time>
      </trkpt>
      <trkpt lat="49.3055" lon="-0.32001">
        <ele>3.6</ele>
        <time>2020-12-25T16:12:21Z</time>
      </trkpt>
      <trkpt lat="49.3055" lon="-0.32002">
        <ele>3.6</ele>
        <time>2020-12-25T16:12:22Z</time>
      </trkpt>
      <trkpt lat="49.30551" lon="-0.32004">
        <ele>3.6</ele>
        <time>2020-12-25T16:12:23Z</time>
      </trkpt>
      <trkpt lat="49.30553" lon="-0.32006">
        <ele>3.6</ele>
        <time>2020-12-25T16:12:24Z</time>
      </trkpt>
      <trkpt lat="49.30554" lon="-0.32009">
        <ele>3.6</ele>
        <time>2020-12-25T16:12:25Z</time>
      </trkpt>
      <trkpt lat="49.30555" lon="-0.32011">
        <ele>3.6</ele>
        <time>2020-12-25T16:12:27Z</time>
      </trkpt>
      <trkpt lat="49.30555" lon="-0.32013">
        <ele>3.6</ele>
        <time>2020-12-25T16:12:28Z</time>
      </trkpt>
      <trkpt lat="49.30556" lon="-0.32015">
        <ele>3.6</ele>
        <time>2020-12-25T16:12:29Z</time>
      </trkpt>
      <trkpt lat="49.30556" lon="-0.32017">
        <ele>3.6</ele>
        <time>2020-12-25T16:12:30Z</time>
      </trkpt>
      <trkpt lat="49.30557" lon="-0.32019">
        <ele>3.6</ele>
        <time>2020-12-25T16:12:31Z</time>
      </trkpt>
      <trkpt lat="49.30558" lon="-0.32021">
        <ele>3.6</ele>
        <time>2020-12-25T16:12:32Z</time>
      </trkpt>
      <trkpt lat="49.30559" lon="-0.32024">
        <ele>3.6</ele>
        <time>2020-12-25T16:12:34Z</time>
      </trkpt>
      <trkpt lat="49.3056" lon="-0.32028">
        <ele>3.6</ele>
        <time>2020-12-25T16:12:35Z</time>
      </trkpt>
      <trkpt lat="49.30561" lon="-0.32029">
        <ele>3.6</ele>
        <time>2020-12-25T16:12:36Z</time>
      </trkpt>
      <trkpt lat="49.30562" lon="-0.32033">
        <ele>3.6</ele>
        <time>2020-12-25T16:12:38Z</time>
      </trkpt>
      <trkpt lat="49.30563" lon="-0.32034">
        <ele>3.6</ele>
        <time>2020-12-25T16:12:39Z</time>
      </trkpt>
      <trkpt lat="49.30564" lon="-0.32035">
        <ele>3.6</ele>
        <time>2020-12-25T16:12:40Z</time>
      </trkpt>
      <trkpt lat="49.30566" lon="-0.32038">
        <ele>3.6</ele>
        <time>2020-12-25T16:12:42Z</time>
      </trkpt>
      <trkpt lat="49.30566" lon="-0.32039">
        <ele>3.6</ele>
        <time>2020-12-25T16:12:43Z</time>
      </trkpt>
      <trkpt lat="49.30567" lon="-0.3204">
        <ele>3.6</ele>
        <time>2020-12-25T16:12:44Z</time>
      </trkpt>
      <trkpt lat="49.30568" lon="-0.3204">
        <ele>3.6</ele>
        <time>2020-12-25T16:12:45Z</time>
      </trkpt>
      <trkpt lat="49.3057" lon="-0.32041">
        <ele>3.6</ele>
        <time>2020-12-25T16:12:47Z</time>
      </trkpt>
      <trkpt lat="49.30571" lon="-0.32042">
        <ele>3.6</ele>
        <time>2020-12-25T16:12:48Z</time>
      </trkpt>
      <trkpt lat="49.30572" lon="-0.32045">
        <ele>3.6</ele>
        <time>2020-12-25T16:12:49Z</time>
      </trkpt>
      <trkpt lat="49.30573" lon="-0.3205">
        <ele>3.6</ele>
        <time>2020-12-25T16:12:51Z</time>
      </trkpt>
      <trkpt lat="49.30573" lon="-0.32054">
        <ele>3.6</ele>
        <time>2020-12-25T16:12:52Z</time>
      </trkpt>
      <trkpt lat="49.30575" lon="-0.3206">
        <ele>3.6</ele>
        <time>2020-12-25T16:12:54Z</time>
      </trkpt>
      <trkpt lat="49.30577" lon="-0.32065">
        <ele>3.6</ele>
        <time>2020-12-25T16:12:56Z</time>
      </trkpt>
      <trkpt lat="49.30579" lon="-0.3207">
        <ele>3.7</ele>
        <time>2020-12-25T16:12:58Z</time>
      </trkpt>
      <trkpt lat="49.3058" lon="-0.32072">
        <ele>3.7</ele>
        <time>2020-12-25T16:12:59Z</time>
      </trkpt>
      <trkpt lat="49.30582" lon="-0.32075">
        <ele>3.7</ele>
        <time>2020-12-25T16:13:01Z</time>
      </trkpt>
      <trkpt lat="49.30584" lon="-0.32079">
        <ele>3.7</ele>
        <time>2020-12-25T16:13:02Z</time>
      </trkpt>
      <trkpt lat="49.30584" lon="-0.3208">
        <ele>3.7</ele>
        <time>2020-12-25T16:13:03Z</time>
      </trkpt>
      <trkpt lat="49.30585" lon="-0.32082">
        <ele>3.7</ele>
        <time>2020-12-25T16:13:04Z</time>
      </trkpt>
      <trkpt lat="49.30587" lon="-0.32085">
        <ele>3.7</ele>
        <time>2020-12-25T16:13:06Z</time>
      </trkpt>
      <trkpt lat="49.30588" lon="-0.32089">
        <ele>3.7</ele>
        <time>2020-12-25T16:13:07Z</time>
      </trkpt>
      <trkpt lat="49.3059" lon="-0.32095">
        <ele>3.7</ele>
        <time>2020-12-25T16:13:09Z</time>
      </trkpt>
      <trkpt lat="49.3059" lon="-0.32097">
        <ele>3.7</ele>
        <time>2020-12-25T16:13:10Z</time>
      </trkpt>
      <trkpt lat="49.3059" lon="-0.321">
        <ele>3.7</ele>
        <time>2020-12-25T16:13:12Z</time>
      </trkpt>
      <trkpt lat="49.30589" lon="-0.32102">
        <ele>3.7</ele>
        <time>2020-12-25T16:13:13Z</time>
      </trkpt>
      <trkpt lat="49.30589" lon="-0.32103">
        <ele>3.7</ele>
        <time>2020-12-25T16:13:14Z</time>
      </trkpt>
      <trkpt lat="49.30586" lon="-0.32102">
        <ele>3.7</ele>
        <time>2020-12-25T16:13:16Z</time>
      </trkpt>
      <trkpt lat="49.30585" lon="-0.32104">
        <ele>3.7</ele>
        <time>2020-12-25T16:13:17Z</time>
      </trkpt>
      <trkpt lat="49.30584" lon="-0.32106">
        <ele>7.1</ele>
        <time>2020-12-25T16:13:19Z</time>
      </trkpt>
      <trkpt lat="49.30584" lon="-0.32108">
        <ele>7</ele>
        <time>2020-12-25T16:13:20Z</time>
      </trkpt>
      <trkpt lat="49.30585" lon="-0.3211">
        <ele>7</ele>
        <time>2020-12-25T16:13:22Z</time>
      </trkpt>
      <trkpt lat="49.30585" lon="-0.32112">
        <ele>7</ele>
        <time>2020-12-25T16:13:23Z</time>
      </trkpt>
      <trkpt lat="49.30585" lon="-0.32113">
        <ele>7</ele>
        <time>2020-12-25T16:13:24Z</time>
      </trkpt>
      <trkpt lat="49.30585" lon="-0.32115">
        <ele>7</ele>
        <time>2020-12-25T16:13:25Z</time>
      </trkpt>
      <trkpt lat="49.30586" lon="-0.32116">
        <ele>7</ele>
        <time>2020-12-25T16:13:26Z</time>
      </trkpt>
      <trkpt lat="49.30588" lon="-0.3212">
        <ele>7</ele>
        <time>2020-12-25T16:13:28Z</time>
      </trkpt>
      <trkpt lat="49.30589" lon="-0.32122">
        <ele>7</ele>
        <time>2020-12-25T16:13:29Z</time>
      </trkpt>
      <trkpt lat="49.3059" lon="-0.32124">
        <ele>6.9</ele>
        <time>2020-12-25T16:13:31Z</time>
      </trkpt>
      <trkpt lat="49.30591" lon="-0.32127">
        <ele>6.9</ele>
        <time>2020-12-25T16:13:32Z</time>
      </trkpt>
      <trkpt lat="49.30593" lon="-0.32131">
        <ele>6.9</ele>
        <time>2020-12-25T16:13:34Z</time>
      </trkpt>
      <trkpt lat="49.30594" lon="-0.32134">
        <ele>6.9</ele>
        <time>2020-12-25T16:13:35Z</time>
      </trkpt>
      <trkpt lat="49.30595" lon="-0.32136">
        <ele>6.9</ele>
        <time>2020-12-25T16:13:36Z</time>
      </trkpt>
      <trkpt lat="49.30596" lon="-0.32138">
        <ele>6.8</ele>
        <time>2020-12-25T16:13:38Z</time>
      </trkpt>
      <trkpt lat="49.30597" lon="-0.3214">
        <ele>6.8</ele>
        <time>2020-12-25T16:13:39Z</time>
      </trkpt>
      <trkpt lat="49.30599" lon="-0.32144">
        <ele>6.8</ele>
        <time>2020-12-25T16:13:40Z</time>
      </trkpt>
      <trkpt lat="49.306" lon="-0.32145">
        <ele>6.8</ele>
        <time>2020-12-25T16:13:41Z</time>
      </trkpt>
      <trkpt lat="49.30602" lon="-0.32149">
        <ele>6.8</ele>
        <time>2020-12-25T16:13:43Z</time>
      </trkpt>
      <trkpt lat="49.30603" lon="-0.3215">
        <ele>6.8</ele>
        <time>2020-12-25T16:13:44Z</time>
      </trkpt>
      <trkpt lat="49.30605" lon="-0.32154">
        <ele>6.7</ele>
        <time>2020-12-25T16:13:45Z</time>
      </trkpt>
      <trkpt lat="49.30605" lon="-0.32156">
        <ele>6.7</ele>
        <time>2020-12-25T16:13:46Z</time>
      </trkpt>
      <trkpt lat="49.30607" lon="-0.3216">
        <ele>6.7</ele>
        <time>2020-12-25T16:13:47Z</time>
      </trkpt>
      <trkpt lat="49.30608" lon="-0.32162">
        <ele>6.7</ele>
        <time>2020-12-25T16:13:48Z</time>
      </trkpt>
      <trkpt lat="49.3061" lon="-0.32166">
        <ele>6.7</ele>
        <time>2020-12-25T16:13:50Z</time>
      </trkpt>
      <trkpt lat="49.30611" lon="-0.32169">
        <ele>6.6</ele>
        <time>2020-12-25T16:13:51Z</time>
      </trkpt>
      <trkpt lat="49.30612" lon="-0.32172">
        <ele>6.6</ele>
        <time>2020-12-25T16:13:53Z</time>
      </trkpt>
      <trkpt lat="49.30613" lon="-0.32176">
        <ele>6.6</ele>
        <time>2020-12-25T16:13:54Z</time>
      </trkpt>
      <trkpt lat="49.30613" lon="-0.32178">
        <ele>6.6</ele>
        <time>2020-12-25T16:13:55Z</time>
      </trkpt>
      <trkpt lat="49.30614" lon="-0.3218">
        <ele>6.6</ele>
        <time>2020-12-25T16:13:56Z</time>
      </trkpt>
      <trkpt lat="49.30614" lon="-0.32186">
        <ele>6.5</ele>
        <time>2020-12-25T16:13:58Z</time>
      </trkpt>
      <trkpt lat="49.30613" lon="-0.32188">
        <ele>6.5</ele>
        <time>2020-12-25T16:14:00Z</time>
      </trkpt>
      <trkpt lat="49.30612" lon="-0.3219">
        <ele>6.5</ele>
        <time>2020-12-25T16:14:01Z</time>
      </trkpt>
      <trkpt lat="49.3061" lon="-0.32192">
        <ele>6.5</ele>
        <time>2020-12-25T16:14:03Z</time>
      </trkpt>
      <trkpt lat="49.30609" lon="-0.32193">
        <ele>6.5</ele>
        <time>2020-12-25T16:14:04Z</time>
      </trkpt>
      <trkpt lat="49.3061" lon="-0.32195">
        <ele>6.5</ele>
        <time>2020-12-25T16:14:06Z</time>
      </trkpt>
      <trkpt lat="49.30612" lon="-0.32196">
        <ele>6.5</ele>
        <time>2020-12-25T16:14:08Z</time>
      </trkpt>
      <trkpt lat="49.30612" lon="-0.32198">
        <ele>6.5</ele>
        <time>2020-12-25T16:14:09Z</time>
      </trkpt>
      <trkpt lat="49.30613" lon="-0.322">
        <ele>6.5</ele>
        <time>2020-12-25T16:14:11Z</time>
      </trkpt>
      <trkpt lat="49.30614" lon="-0.32201">
        <ele>6.5</ele>
        <time>2020-12-25T16:14:12Z</time>
      </trkpt>
      <trkpt lat="49.30616" lon="-0.322">
        <ele>6.5</ele>
        <time>2020-12-25T16:14:14Z</time>
      </trkpt>
      <trkpt lat="49.30616" lon="-0.322">
        <ele>6.5</ele>
        <time>2020-12-25T16:14:15Z</time>
      </trkpt>
      <trkpt lat="49.30616" lon="-0.32201">
        <ele>6.5</ele>
        <time>2020-12-25T16:14:16Z</time>
      </trkpt>
      <trkpt lat="49.30616" lon="-0.32201">
        <ele>6.5</ele>
        <time>2020-12-25T16:14:18Z</time>
      </trkpt>
      <trkpt lat="49.30616" lon="-0.322">
        <ele>6.5</ele>
        <time>2020-12-25T16:14:19Z</time>
      </trkpt>
      <trkpt lat="49.30616" lon="-0.322">
        <ele>6.5</ele>
        <time>2020-12-25T16:14:21Z</time>
      </trkpt>
      <trkpt lat="49.30616" lon="-0.322">
        <ele>6.5</ele>
        <time>2020-12-25T16:14:23Z</time>
      </trkpt>
      <trkpt lat="49.30616" lon="-0.32199">
        <ele>6.5</ele>
        <time>2020-12-25T16:14:25Z</time>
      </trkpt>
      <trkpt lat="49.30616" lon="-0.32199">
        <ele>6.5</ele>
        <time>2020-12-25T16:14:26Z</time>
      </trkpt>
      <trkpt lat="49.30616" lon="-0.32199">
        <ele>6.5</ele>
        <time>2020-12-25T16:14:28Z</time>
      </trkpt>
      <trkpt lat="49.30616" lon="-0.32199">
        <ele>6.5</ele>
        <time>2020-12-25T16:14:29Z</time>
      </trkpt>
      <trkpt lat="49.30616" lon="-0.32199">
        <ele>6.5</ele>
        <time>2020-12-25T16:14:31Z</time>
      </trkpt>
      <trkpt lat="49.30616" lon="-0.32198">
        <ele>6.4</ele>
        <time>2020-12-25T16:14:32Z</time>
      </trkpt>
      <trkpt lat="49.30615" lon="-0.32202">
        <ele>6.4</ele>
        <time>2020-12-25T16:14:34Z</time>
      </trkpt>
      <trkpt lat="49.30614" lon="-0.32206">
        <ele>6.4</ele>
        <time>2020-12-25T16:14:36Z</time>
      </trkpt>
      <trkpt lat="49.30615" lon="-0.32208">
        <ele>6.4</ele>
        <time>2020-12-25T16:14:38Z</time>
      </trkpt>
      <trkpt lat="49.30615" lon="-0.32208">
        <ele>6.4</ele>
        <time>2020-12-25T16:14:39Z</time>
      </trkpt>
      <trkpt lat="49.30615" lon="-0.32211">
        <ele>6.4</ele>
        <time>2020-12-25T16:14:40Z</time>
      </trkpt>
      <trkpt lat="49.30616" lon="-0.32217">
        <ele>6.4</ele>
        <time>2020-12-25T16:14:42Z</time>
      </trkpt>
      <trkpt lat="49.30617" lon="-0.3222">
        <ele>6.4</ele>
        <time>2020-12-25T16:14:43Z</time>
      </trkpt>
      <trkpt lat="49.30617" lon="-0.32222">
        <ele>6.4</ele>
        <time>2020-12-25T16:14:44Z</time>
      </trkpt>
      <trkpt lat="49.30618" lon="-0.32227">
        <ele>6.4</ele>
        <time>2020-12-25T16:14:46Z</time>
      </trkpt>
      <trkpt lat="49.30619" lon="-0.32231">
        <ele>6.3</ele>
        <time>2020-12-25T16:14:47Z</time>
      </trkpt>
      <trkpt lat="49.3062" lon="-0.32235">
        <ele>6.3</ele>
        <time>2020-12-25T16:14:48Z</time>
      </trkpt>
      <trkpt lat="49.30622" lon="-0.32239">
        <ele>6.3</ele>
        <time>2020-12-25T16:14:49Z</time>
      </trkpt>
      <trkpt lat="49.30623" lon="-0.32244">
        <ele>6.3</ele>
        <time>2020-12-25T16:14:51Z</time>
      </trkpt>
      <trkpt lat="49.30625" lon="-0.32251">
        <ele>6.3</ele>
        <time>2020-12-25T16:14:53Z</time>
      </trkpt>
      <trkpt lat="49.30625" lon="-0.32253">
        <ele>6.3</ele>
        <time>2020-12-25T16:14:54Z</time>
      </trkpt>
      <trkpt lat="49.30626" lon="-0.32255">
        <ele>6.3</ele>
        <time>2020-12-25T16:14:55Z</time>
      </trkpt>
      <trkpt lat="49.30626" lon="-0.32257">
        <ele>6.2</ele>
        <time>2020-12-25T16:14:57Z</time>
      </trkpt>
      <trkpt lat="49.30627" lon="-0.3226">
        <ele>6.2</ele>
        <time>2020-12-25T16:14:58Z</time>
      </trkpt>
      <trkpt lat="49.30628" lon="-0.32261">
        <ele>6.2</ele>
        <time>2020-12-25T16:14:59Z</time>
      </trkpt>
      <trkpt lat="49.3063" lon="-0.32264">
        <ele>6.2</ele>
        <time>2020-12-25T16:15:01Z</time>
      </trkpt>
      <trkpt lat="49.30632" lon="-0.32269">
        <ele>6.1</ele>
        <time>2020-12-25T16:15:02Z</time>
      </trkpt>
      <trkpt lat="49.30633" lon="-0.32272">
        <ele>6.1</ele>
        <time>2020-12-25T16:15:03Z</time>
      </trkpt>
      <trkpt lat="49.30634" lon="-0.32276">
        <ele>6.1</ele>
        <time>2020-12-25T16:15:05Z</time>
      </trkpt>
      <trkpt lat="49.30636" lon="-0.32281">
        <ele>6.1</ele>
        <time>2020-12-25T16:15:06Z</time>
      </trkpt>
      <trkpt lat="49.30637" lon="-0.32285">
        <ele>6.1</ele>
        <time>2020-12-25T16:15:07Z</time>
      </trkpt>
      <trkpt lat="49.30638" lon="-0.32289">
        <ele>6</ele>
        <time>2020-12-25T16:15:09Z</time>
      </trkpt>
      <trkpt lat="49.30639" lon="-0.32293">
        <ele>6</ele>
        <time>2020-12-25T16:15:10Z</time>
      </trkpt>
      <trkpt lat="49.3064" lon="-0.323">
        <ele>6</ele>
        <time>2020-12-25T16:15:12Z</time>
      </trkpt>
      <trkpt lat="49.30641" lon="-0.32304">
        <ele>6</ele>
        <time>2020-12-25T16:15:14Z</time>
      </trkpt>
      <trkpt lat="49.30642" lon="-0.32308">
        <ele>6</ele>
        <time>2020-12-25T16:15:15Z</time>
      </trkpt>
      <trkpt lat="49.30643" lon="-0.32315">
        <ele>6</ele>
        <time>2020-12-25T16:15:17Z</time>
      </trkpt>
      <trkpt lat="49.30643" lon="-0.32317">
        <ele>6</ele>
        <time>2020-12-25T16:15:18Z</time>
      </trkpt>
      <trkpt lat="49.30643" lon="-0.32319">
        <ele>6.1</ele>
        <time>2020-12-25T16:15:19Z</time>
      </trkpt>
      <trkpt lat="49.30641" lon="-0.32325">
        <ele>6.2</ele>
        <time>2020-12-25T16:15:21Z</time>
      </trkpt>
      <trkpt lat="49.3064" lon="-0.32327">
        <ele>6.3</ele>
        <time>2020-12-25T16:15:22Z</time>
      </trkpt>
      <trkpt lat="49.30639" lon="-0.32329">
        <ele>6.3</ele>
        <time>2020-12-25T16:15:23Z</time>
      </trkpt>
      <trkpt lat="49.30637" lon="-0.32332">
        <ele>6.4</ele>
        <time>2020-12-25T16:15:25Z</time>
      </trkpt>
      <trkpt lat="49.30635" lon="-0.32333">
        <ele>6.4</ele>
        <time>2020-12-25T16:15:26Z</time>
      </trkpt>
      <trkpt lat="49.30634" lon="-0.32335">
        <ele>6.5</ele>
        <time>2020-12-25T16:15:27Z</time>
      </trkpt>
      <trkpt lat="49.30632" lon="-0.32336">
        <ele>6.5</ele>
        <time>2020-12-25T16:15:28Z</time>
      </trkpt>
      <trkpt lat="49.30627" lon="-0.32339">
        <ele>6.6</ele>
        <time>2020-12-25T16:15:30Z</time>
      </trkpt>
      <trkpt lat="49.30625" lon="-0.3234">
        <ele>6.7</ele>
        <time>2020-12-25T16:15:32Z</time>
      </trkpt>
      <trkpt lat="49.30624" lon="-0.32341">
        <ele>6.7</ele>
        <time>2020-12-25T16:15:33Z</time>
      </trkpt>
      <trkpt lat="49.30622" lon="-0.32342">
        <ele>6.8</ele>
        <time>2020-12-25T16:15:34Z</time>
      </trkpt>
      <trkpt lat="49.30619" lon="-0.32342">
        <ele>6.8</ele>
        <time>2020-12-25T16:15:36Z</time>
      </trkpt>
      <trkpt lat="49.30616" lon="-0.32343">
        <ele>6.9</ele>
        <time>2020-12-25T16:15:37Z</time>
      </trkpt>
      <trkpt lat="49.30613" lon="-0.32343">
        <ele>7</ele>
        <time>2020-12-25T16:15:39Z</time>
      </trkpt>
      <trkpt lat="49.30611" lon="-0.32344">
        <ele>7.1</ele>
        <time>2020-12-25T16:15:40Z</time>
      </trkpt>
      <trkpt lat="49.30608" lon="-0.32345">
        <ele>7.1</ele>
        <time>2020-12-25T16:15:41Z</time>
      </trkpt>
      <trkpt lat="49.30603" lon="-0.32346">
        <ele>7.2</ele>
        <time>2020-12-25T16:15:43Z</time>
      </trkpt>
      <trkpt lat="49.30601" lon="-0.32346">
        <ele>7.3</ele>
        <time>2020-12-25T16:15:44Z</time>
      </trkpt>
      <trkpt lat="49.306" lon="-0.32346">
        <ele>7.3</ele>
        <time>2020-12-25T16:15:45Z</time>
      </trkpt>
      <trkpt lat="49.30596" lon="-0.32346">
        <ele>7.4</ele>
        <time>2020-12-25T16:15:47Z</time>
      </trkpt>
      <trkpt lat="49.30594" lon="-0.32347">
        <ele>7.5</ele>
        <time>2020-12-25T16:15:48Z</time>
      </trkpt>
      <trkpt lat="49.30591" lon="-0.32349">
        <ele>7.6</ele>
        <time>2020-12-25T16:15:50Z</time>
      </trkpt>
      <trkpt lat="49.30589" lon="-0.32351">
        <ele>7.7</ele>
        <time>2020-12-25T16:15:51Z</time>
      </trkpt>
      <trkpt lat="49.30586" lon="-0.32353">
        <ele>7.8</ele>
        <time>2020-12-25T16:15:53Z</time>
      </trkpt>
      <trkpt lat="49.30583" lon="-0.32354">
        <ele>7.9</ele>
        <time>2020-12-25T16:15:54Z</time>
      </trkpt>
      <trkpt lat="49.30581" lon="-0.32355">
        <ele>8</ele>
        <time>2020-12-25T16:15:55Z</time>
      </trkpt>
      <trkpt lat="49.30578" lon="-0.32357">
        <ele>8.2</ele>
        <time>2020-12-25T16:15:57Z</time>
      </trkpt>
      <trkpt lat="49.30575" lon="-0.32358">
        <ele>8.3</ele>
        <time>2020-12-25T16:15:58Z</time>
      </trkpt>
      <trkpt lat="49.30574" lon="-0.32359">
        <ele>8.4</ele>
        <time>2020-12-25T16:15:59Z</time>
      </trkpt>
      <trkpt lat="49.3057" lon="-0.32362">
        <ele>8.5</ele>
        <time>2020-12-25T16:16:01Z</time>
      </trkpt>
      <trkpt lat="49.30567" lon="-0.32365">
        <ele>8.8</ele>
        <time>2020-12-25T16:16:03Z</time>
      </trkpt>
      <trkpt lat="49.30566" lon="-0.32365">
        <ele>8.8</ele>
        <time>2020-12-25T16:16:04Z</time>
      </trkpt>
      <trkpt lat="49.30565" lon="-0.32366">
        <ele>8.8</ele>
        <time>2020-12-25T16:16:05Z</time>
      </trkpt>
      <trkpt lat="49.30563" lon="-0.32367">
        <ele>8.8</ele>
        <time>2020-12-25T16:16:06Z</time>
      </trkpt>
      <trkpt lat="49.30561" lon="-0.32366">
        <ele>8.8</ele>
        <time>2020-12-25T16:16:07Z</time>
      </trkpt>
      <trkpt lat="49.30559" lon="-0.32366">
        <ele>8.8</ele>
        <time>2020-12-25T16:16:09Z</time>
      </trkpt>
      <trkpt lat="49.30556" lon="-0.32363">
        <ele>8.8</ele>
        <time>2020-12-25T16:16:10Z</time>
      </trkpt>
      <trkpt lat="49.30556" lon="-0.32362">
        <ele>8.8</ele>
        <time>2020-12-25T16:16:11Z</time>
      </trkpt>
      <trkpt lat="49.30554" lon="-0.32361">
        <ele>8.9</ele>
        <time>2020-12-25T16:16:12Z</time>
      </trkpt>
      <trkpt lat="49.30552" lon="-0.3236">
        <ele>8.9</ele>
        <time>2020-12-25T16:16:14Z</time>
      </trkpt>
      <trkpt lat="49.3055" lon="-0.32358">
        <ele>9</ele>
        <time>2020-12-25T16:16:15Z</time>
      </trkpt>
      <trkpt lat="49.30549" lon="-0.32357">
        <ele>9</ele>
        <time>2020-12-25T16:16:16Z</time>
      </trkpt>
      <trkpt lat="49.30546" lon="-0.32355">
        <ele>9</ele>
        <time>2020-12-25T16:16:18Z</time>
      </trkpt>
      <trkpt lat="49.30544" lon="-0.32354">
        <ele>9</ele>
        <time>2020-12-25T16:16:19Z</time>
      </trkpt>
      <trkpt lat="49.30542" lon="-0.32351">
        <ele>9</ele>
        <time>2020-12-25T16:16:21Z</time>
      </trkpt>
      <trkpt lat="49.30539" lon="-0.32347">
        <ele>9.1</ele>
        <time>2020-12-25T16:16:22Z</time>
      </trkpt>
      <trkpt lat="49.30539" lon="-0.32346">
        <ele>9.1</ele>
        <time>2020-12-25T16:16:23Z</time>
      </trkpt>
      <trkpt lat="49.30536" lon="-0.32342">
        <ele>9.1</ele>
        <time>2020-12-25T16:16:25Z</time>
      </trkpt>
      <trkpt lat="49.30535" lon="-0.3234">
        <ele>9.1</ele>
        <time>2020-12-25T16:16:26Z</time>
      </trkpt>
      <trkpt lat="49.30534" lon="-0.32338">
        <ele>9.2</ele>
        <time>2020-12-25T16:16:27Z</time>
      </trkpt>
      <trkpt lat="49.30532" lon="-0.32335">
        <ele>9.2</ele>
        <time>2020-12-25T16:16:29Z</time>
      </trkpt>
      <trkpt lat="49.30531" lon="-0.32332">
        <ele>9.2</ele>
        <time>2020-12-25T16:16:30Z</time>
      </trkpt>
      <trkpt lat="49.30529" lon="-0.32329">
        <ele>9.2</ele>
        <time>2020-12-25T16:16:32Z</time>
      </trkpt>
      <trkpt lat="49.30527" lon="-0.32325">
        <ele>9.3</ele>
        <time>2020-12-25T16:16:33Z</time>
      </trkpt>
      <trkpt lat="49.30526" lon="-0.32324">
        <ele>9.3</ele>
        <time>2020-12-25T16:16:34Z</time>
      </trkpt>
      <trkpt lat="49.30524" lon="-0.3232">
        <ele>9.3</ele>
        <time>2020-12-25T16:16:36Z</time>
      </trkpt>
      <trkpt lat="49.30523" lon="-0.32319">
        <ele>9.3</ele>
        <time>2020-12-25T16:16:37Z</time>
      </trkpt>
      <trkpt lat="49.30521" lon="-0.32317">
        <ele>9.4</ele>
        <time>2020-12-25T16:16:38Z</time>
      </trkpt>
      <trkpt lat="49.30518" lon="-0.32313">
        <ele>9.4</ele>
        <time>2020-12-25T16:16:40Z</time>
      </trkpt>
      <trkpt lat="49.30515" lon="-0.32308">
        <ele>9.4</ele>
        <time>2020-12-25T16:16:42Z</time>
      </trkpt>
      <trkpt lat="49.30514" lon="-0.32306">
        <ele>9.4</ele>
        <time>2020-12-25T16:16:43Z</time>
      </trkpt>
      <trkpt lat="49.30513" lon="-0.32304">
        <ele>9.5</ele>
        <time>2020-12-25T16:16:44Z</time>
      </trkpt>
      <trkpt lat="49.30511" lon="-0.32301">
        <ele>9.5</ele>
        <time>2020-12-25T16:16:46Z</time>
      </trkpt>
      <trkpt lat="49.30508" lon="-0.32299">
        <ele>9.5</ele>
        <time>2020-12-25T16:16:47Z</time>
      </trkpt>
      <trkpt lat="49.30505" lon="-0.32293">
        <ele>9.5</ele>
        <time>2020-12-25T16:16:49Z</time>
      </trkpt>
      <trkpt lat="49.30504" lon="-0.32292">
        <ele>9.5</ele>
        <time>2020-12-25T16:16:50Z</time>
      </trkpt>
      <trkpt lat="49.30502" lon="-0.32291">
        <ele>9.6</ele>
        <time>2020-12-25T16:16:51Z</time>
      </trkpt>
      <trkpt lat="49.30499" lon="-0.32286">
        <ele>9.6</ele>
        <time>2020-12-25T16:16:53Z</time>
      </trkpt>
      <trkpt lat="49.30498" lon="-0.32285">
        <ele>9.6</ele>
        <time>2020-12-25T16:16:54Z</time>
      </trkpt>
      <trkpt lat="49.30494" lon="-0.32285">
        <ele>9.6</ele>
        <time>2020-12-25T16:16:56Z</time>
      </trkpt>
      <trkpt lat="49.30493" lon="-0.32285">
        <ele>9.7</ele>
        <time>2020-12-25T16:16:57Z</time>
      </trkpt>
      <trkpt lat="49.30491" lon="-0.32285">
        <ele>9.7</ele>
        <time>2020-12-25T16:16:58Z</time>
      </trkpt>
      <trkpt lat="49.30488" lon="-0.32286">
        <ele>9.7</ele>
        <time>2020-12-25T16:17:00Z</time>
      </trkpt>
      <trkpt lat="49.30486" lon="-0.32287">
        <ele>9.7</ele>
        <time>2020-12-25T16:17:01Z</time>
      </trkpt>
      <trkpt lat="49.30485" lon="-0.32288">
        <ele>9.7</ele>
        <time>2020-12-25T16:17:02Z</time>
      </trkpt>
      <trkpt lat="49.30483" lon="-0.3229">
        <ele>9.7</ele>
        <time>2020-12-25T16:17:03Z</time>
      </trkpt>
      <trkpt lat="49.3048" lon="-0.32293">
        <ele>9.8</ele>
        <time>2020-12-25T16:17:05Z</time>
      </trkpt>
      <trkpt lat="49.30478" lon="-0.32296">
        <ele>9.8</ele>
        <time>2020-12-25T16:17:07Z</time>
      </trkpt>
      <trkpt lat="49.30475" lon="-0.32298">
        <ele>9.8</ele>
        <time>2020-12-25T16:17:08Z</time>
      </trkpt>
      <trkpt lat="49.30472" lon="-0.32302">
        <ele>9.8</ele>
        <time>2020-12-25T16:17:10Z</time>
      </trkpt>
      <trkpt lat="49.3047" lon="-0.32304">
        <ele>9.8</ele>
        <time>2020-12-25T16:17:11Z</time>
      </trkpt>
      <trkpt lat="49.30468" lon="-0.32307">
        <ele>9.8</ele>
        <time>2020-12-25T16:17:13Z</time>
      </trkpt>
      <trkpt lat="49.30466" lon="-0.3231">
        <ele>9.8</ele>
        <time>2020-12-25T16:17:14Z</time>
      </trkpt>
      <trkpt lat="49.30465" lon="-0.32312">
        <ele>9.9</ele>
        <time>2020-12-25T16:17:15Z</time>
      </trkpt>
      <trkpt lat="49.30462" lon="-0.32316">
        <ele>9.9</ele>
        <time>2020-12-25T16:17:17Z</time>
      </trkpt>
      <trkpt lat="49.3046" lon="-0.3232">
        <ele>9.9</ele>
        <time>2020-12-25T16:17:19Z</time>
      </trkpt>
      <trkpt lat="49.30458" lon="-0.32322">
        <ele>9.9</ele>
        <time>2020-12-25T16:17:20Z</time>
      </trkpt>
      <trkpt lat="49.30455" lon="-0.32326">
        <ele>10</ele>
        <time>2020-12-25T16:17:22Z</time>
      </trkpt>
      <trkpt lat="49.30454" lon="-0.32329">
        <ele>10</ele>
        <time>2020-12-25T16:17:23Z</time>
      </trkpt>
      <trkpt lat="49.30452" lon="-0.32332">
        <ele>10</ele>
        <time>2020-12-25T16:17:25Z</time>
      </trkpt>
      <trkpt lat="49.3045" lon="-0.32335">
        <ele>10</ele>
        <time>2020-12-25T16:17:26Z</time>
      </trkpt>
      <trkpt lat="49.30449" lon="-0.32337">
        <ele>10</ele>
        <time>2020-12-25T16:17:27Z</time>
      </trkpt>
      <trkpt lat="49.30447" lon="-0.32339">
        <ele>10</ele>
        <time>2020-12-25T16:17:28Z</time>
      </trkpt>
      <trkpt lat="49.30446" lon="-0.32341">
        <ele>10</ele>
        <time>2020-12-25T16:17:30Z</time>
      </trkpt>
      <trkpt lat="49.30443" lon="-0.32345">
        <ele>10.1</ele>
        <time>2020-12-25T16:17:31Z</time>
      </trkpt>
      <trkpt lat="49.30442" lon="-0.32346">
        <ele>10.1</ele>
        <time>2020-12-25T16:17:32Z</time>
      </trkpt>
      <trkpt lat="49.30441" lon="-0.32348">
        <ele>10.1</ele>
        <time>2020-12-25T16:17:33Z</time>
      </trkpt>
      <trkpt lat="49.3044" lon="-0.32349">
        <ele>10.1</ele>
        <time>2020-12-25T16:17:34Z</time>
      </trkpt>
      <trkpt lat="49.30439" lon="-0.32351">
        <ele>10.1</ele>
        <time>2020-12-25T16:17:35Z</time>
      </trkpt>
      <trkpt lat="49.30437" lon="-0.32353">
        <ele>10.1</ele>
        <time>2020-12-25T16:17:37Z</time>
      </trkpt>
      <trkpt lat="49.30435" lon="-0.32357">
        <ele>10.2</ele>
        <time>2020-12-25T16:17:38Z</time>
      </trkpt>
      <trkpt lat="49.30433" lon="-0.3236">
        <ele>10.2</ele>
        <time>2020-12-25T16:17:40Z</time>
      </trkpt>
      <trkpt lat="49.30431" lon="-0.32363">
        <ele>10.2</ele>
        <time>2020-12-25T16:17:41Z</time>
      </trkpt>
      <trkpt lat="49.30429" lon="-0.32365">
        <ele>10.2</ele>
        <time>2020-12-25T16:17:42Z</time>
      </trkpt>
      <trkpt lat="49.30427" lon="-0.32368">
        <ele>10.3</ele>
        <time>2020-12-25T16:17:44Z</time>
      </trkpt>
      <trkpt lat="49.30424" lon="-0.32372">
        <ele>10.3</ele>
        <time>2020-12-25T16:17:46Z</time>
      </trkpt>
      <trkpt lat="49.30423" lon="-0.32375">
        <ele>10.4</ele>
        <time>2020-12-25T16:17:47Z</time>
      </trkpt>
      <trkpt lat="49.30421" lon="-0.32378">
        <ele>10.4</ele>
        <time>2020-12-25T16:17:49Z</time>
      </trkpt>
      <trkpt lat="49.30419" lon="-0.32381">
        <ele>10.4</ele>
        <time>2020-12-25T16:17:50Z</time>
      </trkpt>
      <trkpt lat="49.30418" lon="-0.32384">
        <ele>10.5</ele>
        <time>2020-12-25T16:17:51Z</time>
      </trkpt>
      <trkpt lat="49.30416" lon="-0.32386">
        <ele>10.5</ele>
        <time>2020-12-25T16:17:53Z</time>
      </trkpt>
      <trkpt lat="49.30414" lon="-0.3239">
        <ele>10.5</ele>
        <time>2020-12-25T16:17:54Z</time>
      </trkpt>
      <trkpt lat="49.30413" lon="-0.32392">
        <ele>10.6</ele>
        <time>2020-12-25T16:17:55Z</time>
      </trkpt>
      <trkpt lat="49.3041" lon="-0.32396">
        <ele>10.6</ele>
        <time>2020-12-25T16:17:57Z</time>
      </trkpt>
      <trkpt lat="49.30408" lon="-0.32398">
        <ele>10.6</ele>
        <time>2020-12-25T16:17:58Z</time>
      </trkpt>
      <trkpt lat="49.30407" lon="-0.324">
        <ele>10.6</ele>
        <time>2020-12-25T16:18:00Z</time>
      </trkpt>
      <trkpt lat="49.30405" lon="-0.32403">
        <ele>10.7</ele>
        <time>2020-12-25T16:18:01Z</time>
      </trkpt>
      <trkpt lat="49.30403" lon="-0.32405">
        <ele>10.7</ele>
        <time>2020-12-25T16:18:03Z</time>
      </trkpt>
      <trkpt lat="49.304" lon="-0.32407">
        <ele>10.7</ele>
        <time>2020-12-25T16:18:04Z</time>
      </trkpt>
      <trkpt lat="49.30397" lon="-0.3241">
        <ele>10.7</ele>
        <time>2020-12-25T16:18:06Z</time>
      </trkpt>
      <trkpt lat="49.30395" lon="-0.32413">
        <ele>10.7</ele>
        <time>2020-12-25T16:18:07Z</time>
      </trkpt>
      <trkpt lat="49.30394" lon="-0.32414">
        <ele>10.7</ele>
        <time>2020-12-25T16:18:08Z</time>
      </trkpt>
      <trkpt lat="49.30391" lon="-0.32417">
        <ele>10.7</ele>
        <time>2020-12-25T16:18:10Z</time>
      </trkpt>
      <trkpt lat="49.3039" lon="-0.32418">
        <ele>10.7</ele>
        <time>2020-12-25T16:18:11Z</time>
      </trkpt>
      <trkpt lat="49.30387" lon="-0.3242">
        <ele>10.7</ele>
        <time>2020-12-25T16:18:13Z</time>
      </trkpt>
      <trkpt lat="49.30384" lon="-0.32422">
        <ele>10.7</ele>
        <time>2020-12-25T16:18:14Z</time>
      </trkpt>
      <trkpt lat="49.30382" lon="-0.32425">
        <ele>10.7</ele>
        <time>2020-12-25T16:18:15Z</time>
      </trkpt>
      <trkpt lat="49.30381" lon="-0.32426">
        <ele>10.7</ele>
        <time>2020-12-25T16:18:16Z</time>
      </trkpt>
      <trkpt lat="49.30378" lon="-0.32429">
        <ele>10.6</ele>
        <time>2020-12-25T16:18:18Z</time>
      </trkpt>
      <trkpt lat="49.30377" lon="-0.3243">
        <ele>10.6</ele>
        <time>2020-12-25T16:18:19Z</time>
      </trkpt>
      <trkpt lat="49.30374" lon="-0.32433">
        <ele>10.6</ele>
        <time>2020-12-25T16:18:20Z</time>
      </trkpt>
      <trkpt lat="49.30373" lon="-0.32434">
        <ele>10.6</ele>
        <time>2020-12-25T16:18:21Z</time>
      </trkpt>
      <trkpt lat="49.30371" lon="-0.32436">
        <ele>10.6</ele>
        <time>2020-12-25T16:18:22Z</time>
      </trkpt>
      <trkpt lat="49.3037" lon="-0.32437">
        <ele>10.6</ele>
        <time>2020-12-25T16:18:23Z</time>
      </trkpt>
      <trkpt lat="49.30368" lon="-0.32439">
        <ele>10.5</ele>
        <time>2020-12-25T16:18:24Z</time>
      </trkpt>
      <trkpt lat="49.30366" lon="-0.32441">
        <ele>10.5</ele>
        <time>2020-12-25T16:18:26Z</time>
      </trkpt>
      <trkpt lat="49.30363" lon="-0.32444">
        <ele>10.4</ele>
        <time>2020-12-25T16:18:27Z</time>
      </trkpt>
      <trkpt lat="49.30363" lon="-0.32445">
        <ele>10.4</ele>
        <time>2020-12-25T16:18:28Z</time>
      </trkpt>
      <trkpt lat="49.30358" lon="-0.32446">
        <ele>10.3</ele>
        <time>2020-12-25T16:18:30Z</time>
      </trkpt>
      <trkpt lat="49.30356" lon="-0.32446">
        <ele>10.3</ele>
        <time>2020-12-25T16:18:32Z</time>
      </trkpt>
      <trkpt lat="49.30354" lon="-0.32446">
        <ele>10.3</ele>
        <time>2020-12-25T16:18:33Z</time>
      </trkpt>
      <trkpt lat="49.30353" lon="-0.32445">
        <ele>10.3</ele>
        <time>2020-12-25T16:18:34Z</time>
      </trkpt>
      <trkpt lat="49.3035" lon="-0.32444">
        <ele>10.4</ele>
        <time>2020-12-25T16:18:36Z</time>
      </trkpt>
      <trkpt lat="49.30347" lon="-0.32442">
        <ele>10.4</ele>
        <time>2020-12-25T16:18:38Z</time>
      </trkpt>
      <trkpt lat="49.30345" lon="-0.3244">
        <ele>10.4</ele>
        <time>2020-12-25T16:18:39Z</time>
      </trkpt>
      <trkpt lat="49.30342" lon="-0.32438">
        <ele>10.4</ele>
        <time>2020-12-25T16:18:41Z</time>
      </trkpt>
      <trkpt lat="49.3034" lon="-0.32437">
        <ele>10.4</ele>
        <time>2020-12-25T16:18:42Z</time>
      </trkpt>
      <trkpt lat="49.30336" lon="-0.32437">
        <ele>10.5</ele>
        <time>2020-12-25T16:18:44Z</time>
      </trkpt>
      <trkpt lat="49.30334" lon="-0.32437">
        <ele>10.5</ele>
        <time>2020-12-25T16:18:45Z</time>
      </trkpt>
      <trkpt lat="49.30332" lon="-0.32438">
        <ele>10.6</ele>
        <time>2020-12-25T16:18:47Z</time>
      </trkpt>
      <trkpt lat="49.30329" lon="-0.32439">
        <ele>10.7</ele>
        <time>2020-12-25T16:18:48Z</time>
      </trkpt>
      <trkpt lat="49.30326" lon="-0.32441">
        <ele>10.7</ele>
        <time>2020-12-25T16:18:50Z</time>
      </trkpt>
      <trkpt lat="49.30323" lon="-0.32443">
        <ele>10.7</ele>
        <time>2020-12-25T16:18:51Z</time>
      </trkpt>
      <trkpt lat="49.30321" lon="-0.32446">
        <ele>10.8</ele>
        <time>2020-12-25T16:18:53Z</time>
      </trkpt>
      <trkpt lat="49.30318" lon="-0.32449">
        <ele>10.8</ele>
        <time>2020-12-25T16:18:54Z</time>
      </trkpt>
      <trkpt lat="49.30315" lon="-0.32452">
        <ele>10.8</ele>
        <time>2020-12-25T16:18:56Z</time>
      </trkpt>
      <trkpt lat="49.30313" lon="-0.32455">
        <ele>10.8</ele>
        <time>2020-12-25T16:18:57Z</time>
      </trkpt>
      <trkpt lat="49.30309" lon="-0.32459">
        <ele>10.8</ele>
        <time>2020-12-25T16:18:59Z</time>
      </trkpt>
      <trkpt lat="49.30308" lon="-0.3246">
        <ele>10.8</ele>
        <time>2020-12-25T16:19:00Z</time>
      </trkpt>
      <trkpt lat="49.30305" lon="-0.32463">
        <ele>10.8</ele>
        <time>2020-12-25T16:19:02Z</time>
      </trkpt>
      <trkpt lat="49.30303" lon="-0.32466">
        <ele>10.9</ele>
        <time>2020-12-25T16:19:03Z</time>
      </trkpt>
      <trkpt lat="49.303" lon="-0.3247">
        <ele>10.9</ele>
        <time>2020-12-25T16:19:05Z</time>
      </trkpt>
      <trkpt lat="49.30299" lon="-0.32472">
        <ele>10.9</ele>
        <time>2020-12-25T16:19:06Z</time>
      </trkpt>
      <trkpt lat="49.30296" lon="-0.32476">
        <ele>10.9</ele>
        <time>2020-12-25T16:19:08Z</time>
      </trkpt>
      <trkpt lat="49.30295" lon="-0.32478">
        <ele>11</ele>
        <time>2020-12-25T16:19:09Z</time>
      </trkpt>
      <trkpt lat="49.30292" lon="-0.32482">
        <ele>11</ele>
        <time>2020-12-25T16:19:11Z</time>
      </trkpt>
      <trkpt lat="49.30291" lon="-0.32485">
        <ele>11</ele>
        <time>2020-12-25T16:19:12Z</time>
      </trkpt>
      <trkpt lat="49.30287" lon="-0.3249">
        <ele>11.1</ele>
        <time>2020-12-25T16:19:14Z</time>
      </trkpt>
      <trkpt lat="49.30286" lon="-0.32492">
        <ele>11.1</ele>
        <time>2020-12-25T16:19:15Z</time>
      </trkpt>
      <trkpt lat="49.30286" lon="-0.32493">
        <ele>11.1</ele>
        <time>2020-12-25T16:19:16Z</time>
      </trkpt>
      <trkpt lat="49.30284" lon="-0.32496">
        <ele>11.1</ele>
        <time>2020-12-25T16:19:17Z</time>
      </trkpt>
      <trkpt lat="49.30283" lon="-0.32499">
        <ele>11.2</ele>
        <time>2020-12-25T16:19:19Z</time>
      </trkpt>
      <trkpt lat="49.30281" lon="-0.32503">
        <ele>11.2</ele>
        <time>2020-12-25T16:19:20Z</time>
      </trkpt>
      <trkpt lat="49.3028" lon="-0.32505">
        <ele>11.2</ele>
        <time>2020-12-25T16:19:21Z</time>
      </trkpt>
      <trkpt lat="49.30278" lon="-0.32508">
        <ele>11.3</ele>
        <time>2020-12-25T16:19:22Z</time>
      </trkpt>
      <trkpt lat="49.30277" lon="-0.3251">
        <ele>11.3</ele>
        <time>2020-12-25T16:19:23Z</time>
      </trkpt>
      <trkpt lat="49.30275" lon="-0.32514">
        <ele>11.3</ele>
        <time>2020-12-25T16:19:25Z</time>
      </trkpt>
      <trkpt lat="49.30274" lon="-0.32516">
        <ele>11.3</ele>
        <time>2020-12-25T16:19:26Z</time>
      </trkpt>
      <trkpt lat="49.30272" lon="-0.32518">
        <ele>11.4</ele>
        <time>2020-12-25T16:19:27Z</time>
      </trkpt>
      <trkpt lat="49.30271" lon="-0.32519">
        <ele>11.4</ele>
        <time>2020-12-25T16:19:28Z</time>
      </trkpt>
      <trkpt lat="49.30268" lon="-0.32522">
        <ele>11.4</ele>
        <time>2020-12-25T16:19:30Z</time>
      </trkpt>
      <trkpt lat="49.30267" lon="-0.32523">
        <ele>11.5</ele>
        <time>2020-12-25T16:19:31Z</time>
      </trkpt>
      <trkpt lat="49.30264" lon="-0.32526">
        <ele>11.5</ele>
        <time>2020-12-25T16:19:33Z</time>
      </trkpt>
      <trkpt lat="49.30263" lon="-0.32526">
        <ele>11.6</ele>
        <time>2020-12-25T16:19:34Z</time>
      </trkpt>
      <trkpt lat="49.30261" lon="-0.32528">
        <ele>11.6</ele>
        <time>2020-12-25T16:19:35Z</time>
      </trkpt>
      <trkpt lat="49.30259" lon="-0.3253">
        <ele>11.7</ele>
        <time>2020-12-25T16:19:37Z</time>
      </trkpt>
      <trkpt lat="49.30256" lon="-0.32532">
        <ele>11.8</ele>
        <time>2020-12-25T16:19:38Z</time>
      </trkpt>
      <trkpt lat="49.30254" lon="-0.32534">
        <ele>11.9</ele>
        <time>2020-12-25T16:19:40Z</time>
      </trkpt>
      <trkpt lat="49.30251" lon="-0.32536">
        <ele>12</ele>
        <time>2020-12-25T16:19:41Z</time>
      </trkpt>
      <trkpt lat="49.30248" lon="-0.32538">
        <ele>12</ele>
        <time>2020-12-25T16:19:43Z</time>
      </trkpt>
      <trkpt lat="49.30246" lon="-0.3254">
        <ele>12.1</ele>
        <time>2020-12-25T16:19:44Z</time>
      </trkpt>
      <trkpt lat="49.30241" lon="-0.32542">
        <ele>12.2</ele>
        <time>2020-12-25T16:19:46Z</time>
      </trkpt>
      <trkpt lat="49.3024" lon="-0.32542">
        <ele>12.3</ele>
        <time>2020-12-25T16:19:47Z</time>
      </trkpt>
      <trkpt lat="49.30238" lon="-0.32542">
        <ele>12.3</ele>
        <time>2020-12-25T16:19:48Z</time>
      </trkpt>
      <trkpt lat="49.30235" lon="-0.32541">
        <ele>12.5</ele>
        <time>2020-12-25T16:19:50Z</time>
      </trkpt>
      <trkpt lat="49.30234" lon="-0.32539">
        <ele>12.5</ele>
        <time>2020-12-25T16:19:51Z</time>
      </trkpt>
      <trkpt lat="49.30232" lon="-0.32536">
        <ele>12.5</ele>
        <time>2020-12-25T16:19:53Z</time>
      </trkpt>
      <trkpt lat="49.3023" lon="-0.32531">
        <ele>12.5</ele>
        <time>2020-12-25T16:19:54Z</time>
      </trkpt>
      <trkpt lat="49.30229" lon="-0.32526">
        <ele>12.5</ele>
        <time>2020-12-25T16:19:56Z</time>
      </trkpt>
      <trkpt lat="49.30228" lon="-0.32524">
        <ele>12.5</ele>
        <time>2020-12-25T16:19:57Z</time>
      </trkpt>
      <trkpt lat="49.30227" lon="-0.32519">
        <ele>12.5</ele>
        <time>2020-12-25T16:19:58Z</time>
      </trkpt>
      <trkpt lat="49.30225" lon="-0.32513">
        <ele>12.5</ele>
        <time>2020-12-25T16:20:00Z</time>
      </trkpt>
      <trkpt lat="49.30224" lon="-0.32508">
        <ele>12.5</ele>
        <time>2020-12-25T16:20:02Z</time>
      </trkpt>
      <trkpt lat="49.30222" lon="-0.32503">
        <ele>12.5</ele>
        <time>2020-12-25T16:20:03Z</time>
      </trkpt>
      <trkpt lat="49.30221" lon="-0.32496">
        <ele>12.5</ele>
        <time>2020-12-25T16:20:05Z</time>
      </trkpt>
      <trkpt lat="49.3022" lon="-0.32494">
        <ele>12.5</ele>
        <time>2020-12-25T16:20:06Z</time>
      </trkpt>
      <trkpt lat="49.30219" lon="-0.32491">
        <ele>12.5</ele>
        <time>2020-12-25T16:20:07Z</time>
      </trkpt>
      <trkpt lat="49.30219" lon="-0.32488">
        <ele>12.5</ele>
        <time>2020-12-25T16:20:08Z</time>
      </trkpt>
      <trkpt lat="49.30218" lon="-0.32484">
        <ele>12.5</ele>
        <time>2020-12-25T16:20:10Z</time>
      </trkpt>
      <trkpt lat="49.30217" lon="-0.32479">
        <ele>12.5</ele>
        <time>2020-12-25T16:20:11Z</time>
      </trkpt>
      <trkpt lat="49.30216" lon="-0.32477">
        <ele>12.5</ele>
        <time>2020-12-25T16:20:12Z</time>
      </trkpt>
      <trkpt lat="49.30215" lon="-0.32473">
        <ele>12.5</ele>
        <time>2020-12-25T16:20:13Z</time>
      </trkpt>
      <trkpt lat="49.30214" lon="-0.32468">
        <ele>12.5</ele>
        <time>2020-12-25T16:20:15Z</time>
      </trkpt>
      <trkpt lat="49.30212" lon="-0.32463">
        <ele>12.5</ele>
        <time>2020-12-25T16:20:17Z</time>
      </trkpt>
      <trkpt lat="49.30211" lon="-0.32459">
        <ele>12.5</ele>
        <time>2020-12-25T16:20:18Z</time>
      </trkpt>
      <trkpt lat="49.30211" lon="-0.32457">
        <ele>12.5</ele>
        <time>2020-12-25T16:20:19Z</time>
      </trkpt>
      <trkpt lat="49.30209" lon="-0.32452">
        <ele>12.5</ele>
        <time>2020-12-25T16:20:21Z</time>
      </trkpt>
      <trkpt lat="49.30208" lon="-0.32448">
        <ele>12.5</ele>
        <time>2020-12-25T16:20:22Z</time>
      </trkpt>
      <trkpt lat="49.30206" lon="-0.32444">
        <ele>12.5</ele>
        <time>2020-12-25T16:20:24Z</time>
      </trkpt>
      <trkpt lat="49.30205" lon="-0.3244">
        <ele>12.5</ele>
        <time>2020-12-25T16:20:25Z</time>
      </trkpt>
      <trkpt lat="49.30204" lon="-0.32437">
        <ele>12.5</ele>
        <time>2020-12-25T16:20:26Z</time>
      </trkpt>
      <trkpt lat="49.30203" lon="-0.32433">
        <ele>12.5</ele>
        <time>2020-12-25T16:20:28Z</time>
      </trkpt>
      <trkpt lat="49.30202" lon="-0.32429">
        <ele>12.5</ele>
        <time>2020-12-25T16:20:29Z</time>
      </trkpt>
      <trkpt lat="49.302" lon="-0.32425">
        <ele>12.4</ele>
        <time>2020-12-25T16:20:31Z</time>
      </trkpt>
      <trkpt lat="49.30199" lon="-0.32419">
        <ele>12.4</ele>
        <time>2020-12-25T16:20:32Z</time>
      </trkpt>
      <trkpt lat="49.30198" lon="-0.32418">
        <ele>12.4</ele>
        <time>2020-12-25T16:20:33Z</time>
      </trkpt>
      <trkpt lat="49.30197" lon="-0.32415">
        <ele>12.4</ele>
        <time>2020-12-25T16:20:34Z</time>
      </trkpt>
      <trkpt lat="49.30195" lon="-0.3241">
        <ele>12.4</ele>
        <time>2020-12-25T16:20:36Z</time>
      </trkpt>
      <trkpt lat="49.30193" lon="-0.32405">
        <ele>12.3</ele>
        <time>2020-12-25T16:20:37Z</time>
      </trkpt>
      <trkpt lat="49.30192" lon="-0.32403">
        <ele>12.3</ele>
        <time>2020-12-25T16:20:38Z</time>
      </trkpt>
      <trkpt lat="49.3019" lon="-0.32398">
        <ele>12.3</ele>
        <time>2020-12-25T16:20:40Z</time>
      </trkpt>
      <trkpt lat="49.3019" lon="-0.32396">
        <ele>12.3</ele>
        <time>2020-12-25T16:20:41Z</time>
      </trkpt>
      <trkpt lat="49.30188" lon="-0.32391">
        <ele>12.3</ele>
        <time>2020-12-25T16:20:42Z</time>
      </trkpt>
      <trkpt lat="49.30188" lon="-0.32389">
        <ele>12.3</ele>
        <time>2020-12-25T16:20:43Z</time>
      </trkpt>
      <trkpt lat="49.30186" lon="-0.32384">
        <ele>12.2</ele>
        <time>2020-12-25T16:20:45Z</time>
      </trkpt>
      <trkpt lat="49.30186" lon="-0.32383">
        <ele>12.2</ele>
        <time>2020-12-25T16:20:46Z</time>
      </trkpt>
      <trkpt lat="49.30185" lon="-0.32378">
        <ele>12.2</ele>
        <time>2020-12-25T16:20:47Z</time>
      </trkpt>
      <trkpt lat="49.30183" lon="-0.32374">
        <ele>12.2</ele>
        <time>2020-12-25T16:20:48Z</time>
      </trkpt>
      <trkpt lat="49.30183" lon="-0.32372">
        <ele>12.2</ele>
        <time>2020-12-25T16:20:49Z</time>
      </trkpt>
      <trkpt lat="49.30181" lon="-0.32366">
        <ele>12.2</ele>
        <time>2020-12-25T16:20:51Z</time>
      </trkpt>
      <trkpt lat="49.3018" lon="-0.32364">
        <ele>12.2</ele>
        <time>2020-12-25T16:20:52Z</time>
      </trkpt>
      <trkpt lat="49.30178" lon="-0.3236">
        <ele>12.2</ele>
        <time>2020-12-25T16:20:54Z</time>
      </trkpt>
      <trkpt lat="49.30176" lon="-0.32356">
        <ele>12.2</ele>
        <time>2020-12-25T16:20:56Z</time>
      </trkpt>
      <trkpt lat="49.30174" lon="-0.32352">
        <ele>12.1</ele>
        <time>2020-12-25T16:20:57Z</time>
      </trkpt>
      <trkpt lat="49.30172" lon="-0.32346">
        <ele>12.1</ele>
        <time>2020-12-25T16:20:59Z</time>
      </trkpt>
      <trkpt lat="49.30171" lon="-0.32344">
        <ele>12.1</ele>
        <time>2020-12-25T16:21:00Z</time>
      </trkpt>
      <trkpt lat="49.3017" lon="-0.32343">
        <ele>12.1</ele>
        <time>2020-12-25T16:21:01Z</time>
      </trkpt>
      <trkpt lat="49.30168" lon="-0.32337">
        <ele>12</ele>
        <time>2020-12-25T16:21:03Z</time>
      </trkpt>
      <trkpt lat="49.30167" lon="-0.32335">
        <ele>12</ele>
        <time>2020-12-25T16:21:04Z</time>
      </trkpt>
      <trkpt lat="49.30167" lon="-0.32333">
        <ele>12</ele>
        <time>2020-12-25T16:21:05Z</time>
      </trkpt>
      <trkpt lat="49.30166" lon="-0.32331">
        <ele>12</ele>
        <time>2020-12-25T16:21:06Z</time>
      </trkpt>
      <trkpt lat="49.30166" lon="-0.32328">
        <ele>12</ele>
        <time>2020-12-25T16:21:08Z</time>
      </trkpt>
      <trkpt lat="49.30165" lon="-0.32326">
        <ele>12</ele>
        <time>2020-12-25T16:21:09Z</time>
      </trkpt>
      <trkpt lat="49.30165" lon="-0.32324">
        <ele>12</ele>
        <time>2020-12-25T16:21:10Z</time>
      </trkpt>
      <trkpt lat="49.30164" lon="-0.32321">
        <ele>12</ele>
        <time>2020-12-25T16:21:12Z</time>
      </trkpt>
      <trkpt lat="49.30163" lon="-0.32318">
        <ele>12</ele>
        <time>2020-12-25T16:21:14Z</time>
      </trkpt>
      <trkpt lat="49.30161" lon="-0.32315">
        <ele>12</ele>
        <time>2020-12-25T16:21:16Z</time>
      </trkpt>
      <trkpt lat="49.3016" lon="-0.32309">
        <ele>12</ele>
        <time>2020-12-25T16:21:18Z</time>
      </trkpt>
      <trkpt lat="49.30159" lon="-0.32306">
        <ele>12</ele>
        <time>2020-12-25T16:21:19Z</time>
      </trkpt>
      <trkpt lat="49.30158" lon="-0.32302">
        <ele>12</ele>
        <time>2020-12-25T16:21:20Z</time>
      </trkpt>
      <trkpt lat="49.30157" lon="-0.32297">
        <ele>12</ele>
        <time>2020-12-25T16:21:22Z</time>
      </trkpt>
      <trkpt lat="49.30156" lon="-0.32291">
        <ele>12</ele>
        <time>2020-12-25T16:21:24Z</time>
      </trkpt>
      <trkpt lat="49.30154" lon="-0.32285">
        <ele>12</ele>
        <time>2020-12-25T16:21:26Z</time>
      </trkpt>
      <trkpt lat="49.30153" lon="-0.32282">
        <ele>12</ele>
        <time>2020-12-25T16:21:27Z</time>
      </trkpt>
      <trkpt lat="49.30151" lon="-0.32278">
        <ele>12.1</ele>
        <time>2020-12-25T16:21:29Z</time>
      </trkpt>
      <trkpt lat="49.30148" lon="-0.32277">
        <ele>12.1</ele>
        <time>2020-12-25T16:21:31Z</time>
      </trkpt>
      <trkpt lat="49.30146" lon="-0.32275">
        <ele>12.1</ele>
        <time>2020-12-25T16:21:32Z</time>
      </trkpt>
      <trkpt lat="49.30143" lon="-0.32275">
        <ele>12.1</ele>
        <time>2020-12-25T16:21:34Z</time>
      </trkpt>
      <trkpt lat="49.30141" lon="-0.32276">
        <ele>12.1</ele>
        <time>2020-12-25T16:21:35Z</time>
      </trkpt>
      <trkpt lat="49.30139" lon="-0.32278">
        <ele>12.1</ele>
        <time>2020-12-25T16:21:37Z</time>
      </trkpt>
      <trkpt lat="49.30136" lon="-0.32281">
        <ele>12</ele>
        <time>2020-12-25T16:21:38Z</time>
      </trkpt>
      <trkpt lat="49.30135" lon="-0.32282">
        <ele>12</ele>
        <time>2020-12-25T16:21:39Z</time>
      </trkpt>
      <trkpt lat="49.30133" lon="-0.32285">
        <ele>12</ele>
        <time>2020-12-25T16:21:41Z</time>
      </trkpt>
      <trkpt lat="49.30132" lon="-0.32286">
        <ele>12</ele>
        <time>2020-12-25T16:21:42Z</time>
      </trkpt>
      <trkpt lat="49.3013" lon="-0.32289">
        <ele>12</ele>
        <time>2020-12-25T16:21:43Z</time>
      </trkpt>
      <trkpt lat="49.30129" lon="-0.3229">
        <ele>12</ele>
        <time>2020-12-25T16:21:44Z</time>
      </trkpt>
      <trkpt lat="49.30125" lon="-0.32292">
        <ele>12</ele>
        <time>2020-12-25T16:21:46Z</time>
      </trkpt>
      <trkpt lat="49.30124" lon="-0.32293">
        <ele>12</ele>
        <time>2020-12-25T16:21:47Z</time>
      </trkpt>
      <trkpt lat="49.30123" lon="-0.32294">
        <ele>12</ele>
        <time>2020-12-25T16:21:48Z</time>
      </trkpt>
      <trkpt lat="49.3012" lon="-0.32296">
        <ele>12</ele>
        <time>2020-12-25T16:21:50Z</time>
      </trkpt>
      <trkpt lat="49.30118" lon="-0.32298">
        <ele>12</ele>
        <time>2020-12-25T16:21:51Z</time>
      </trkpt>
      <trkpt lat="49.30115" lon="-0.323">
        <ele>11.9</ele>
        <time>2020-12-25T16:21:53Z</time>
      </trkpt>
      <trkpt lat="49.30112" lon="-0.32302">
        <ele>11.9</ele>
        <time>2020-12-25T16:21:55Z</time>
      </trkpt>
      <trkpt lat="49.30108" lon="-0.32303">
        <ele>11.9</ele>
        <time>2020-12-25T16:21:57Z</time>
      </trkpt>
      <trkpt lat="49.30106" lon="-0.32301">
        <ele>11.9</ele>
        <time>2020-12-25T16:21:59Z</time>
      </trkpt>
      <trkpt lat="49.30105" lon="-0.32296">
        <ele>11.9</ele>
        <time>2020-12-25T16:22:01Z</time>
      </trkpt>
      <trkpt lat="49.30104" lon="-0.32292">
        <ele>11.8</ele>
        <time>2020-12-25T16:22:02Z</time>
      </trkpt>
      <trkpt lat="49.30104" lon="-0.32289">
        <ele>11.8</ele>
        <time>2020-12-25T16:22:03Z</time>
      </trkpt>
      <trkpt lat="49.30103" lon="-0.32284">
        <ele>11.7</ele>
        <time>2020-12-25T16:22:05Z</time>
      </trkpt>
      <trkpt lat="49.30101" lon="-0.32279">
        <ele>11.7</ele>
        <time>2020-12-25T16:22:07Z</time>
      </trkpt>
      <trkpt lat="49.30101" lon="-0.32276">
        <ele>11.7</ele>
        <time>2020-12-25T16:22:08Z</time>
      </trkpt>
      <trkpt lat="49.301" lon="-0.32271">
        <ele>11.7</ele>
        <time>2020-12-25T16:22:10Z</time>
      </trkpt>
      <trkpt lat="49.30098" lon="-0.32264">
        <ele>11.6</ele>
        <time>2020-12-25T16:22:12Z</time>
      </trkpt>
      <trkpt lat="49.30097" lon="-0.32262">
        <ele>11.6</ele>
        <time>2020-12-25T16:22:14Z</time>
      </trkpt>
      <trkpt lat="49.30096" lon="-0.3226">
        <ele>11.6</ele>
        <time>2020-12-25T16:22:15Z</time>
      </trkpt>
      <trkpt lat="49.30095" lon="-0.32257">
        <ele>11.6</ele>
        <time>2020-12-25T16:22:17Z</time>
      </trkpt>
      <trkpt lat="49.30094" lon="-0.32255">
        <ele>11.6</ele>
        <time>2020-12-25T16:22:18Z</time>
      </trkpt>
      <trkpt lat="49.30094" lon="-0.32251">
        <ele>11.6</ele>
        <time>2020-12-25T16:22:20Z</time>
      </trkpt>
      <trkpt lat="49.30093" lon="-0.32245">
        <ele>11.5</ele>
        <time>2020-12-25T16:22:22Z</time>
      </trkpt>
      <trkpt lat="49.30092" lon="-0.32242">
        <ele>11.5</ele>
        <time>2020-12-25T16:22:23Z</time>
      </trkpt>
      <trkpt lat="49.30092" lon="-0.32236">
        <ele>11.5</ele>
        <time>2020-12-25T16:22:25Z</time>
      </trkpt>
      <trkpt lat="49.30092" lon="-0.32234">
        <ele>11.5</ele>
        <time>2020-12-25T16:22:26Z</time>
      </trkpt>
      <trkpt lat="49.30091" lon="-0.32231">
        <ele>11.5</ele>
        <time>2020-12-25T16:22:27Z</time>
      </trkpt>
      <trkpt lat="49.3009" lon="-0.32229">
        <ele>11.4</ele>
        <time>2020-12-25T16:22:28Z</time>
      </trkpt>
      <trkpt lat="49.30089" lon="-0.32225">
        <ele>11.4</ele>
        <time>2020-12-25T16:22:30Z</time>
      </trkpt>
      <trkpt lat="49.30087" lon="-0.3222">
        <ele>11.4</ele>
        <time>2020-12-25T16:22:32Z</time>
      </trkpt>
      <trkpt lat="49.30086" lon="-0.32217">
        <ele>11.4</ele>
        <time>2020-12-25T16:22:33Z</time>
      </trkpt>
      <trkpt lat="49.30085" lon="-0.32212">
        <ele>11.3</ele>
        <time>2020-12-25T16:22:35Z</time>
      </trkpt>
      <trkpt lat="49.30083" lon="-0.32207">
        <ele>11.3</ele>
        <time>2020-12-25T16:22:36Z</time>
      </trkpt>
      <trkpt lat="49.30082" lon="-0.32205">
        <ele>11.3</ele>
        <time>2020-12-25T16:22:37Z</time>
      </trkpt>
      <trkpt lat="49.30081" lon="-0.322">
        <ele>11.2</ele>
        <time>2020-12-25T16:22:39Z</time>
      </trkpt>
      <trkpt lat="49.3008" lon="-0.32197">
        <ele>11.2</ele>
        <time>2020-12-25T16:22:40Z</time>
      </trkpt>
      <trkpt lat="49.30079" lon="-0.32192">
        <ele>11.2</ele>
        <time>2020-12-25T16:22:42Z</time>
      </trkpt>
      <trkpt lat="49.30078" lon="-0.32186">
        <ele>11.1</ele>
        <time>2020-12-25T16:22:44Z</time>
      </trkpt>
      <trkpt lat="49.30078" lon="-0.32182">
        <ele>11.1</ele>
        <time>2020-12-25T16:22:46Z</time>
      </trkpt>
      <trkpt lat="49.30077" lon="-0.32178">
        <ele>11</ele>
        <time>2020-12-25T16:22:47Z</time>
      </trkpt>
      <trkpt lat="49.30077" lon="-0.32176">
        <ele>11</ele>
        <time>2020-12-25T16:22:48Z</time>
      </trkpt>
      <trkpt lat="49.30077" lon="-0.32174">
        <ele>11</ele>
        <time>2020-12-25T16:22:49Z</time>
      </trkpt>
      <trkpt lat="49.30077" lon="-0.32172">
        <ele>11</ele>
        <time>2020-12-25T16:22:51Z</time>
      </trkpt>
      <trkpt lat="49.30077" lon="-0.32169">
        <ele>11</ele>
        <time>2020-12-25T16:22:52Z</time>
      </trkpt>
      <trkpt lat="49.30076" lon="-0.32168">
        <ele>10.9</ele>
        <time>2020-12-25T16:22:54Z</time>
      </trkpt>
      <trkpt lat="49.30076" lon="-0.32166">
        <ele>10.9</ele>
        <time>2020-12-25T16:22:55Z</time>
      </trkpt>
      <trkpt lat="49.30075" lon="-0.32162">
        <ele>10.9</ele>
        <time>2020-12-25T16:22:56Z</time>
      </trkpt>
      <trkpt lat="49.30075" lon="-0.32159">
        <ele>10.8</ele>
        <time>2020-12-25T16:22:58Z</time>
      </trkpt>
      <trkpt lat="49.30074" lon="-0.32154">
        <ele>10.8</ele>
        <time>2020-12-25T16:22:59Z</time>
      </trkpt>
      <trkpt lat="49.30073" lon="-0.32152">
        <ele>10.8</ele>
        <time>2020-12-25T16:23:00Z</time>
      </trkpt>
      <trkpt lat="49.30072" lon="-0.32147">
        <ele>10.7</ele>
        <time>2020-12-25T16:23:02Z</time>
      </trkpt>
      <trkpt lat="49.30071" lon="-0.32142">
        <ele>10.6</ele>
        <time>2020-12-25T16:23:03Z</time>
      </trkpt>
      <trkpt lat="49.3007" lon="-0.32134">
        <ele>10.6</ele>
        <time>2020-12-25T16:23:05Z</time>
      </trkpt>
      <trkpt lat="49.30069" lon="-0.3213">
        <ele>10.5</ele>
        <time>2020-12-25T16:23:06Z</time>
      </trkpt>
      <trkpt lat="49.30068" lon="-0.32125">
        <ele>10.5</ele>
        <time>2020-12-25T16:23:08Z</time>
      </trkpt>
      <trkpt lat="49.30067" lon="-0.3212">
        <ele>10.4</ele>
        <time>2020-12-25T16:23:09Z</time>
      </trkpt>
      <trkpt lat="49.30066" lon="-0.32115">
        <ele>10.4</ele>
        <time>2020-12-25T16:23:11Z</time>
      </trkpt>
      <trkpt lat="49.30065" lon="-0.32111">
        <ele>10.3</ele>
        <time>2020-12-25T16:23:12Z</time>
      </trkpt>
      <trkpt lat="49.30064" lon="-0.32106">
        <ele>10.3</ele>
        <time>2020-12-25T16:23:13Z</time>
      </trkpt>
      <trkpt lat="49.30064" lon="-0.32105">
        <ele>10.3</ele>
        <time>2020-12-25T16:23:14Z</time>
      </trkpt>
      <trkpt lat="49.30063" lon="-0.32101">
        <ele>10.2</ele>
        <time>2020-12-25T16:23:15Z</time>
      </trkpt>
      <trkpt lat="49.30062" lon="-0.32098">
        <ele>10.2</ele>
        <time>2020-12-25T16:23:17Z</time>
      </trkpt>
      <trkpt lat="49.30061" lon="-0.32093">
        <ele>10.1</ele>
        <time>2020-12-25T16:23:18Z</time>
      </trkpt>
      <trkpt lat="49.3006" lon="-0.32092">
        <ele>10.1</ele>
        <time>2020-12-25T16:23:19Z</time>
      </trkpt>
      <trkpt lat="49.30058" lon="-0.32087">
        <ele>10</ele>
        <time>2020-12-25T16:23:21Z</time>
      </trkpt>
      <trkpt lat="49.30057" lon="-0.3208">
        <ele>10</ele>
        <time>2020-12-25T16:23:23Z</time>
      </trkpt>
      <trkpt lat="49.30057" lon="-0.32078">
        <ele>9.9</ele>
        <time>2020-12-25T16:23:24Z</time>
      </trkpt>
      <trkpt lat="49.30056" lon="-0.32075">
        <ele>9.9</ele>
        <time>2020-12-25T16:23:25Z</time>
      </trkpt>
      <trkpt lat="49.30055" lon="-0.32072">
        <ele>9.8</ele>
        <time>2020-12-25T16:23:26Z</time>
      </trkpt>
      <trkpt lat="49.30054" lon="-0.32067">
        <ele>9.8</ele>
        <time>2020-12-25T16:23:28Z</time>
      </trkpt>
      <trkpt lat="49.30053" lon="-0.32062">
        <ele>9.7</ele>
        <time>2020-12-25T16:23:29Z</time>
      </trkpt>
      <trkpt lat="49.30052" lon="-0.32061">
        <ele>9.7</ele>
        <time>2020-12-25T16:23:30Z</time>
      </trkpt>
      <trkpt lat="49.30051" lon="-0.32056">
        <ele>9.6</ele>
        <time>2020-12-25T16:23:32Z</time>
      </trkpt>
      <trkpt lat="49.3005" lon="-0.32051">
        <ele>9.6</ele>
        <time>2020-12-25T16:23:33Z</time>
      </trkpt>
      <trkpt lat="49.30049" lon="-0.32049">
        <ele>9.6</ele>
        <time>2020-12-25T16:23:34Z</time>
      </trkpt>
      <trkpt lat="49.30048" lon="-0.32044">
        <ele>9.5</ele>
        <time>2020-12-25T16:23:35Z</time>
      </trkpt>
      <trkpt lat="49.30048" lon="-0.32042">
        <ele>9.5</ele>
        <time>2020-12-25T16:23:36Z</time>
      </trkpt>
      <trkpt lat="49.30047" lon="-0.32038">
        <ele>9.4</ele>
        <time>2020-12-25T16:23:38Z</time>
      </trkpt>
      <trkpt lat="49.30046" lon="-0.32034">
        <ele>9.4</ele>
        <time>2020-12-25T16:23:39Z</time>
      </trkpt>
      <trkpt lat="49.30045" lon="-0.3203">
        <ele>9.3</ele>
        <time>2020-12-25T16:23:41Z</time>
      </trkpt>
      <trkpt lat="49.30044" lon="-0.32026">
        <ele>9.2</ele>
        <time>2020-12-25T16:23:42Z</time>
      </trkpt>
      <trkpt lat="49.30044" lon="-0.32021">
        <ele>9.1</ele>
        <time>2020-12-25T16:23:44Z</time>
      </trkpt>
      <trkpt lat="49.30043" lon="-0.32017">
        <ele>9</ele>
        <time>2020-12-25T16:23:45Z</time>
      </trkpt>
      <trkpt lat="49.30043" lon="-0.32016">
        <ele>9</ele>
        <time>2020-12-25T16:23:46Z</time>
      </trkpt>
      <trkpt lat="49.30042" lon="-0.3201">
        <ele>8.9</ele>
        <time>2020-12-25T16:23:47Z</time>
      </trkpt>
      <trkpt lat="49.30042" lon="-0.32008">
        <ele>8.8</ele>
        <time>2020-12-25T16:23:49Z</time>
      </trkpt>
      <trkpt lat="49.30042" lon="-0.32005">
        <ele>8.7</ele>
        <time>2020-12-25T16:23:50Z</time>
      </trkpt>
      <trkpt lat="49.30042" lon="-0.32002">
        <ele>8.7</ele>
        <time>2020-12-25T16:23:51Z</time>
      </trkpt>
      <trkpt lat="49.30041" lon="-0.31997">
        <ele>8.6</ele>
        <time>2020-12-25T16:23:53Z</time>
      </trkpt>
      <trkpt lat="49.3004" lon="-0.31993">
        <ele>8.5</ele>
        <time>2020-12-25T16:23:54Z</time>
      </trkpt>
      <trkpt lat="49.30039" lon="-0.31989">
        <ele>8.4</ele>
        <time>2020-12-25T16:23:55Z</time>
      </trkpt>
      <trkpt lat="49.30038" lon="-0.31985">
        <ele>8.3</ele>
        <time>2020-12-25T16:23:57Z</time>
      </trkpt>
      <trkpt lat="49.30038" lon="-0.3198">
        <ele>8.2</ele>
        <time>2020-12-25T16:23:58Z</time>
      </trkpt>
      <trkpt lat="49.30038" lon="-0.31978">
        <ele>8.2</ele>
        <time>2020-12-25T16:23:59Z</time>
      </trkpt>
      <trkpt lat="49.30036" lon="-0.31973">
        <ele>8</ele>
        <time>2020-12-25T16:24:01Z</time>
      </trkpt>
      <trkpt lat="49.30036" lon="-0.31971">
        <ele>8</ele>
        <time>2020-12-25T16:24:02Z</time>
      </trkpt>
      <trkpt lat="49.30036" lon="-0.31969">
        <ele>8</ele>
        <time>2020-12-25T16:24:03Z</time>
      </trkpt>
      <trkpt lat="49.30034" lon="-0.31965">
        <ele>7.9</ele>
        <time>2020-12-25T16:24:05Z</time>
      </trkpt>
      <trkpt lat="49.30034" lon="-0.31964">
        <ele>7.8</ele>
        <time>2020-12-25T16:24:06Z</time>
      </trkpt>
      <trkpt lat="49.30033" lon="-0.3196">
        <ele>7.7</ele>
        <time>2020-12-25T16:24:07Z</time>
      </trkpt>
      <trkpt lat="49.30032" lon="-0.31957">
        <ele>7.7</ele>
        <time>2020-12-25T16:24:08Z</time>
      </trkpt>
      <trkpt lat="49.30032" lon="-0.31953">
        <ele>7.6</ele>
        <time>2020-12-25T16:24:10Z</time>
      </trkpt>
      <trkpt lat="49.30031" lon="-0.3195">
        <ele>7.5</ele>
        <time>2020-12-25T16:24:11Z</time>
      </trkpt>
      <trkpt lat="49.30031" lon="-0.31946">
        <ele>7.4</ele>
        <time>2020-12-25T16:24:13Z</time>
      </trkpt>
      <trkpt lat="49.30031" lon="-0.31942">
        <ele>7.3</ele>
        <time>2020-12-25T16:24:14Z</time>
      </trkpt>
      <trkpt lat="49.30031" lon="-0.31941">
        <ele>7.3</ele>
        <time>2020-12-25T16:24:15Z</time>
      </trkpt>
      <trkpt lat="49.3003" lon="-0.31936">
        <ele>7.2</ele>
        <time>2020-12-25T16:24:17Z</time>
      </trkpt>
      <trkpt lat="49.3003" lon="-0.31934">
        <ele>7.2</ele>
        <time>2020-12-25T16:24:18Z</time>
      </trkpt>
      <trkpt lat="49.30029" lon="-0.3193">
        <ele>7.1</ele>
        <time>2020-12-25T16:24:19Z</time>
      </trkpt>
      <trkpt lat="49.30029" lon="-0.31928">
        <ele>7.1</ele>
        <time>2020-12-25T16:24:20Z</time>
      </trkpt>
      <trkpt lat="49.30028" lon="-0.31923">
        <ele>7.1</ele>
        <time>2020-12-25T16:24:22Z</time>
      </trkpt>
      <trkpt lat="49.30028" lon="-0.31921">
        <ele>7</ele>
        <time>2020-12-25T16:24:23Z</time>
      </trkpt>
      <trkpt lat="49.30027" lon="-0.31916">
        <ele>7</ele>
        <time>2020-12-25T16:24:24Z</time>
      </trkpt>
      <trkpt lat="49.30027" lon="-0.31915">
        <ele>6.9</ele>
        <time>2020-12-25T16:24:25Z</time>
      </trkpt>
      <trkpt lat="49.30026" lon="-0.31912">
        <ele>6.9</ele>
        <time>2020-12-25T16:24:26Z</time>
      </trkpt>
      <trkpt lat="49.30025" lon="-0.31909">
        <ele>6.8</ele>
        <time>2020-12-25T16:24:28Z</time>
      </trkpt>
      <trkpt lat="49.30023" lon="-0.31904">
        <ele>6.8</ele>
        <time>2020-12-25T16:24:29Z</time>
      </trkpt>
      <trkpt lat="49.30023" lon="-0.31903">
        <ele>6.8</ele>
        <time>2020-12-25T16:24:30Z</time>
      </trkpt>
      <trkpt lat="49.30021" lon="-0.31898">
        <ele>6.7</ele>
        <time>2020-12-25T16:24:31Z</time>
      </trkpt>
      <trkpt lat="49.3002" lon="-0.31897">
        <ele>6.7</ele>
        <time>2020-12-25T16:24:32Z</time>
      </trkpt>
      <trkpt lat="49.30019" lon="-0.31893">
        <ele>6.6</ele>
        <time>2020-12-25T16:24:34Z</time>
      </trkpt>
      <trkpt lat="49.30018" lon="-0.31891">
        <ele>6.6</ele>
        <time>2020-12-25T16:24:35Z</time>
      </trkpt>
      <trkpt lat="49.30017" lon="-0.31887">
        <ele>6.6</ele>
        <time>2020-12-25T16:24:36Z</time>
      </trkpt>
      <trkpt lat="49.30017" lon="-0.31886">
        <ele>6.5</ele>
        <time>2020-12-25T16:24:37Z</time>
      </trkpt>
      <trkpt lat="49.30016" lon="-0.31883">
        <ele>6.5</ele>
        <time>2020-12-25T16:24:38Z</time>
      </trkpt>
      <trkpt lat="49.30015" lon="-0.3188">
        <ele>6.5</ele>
        <time>2020-12-25T16:24:40Z</time>
      </trkpt>
      <trkpt lat="49.30014" lon="-0.31876">
        <ele>6.4</ele>
        <time>2020-12-25T16:24:41Z</time>
      </trkpt>
      <trkpt lat="49.30011" lon="-0.31873">
        <ele>6.4</ele>
        <time>2020-12-25T16:24:43Z</time>
      </trkpt>
      <trkpt lat="49.30009" lon="-0.31871">
        <ele>6.4</ele>
        <time>2020-12-25T16:24:44Z</time>
      </trkpt>
      <trkpt lat="49.30006" lon="-0.31867">
        <ele>6.3</ele>
        <time>2020-12-25T16:24:45Z</time>
      </trkpt>
      <trkpt lat="49.30005" lon="-0.31866">
        <ele>6.3</ele>
        <time>2020-12-25T16:24:46Z</time>
      </trkpt>
      <trkpt lat="49.30003" lon="-0.31864">
        <ele>6.4</ele>
        <time>2020-12-25T16:24:48Z</time>
      </trkpt>
      <trkpt lat="49.3" lon="-0.31861">
        <ele>6.3</ele>
        <time>2020-12-25T16:24:49Z</time>
      </trkpt>
      <trkpt lat="49.29996" lon="-0.31858">
        <ele>6.2</ele>
        <time>2020-12-25T16:24:51Z</time>
      </trkpt>
      <trkpt lat="49.29993" lon="-0.31856">
        <ele>6.2</ele>
        <time>2020-12-25T16:24:53Z</time>
      </trkpt>
      <trkpt lat="49.2999" lon="-0.31854">
        <ele>6.1</ele>
        <time>2020-12-25T16:24:54Z</time>
      </trkpt>
      <trkpt lat="49.29987" lon="-0.31852">
        <ele>6.1</ele>
        <time>2020-12-25T16:24:56Z</time>
      </trkpt>
      <trkpt lat="49.29983" lon="-0.31851">
        <ele>6</ele>
        <time>2020-12-25T16:24:58Z</time>
      </trkpt>
      <trkpt lat="49.29979" lon="-0.3185">
        <ele>6</ele>
        <time>2020-12-25T16:24:59Z</time>
      </trkpt>
      <trkpt lat="49.29976" lon="-0.31848">
        <ele>6</ele>
        <time>2020-12-25T16:25:01Z</time>
      </trkpt>
      <trkpt lat="49.29973" lon="-0.31847">
        <ele>6</ele>
        <time>2020-12-25T16:25:02Z</time>
      </trkpt>
      <trkpt lat="49.2997" lon="-0.31846">
        <ele>5.9</ele>
        <time>2020-12-25T16:25:03Z</time>
      </trkpt>
      <trkpt lat="49.29968" lon="-0.31845">
        <ele>5.9</ele>
        <time>2020-12-25T16:25:04Z</time>
      </trkpt>
      <trkpt lat="49.29967" lon="-0.31845">
        <ele>5.9</ele>
        <time>2020-12-25T16:25:05Z</time>
      </trkpt>
      <trkpt lat="49.29964" lon="-0.31843">
        <ele>5.9</ele>
        <time>2020-12-25T16:25:07Z</time>
      </trkpt>
      <trkpt lat="49.29962" lon="-0.31841">
        <ele>5.9</ele>
        <time>2020-12-25T16:25:08Z</time>
      </trkpt>
      <trkpt lat="49.29959" lon="-0.3184">
        <ele>5.9</ele>
        <time>2020-12-25T16:25:10Z</time>
      </trkpt>
      <trkpt lat="49.29956" lon="-0.31838">
        <ele>5.9</ele>
        <time>2020-12-25T16:25:11Z</time>
      </trkpt>
      <trkpt lat="49.29954" lon="-0.31837">
        <ele>5.9</ele>
        <time>2020-12-25T16:25:13Z</time>
      </trkpt>
      <trkpt lat="49.29951" lon="-0.31835">
        <ele>5.9</ele>
        <time>2020-12-25T16:25:14Z</time>
      </trkpt>
      <trkpt lat="49.29949" lon="-0.31834">
        <ele>5.9</ele>
        <time>2020-12-25T16:25:15Z</time>
      </trkpt>
      <trkpt lat="49.29948" lon="-0.31833">
        <ele>5.9</ele>
        <time>2020-12-25T16:25:16Z</time>
      </trkpt>
      <trkpt lat="49.29945" lon="-0.31831">
        <ele>6</ele>
        <time>2020-12-25T16:25:18Z</time>
      </trkpt>
      <trkpt lat="49.29944" lon="-0.3183">
        <ele>6</ele>
        <time>2020-12-25T16:25:19Z</time>
      </trkpt>
      <trkpt lat="49.29941" lon="-0.31829">
        <ele>6</ele>
        <time>2020-12-25T16:25:21Z</time>
      </trkpt>
      <trkpt lat="49.29939" lon="-0.31828">
        <ele>6</ele>
        <time>2020-12-25T16:25:22Z</time>
      </trkpt>
      <trkpt lat="49.29937" lon="-0.31827">
        <ele>6</ele>
        <time>2020-12-25T16:25:24Z</time>
      </trkpt>
      <trkpt lat="49.29934" lon="-0.31825">
        <ele>6.1</ele>
        <time>2020-12-25T16:25:25Z</time>
      </trkpt>
      <trkpt lat="49.29929" lon="-0.31822">
        <ele>6.1</ele>
        <time>2020-12-25T16:25:27Z</time>
      </trkpt>
      <trkpt lat="49.29927" lon="-0.31822">
        <ele>6.2</ele>
        <time>2020-12-25T16:25:28Z</time>
      </trkpt>
      <trkpt lat="49.29926" lon="-0.31821">
        <ele>6.2</ele>
        <time>2020-12-25T16:25:29Z</time>
      </trkpt>
      <trkpt lat="49.29921" lon="-0.31818">
        <ele>6.3</ele>
        <time>2020-12-25T16:25:31Z</time>
      </trkpt>
      <trkpt lat="49.29919" lon="-0.31817">
        <ele>6.3</ele>
        <time>2020-12-25T16:25:33Z</time>
      </trkpt>
      <trkpt lat="49.29918" lon="-0.31816">
        <ele>6.3</ele>
        <time>2020-12-25T16:25:34Z</time>
      </trkpt>
      <trkpt lat="49.29916" lon="-0.31815">
        <ele>6.4</ele>
        <time>2020-12-25T16:25:35Z</time>
      </trkpt>
      <trkpt lat="49.29912" lon="-0.31812">
        <ele>6.5</ele>
        <time>2020-12-25T16:25:37Z</time>
      </trkpt>
      <trkpt lat="49.29911" lon="-0.31812">
        <ele>6.5</ele>
        <time>2020-12-25T16:25:38Z</time>
      </trkpt>
      <trkpt lat="49.29909" lon="-0.3181">
        <ele>6.6</ele>
        <time>2020-12-25T16:25:39Z</time>
      </trkpt>
      <trkpt lat="49.29907" lon="-0.31809">
        <ele>6.6</ele>
        <time>2020-12-25T16:25:40Z</time>
      </trkpt>
      <trkpt lat="49.29904" lon="-0.31807">
        <ele>6.7</ele>
        <time>2020-12-25T16:25:42Z</time>
      </trkpt>
      <trkpt lat="49.29901" lon="-0.31805">
        <ele>6.8</ele>
        <time>2020-12-25T16:25:43Z</time>
      </trkpt>
      <trkpt lat="49.299" lon="-0.31804">
        <ele>6.8</ele>
        <time>2020-12-25T16:25:44Z</time>
      </trkpt>
      <trkpt lat="49.29899" lon="-0.31803">
        <ele>6.8</ele>
        <time>2020-12-25T16:25:45Z</time>
      </trkpt>
      <trkpt lat="49.29896" lon="-0.31802">
        <ele>6.9</ele>
        <time>2020-12-25T16:25:47Z</time>
      </trkpt>
      <trkpt lat="49.29893" lon="-0.31799">
        <ele>7</ele>
        <time>2020-12-25T16:25:48Z</time>
      </trkpt>
      <trkpt lat="49.29892" lon="-0.31798">
        <ele>7.1</ele>
        <time>2020-12-25T16:25:49Z</time>
      </trkpt>
      <trkpt lat="49.29888" lon="-0.31797">
        <ele>7.2</ele>
        <time>2020-12-25T16:25:51Z</time>
      </trkpt>
      <trkpt lat="49.29887" lon="-0.31796">
        <ele>7.3</ele>
        <time>2020-12-25T16:25:52Z</time>
      </trkpt>
      <trkpt lat="49.29884" lon="-0.31795">
        <ele>7.3</ele>
        <time>2020-12-25T16:25:54Z</time>
      </trkpt>
      <trkpt lat="49.29881" lon="-0.31793">
        <ele>7.4</ele>
        <time>2020-12-25T16:25:55Z</time>
      </trkpt>
      <trkpt lat="49.29878" lon="-0.3179">
        <ele>7.5</ele>
        <time>2020-12-25T16:25:57Z</time>
      </trkpt>
      <trkpt lat="49.29874" lon="-0.31786">
        <ele>7.6</ele>
        <time>2020-12-25T16:25:59Z</time>
      </trkpt>
      <trkpt lat="49.29873" lon="-0.31785">
        <ele>7.6</ele>
        <time>2020-12-25T16:26:00Z</time>
      </trkpt>
      <trkpt lat="49.29871" lon="-0.31784">
        <ele>7.7</ele>
        <time>2020-12-25T16:26:01Z</time>
      </trkpt>
      <trkpt lat="49.29867" lon="-0.31781">
        <ele>7.8</ele>
        <time>2020-12-25T16:26:03Z</time>
      </trkpt>
      <trkpt lat="49.29866" lon="-0.31779">
        <ele>7.9</ele>
        <time>2020-12-25T16:26:04Z</time>
      </trkpt>
      <trkpt lat="49.29864" lon="-0.31778">
        <ele>7.9</ele>
        <time>2020-12-25T16:26:05Z</time>
      </trkpt>
      <trkpt lat="49.29862" lon="-0.31776">
        <ele>8</ele>
        <time>2020-12-25T16:26:06Z</time>
      </trkpt>
      <trkpt lat="49.2986" lon="-0.31774">
        <ele>8.1</ele>
        <time>2020-12-25T16:26:08Z</time>
      </trkpt>
      <trkpt lat="49.29857" lon="-0.31772">
        <ele>8.2</ele>
        <time>2020-12-25T16:26:09Z</time>
      </trkpt>
      <trkpt lat="49.29855" lon="-0.31771">
        <ele>8.2</ele>
        <time>2020-12-25T16:26:11Z</time>
      </trkpt>
      <trkpt lat="49.29853" lon="-0.31769">
        <ele>8.3</ele>
        <time>2020-12-25T16:26:12Z</time>
      </trkpt>
      <trkpt lat="49.2985" lon="-0.31766">
        <ele>8.4</ele>
        <time>2020-12-25T16:26:14Z</time>
      </trkpt>
      <trkpt lat="49.29847" lon="-0.31763">
        <ele>8.5</ele>
        <time>2020-12-25T16:26:15Z</time>
      </trkpt>
      <trkpt lat="49.29845" lon="-0.3176">
        <ele>8.6</ele>
        <time>2020-12-25T16:26:17Z</time>
      </trkpt>
      <trkpt lat="49.29843" lon="-0.31757">
        <ele>8.6</ele>
        <time>2020-12-25T16:26:18Z</time>
      </trkpt>
      <trkpt lat="49.29841" lon="-0.31755">
        <ele>8.7</ele>
        <time>2020-12-25T16:26:20Z</time>
      </trkpt>
      <trkpt lat="49.29838" lon="-0.31751">
        <ele>8.8</ele>
        <time>2020-12-25T16:26:21Z</time>
      </trkpt>
      <trkpt lat="49.29836" lon="-0.3175">
        <ele>8.8</ele>
        <time>2020-12-25T16:26:22Z</time>
      </trkpt>
      <trkpt lat="49.29834" lon="-0.31747">
        <ele>8.9</ele>
        <time>2020-12-25T16:26:23Z</time>
      </trkpt>
      <trkpt lat="49.29833" lon="-0.31746">
        <ele>9</ele>
        <time>2020-12-25T16:26:24Z</time>
      </trkpt>
      <trkpt lat="49.2983" lon="-0.31743">
        <ele>9</ele>
        <time>2020-12-25T16:26:25Z</time>
      </trkpt>
      <trkpt lat="49.29829" lon="-0.31741">
        <ele>9.1</ele>
        <time>2020-12-25T16:26:27Z</time>
      </trkpt>
      <trkpt lat="49.29825" lon="-0.31738">
        <ele>9.2</ele>
        <time>2020-12-25T16:26:28Z</time>
      </trkpt>
      <trkpt lat="49.29824" lon="-0.31736">
        <ele>9.2</ele>
        <time>2020-12-25T16:26:29Z</time>
      </trkpt>
      <trkpt lat="49.29821" lon="-0.31732">
        <ele>9.3</ele>
        <time>2020-12-25T16:26:31Z</time>
      </trkpt>
      <trkpt lat="49.29817" lon="-0.31728">
        <ele>9.4</ele>
        <time>2020-12-25T16:26:33Z</time>
      </trkpt>
      <trkpt lat="49.29815" lon="-0.31727">
        <ele>9.5</ele>
        <time>2020-12-25T16:26:34Z</time>
      </trkpt>
      <trkpt lat="49.29814" lon="-0.31725">
        <ele>9.5</ele>
        <time>2020-12-25T16:26:35Z</time>
      </trkpt>
      <trkpt lat="49.29812" lon="-0.31723">
        <ele>9.6</ele>
        <time>2020-12-25T16:26:36Z</time>
      </trkpt>
      <trkpt lat="49.2981" lon="-0.31721">
        <ele>9.6</ele>
        <time>2020-12-25T16:26:38Z</time>
      </trkpt>
      <trkpt lat="49.29807" lon="-0.31719">
        <ele>9.7</ele>
        <time>2020-12-25T16:26:39Z</time>
      </trkpt>
      <trkpt lat="49.29804" lon="-0.31717">
        <ele>9.7</ele>
        <time>2020-12-25T16:26:41Z</time>
      </trkpt>
      <trkpt lat="49.29802" lon="-0.31715">
        <ele>9.8</ele>
        <time>2020-12-25T16:26:42Z</time>
      </trkpt>
      <trkpt lat="49.29799" lon="-0.31711">
        <ele>9.8</ele>
        <time>2020-12-25T16:26:44Z</time>
      </trkpt>
      <trkpt lat="49.29796" lon="-0.31708">
        <ele>9.9</ele>
        <time>2020-12-25T16:26:45Z</time>
      </trkpt>
      <trkpt lat="49.29795" lon="-0.31707">
        <ele>9.9</ele>
        <time>2020-12-25T16:26:46Z</time>
      </trkpt>
      <trkpt lat="49.29793" lon="-0.31705">
        <ele>10</ele>
        <time>2020-12-25T16:26:47Z</time>
      </trkpt>
      <trkpt lat="49.29791" lon="-0.31703">
        <ele>10</ele>
        <time>2020-12-25T16:26:49Z</time>
      </trkpt>
      <trkpt lat="49.29788" lon="-0.317">
        <ele>10</ele>
        <time>2020-12-25T16:26:50Z</time>
      </trkpt>
      <trkpt lat="49.29787" lon="-0.31699">
        <ele>10</ele>
        <time>2020-12-25T16:26:51Z</time>
      </trkpt>
      <trkpt lat="49.29783" lon="-0.31697">
        <ele>10.1</ele>
        <time>2020-12-25T16:26:52Z</time>
      </trkpt>
      <trkpt lat="49.29782" lon="-0.31696">
        <ele>10.1</ele>
        <time>2020-12-25T16:26:53Z</time>
      </trkpt>
      <trkpt lat="49.29778" lon="-0.31693">
        <ele>10.1</ele>
        <time>2020-12-25T16:26:55Z</time>
      </trkpt>
      <trkpt lat="49.29777" lon="-0.31692">
        <ele>10.2</ele>
        <time>2020-12-25T16:26:56Z</time>
      </trkpt>
      <trkpt lat="49.29773" lon="-0.3169">
        <ele>10.2</ele>
        <time>2020-12-25T16:26:58Z</time>
      </trkpt>
      <trkpt lat="49.2977" lon="-0.31688">
        <ele>10.3</ele>
        <time>2020-12-25T16:27:00Z</time>
      </trkpt>
      <trkpt lat="49.29767" lon="-0.31685">
        <ele>10.3</ele>
        <time>2020-12-25T16:27:01Z</time>
      </trkpt>
      <trkpt lat="49.29763" lon="-0.31683">
        <ele>10.4</ele>
        <time>2020-12-25T16:27:03Z</time>
      </trkpt>
      <trkpt lat="49.29761" lon="-0.31682">
        <ele>10.4</ele>
        <time>2020-12-25T16:27:04Z</time>
      </trkpt>
      <trkpt lat="49.2976" lon="-0.31681">
        <ele>10.4</ele>
        <time>2020-12-25T16:27:05Z</time>
      </trkpt>
      <trkpt lat="49.29757" lon="-0.31679">
        <ele>10.4</ele>
        <time>2020-12-25T16:27:07Z</time>
      </trkpt>
      <trkpt lat="49.29755" lon="-0.31677">
        <ele>10.5</ele>
        <time>2020-12-25T16:27:08Z</time>
      </trkpt>
      <trkpt lat="49.29752" lon="-0.31675">
        <ele>10.5</ele>
        <time>2020-12-25T16:27:09Z</time>
      </trkpt>
      <trkpt lat="49.29751" lon="-0.31674">
        <ele>10.5</ele>
        <time>2020-12-25T16:27:10Z</time>
      </trkpt>
      <trkpt lat="49.29748" lon="-0.31672">
        <ele>10.6</ele>
        <time>2020-12-25T16:27:12Z</time>
      </trkpt>
      <trkpt lat="49.29746" lon="-0.3167">
        <ele>10.6</ele>
        <time>2020-12-25T16:27:13Z</time>
      </trkpt>
      <trkpt lat="49.29742" lon="-0.31666">
        <ele>10.6</ele>
        <time>2020-12-25T16:27:15Z</time>
      </trkpt>
      <trkpt lat="49.2974" lon="-0.31665">
        <ele>10.7</ele>
        <time>2020-12-25T16:27:16Z</time>
      </trkpt>
      <trkpt lat="49.29739" lon="-0.31663">
        <ele>10.7</ele>
        <time>2020-12-25T16:27:17Z</time>
      </trkpt>
      <trkpt lat="49.29735" lon="-0.3166">
        <ele>10.7</ele>
        <time>2020-12-25T16:27:19Z</time>
      </trkpt>
      <trkpt lat="49.29732" lon="-0.31658">
        <ele>10.7</ele>
        <time>2020-12-25T16:27:20Z</time>
      </trkpt>
      <trkpt lat="49.29729" lon="-0.31656">
        <ele>10.8</ele>
        <time>2020-12-25T16:27:22Z</time>
      </trkpt>
      <trkpt lat="49.29727" lon="-0.31653">
        <ele>10.8</ele>
        <time>2020-12-25T16:27:23Z</time>
      </trkpt>
      <trkpt lat="49.29725" lon="-0.31652">
        <ele>10.8</ele>
        <time>2020-12-25T16:27:24Z</time>
      </trkpt>
      <trkpt lat="49.29723" lon="-0.3165">
        <ele>10.8</ele>
        <time>2020-12-25T16:27:26Z</time>
      </trkpt>
      <trkpt lat="49.2972" lon="-0.31648">
        <ele>10.9</ele>
        <time>2020-12-25T16:27:27Z</time>
      </trkpt>
      <trkpt lat="49.29719" lon="-0.31647">
        <ele>10.9</ele>
        <time>2020-12-25T16:27:28Z</time>
      </trkpt>
      <trkpt lat="49.29717" lon="-0.31645">
        <ele>10.9</ele>
        <time>2020-12-25T16:27:29Z</time>
      </trkpt>
      <trkpt lat="49.29715" lon="-0.31643">
        <ele>10.9</ele>
        <time>2020-12-25T16:27:31Z</time>
      </trkpt>
      <trkpt lat="49.29713" lon="-0.31641">
        <ele>10.9</ele>
        <time>2020-12-25T16:27:32Z</time>
      </trkpt>
      <trkpt lat="49.29711" lon="-0.31639">
        <ele>10.9</ele>
        <time>2020-12-25T16:27:34Z</time>
      </trkpt>
      <trkpt lat="49.29708" lon="-0.31637">
        <ele>11</ele>
        <time>2020-12-25T16:27:35Z</time>
      </trkpt>
      <trkpt lat="49.29707" lon="-0.31636">
        <ele>11</ele>
        <time>2020-12-25T16:27:36Z</time>
      </trkpt>
      <trkpt lat="49.29705" lon="-0.31635">
        <ele>11</ele>
        <time>2020-12-25T16:27:37Z</time>
      </trkpt>
      <trkpt lat="49.29703" lon="-0.31634">
        <ele>11</ele>
        <time>2020-12-25T16:27:39Z</time>
      </trkpt>
      <trkpt lat="49.297" lon="-0.31631">
        <ele>11</ele>
        <time>2020-12-25T16:27:40Z</time>
      </trkpt>
      <trkpt lat="49.29699" lon="-0.31631">
        <ele>11</ele>
        <time>2020-12-25T16:27:41Z</time>
      </trkpt>
      <trkpt lat="49.29696" lon="-0.31629">
        <ele>11</ele>
        <time>2020-12-25T16:27:42Z</time>
      </trkpt>
      <trkpt lat="49.29695" lon="-0.31629">
        <ele>11</ele>
        <time>2020-12-25T16:27:43Z</time>
      </trkpt>
      <trkpt lat="49.29691" lon="-0.31627">
        <ele>11</ele>
        <time>2020-12-25T16:27:45Z</time>
      </trkpt>
      <trkpt lat="49.2969" lon="-0.31626">
        <ele>11</ele>
        <time>2020-12-25T16:27:46Z</time>
      </trkpt>
      <trkpt lat="49.29687" lon="-0.31624">
        <ele>11</ele>
        <time>2020-12-25T16:27:48Z</time>
      </trkpt>
      <trkpt lat="49.29685" lon="-0.31623">
        <ele>11</ele>
        <time>2020-12-25T16:27:49Z</time>
      </trkpt>
      <trkpt lat="49.29682" lon="-0.31622">
        <ele>11</ele>
        <time>2020-12-25T16:27:51Z</time>
      </trkpt>
      <trkpt lat="49.29679" lon="-0.3162">
        <ele>11</ele>
        <time>2020-12-25T16:27:52Z</time>
      </trkpt>
      <trkpt lat="49.29675" lon="-0.31618">
        <ele>11</ele>
        <time>2020-12-25T16:27:54Z</time>
      </trkpt>
      <trkpt lat="49.29673" lon="-0.31616">
        <ele>10.9</ele>
        <time>2020-12-25T16:27:55Z</time>
      </trkpt>
      <trkpt lat="49.2967" lon="-0.31615">
        <ele>10.9</ele>
        <time>2020-12-25T16:27:57Z</time>
      </trkpt>
      <trkpt lat="49.29666" lon="-0.31613">
        <ele>10.9</ele>
        <time>2020-12-25T16:27:58Z</time>
      </trkpt>
      <trkpt lat="49.29663" lon="-0.31611">
        <ele>10.9</ele>
        <time>2020-12-25T16:28:00Z</time>
      </trkpt>
      <trkpt lat="49.2966" lon="-0.3161">
        <ele>10.9</ele>
        <time>2020-12-25T16:28:01Z</time>
      </trkpt>
      <trkpt lat="49.29657" lon="-0.31608">
        <ele>10.9</ele>
        <time>2020-12-25T16:28:02Z</time>
      </trkpt>
      <trkpt lat="49.29656" lon="-0.31608">
        <ele>10.9</ele>
        <time>2020-12-25T16:28:03Z</time>
      </trkpt>
      <trkpt lat="49.29654" lon="-0.31607">
        <ele>10.9</ele>
        <time>2020-12-25T16:28:04Z</time>
      </trkpt>
      <trkpt lat="49.29652" lon="-0.31606">
        <ele>10.9</ele>
        <time>2020-12-25T16:28:06Z</time>
      </trkpt>
      <trkpt lat="49.2965" lon="-0.31607">
        <ele>10.9</ele>
        <time>2020-12-25T16:28:08Z</time>
      </trkpt>
    </trkseg>
  </trk>
</gpx>